[[{"header":{"parameterUnit":"m.s-1","parameterCategory":1,"la1":31.0,"la2":29.5877,"lo1":-88.7671,"lo2":-86.6584,"dy":0.0162,"dx":0.0185,"nx":115,"ny":88,"refTime":"2023-04-02T12:00:00:Z","depth":0,"parameterNumber":2,"parameterNumberName":"U-component_of_WINDS"},"data":[0.0,0.0,0.0,0.0,0.0,0.0,0.0,0.0,0.0,0.0,0.0,0.0,0.0,0.0,0.0,0.0,0.0,0.0,0.0,0.0,0.0,0.0,0.0,0.0,0.0,0.0,0.0,0.0,0.0,0.0,0.0,0.0,0.0,0.0,0.0,0.0,0.0,0.0,0.0,0.0,0.0,0.0,0.0,0.0,0.0,0.0,0.0,0.0,0.0,0.0,0.0,0.0,0.0,0.0,0.0,0.0,0.0,0.0,0.0,0.0,0.0,0.0,0.0,0.0,0.0,0.0,0.0,0.0,0.0,0.0,0.0,0.0,0.0,0.0,0.0,0.0,0.0,0.0,0.0,0.0,0.0,0.0,0.0,0.0,0.0,0.0,0.0,0.0,0.0,0.0,0.0,0.0,0.0,0.0,0.0,0.0,0.0,0.0,0.0,0.0,0.0,0.0,0.0,0.0,0.0,0.0,0.0,0.0,0.0,0.0,0.0,0.0,0.0,0.0,0.0,0.0,0.0,0.0,0.0,0.0,0.0,0.0,0.0,0.0,0.0,0.0,0.0,0.0,0.0,0.0,0.0,0.0,0.0,0.0,0.0,0.0,0.0,0.0,0.0,0.0,0.0,0.0,0.0,0.0,0.0,0.0,0.0,0.0,0.0,0.0,0.0,0.0,0.0,0.0,0.0,0.0,0.0,0.0,0.0,0.0,0.0,0.0,0.0,0.0,0.0,0.0,0.0,0.0,0.0,0.0,0.0,0.0,0.0,0.0,0.0,0.0,0.0,0.0,0.0,0.0,0.0,0.0,0.0,0.0,0.0,0.0,0.0,0.0,0.0,0.0,0.0,0.0,0.0,0.0,0.0,0.0,0.0,0.0,0.0,0.0,0.0,0.0,0.0,0.0,0.0,0.0,0.0,0.0,0.0,0.0,0.0,0.0,0.0,0.0,0.0,0.0,0.0,0.0,0.0,0.0,0.0,0.0,0.0,0.0,0.0,0.0,0.0,0.0,0.0,0.0,0.0,0.0,0.0,0.0,0.0,0.0,0.0,0.0,0.0,0.0,0.0,0.0,0.0,0.0,0.0,0.0,0.0,0.0,0.0,0.0,0.0,0.0,0.0,0.0,0.0,0.0,0.0,0.0,0.0,0.0,0.0,0.0,0.0,0.0,0.0,0.0,0.0,0.0,0.0,0.0,0.0,0.0,0.0,0.0,0.0,0.0,0.0,0.0,0.0,0.0,0.0,0.0,0.0,0.0,0.0,0.0,0.0,0.0,0.0,0.0,0.0,0.0,0.0,0.0,0.0,0.0,0.0,0.0,0.0,0.0,0.0,0.0,0.0,0.0,0.0,0.0,0.0,0.0,0.0,0.0,0.0,0.0,0.0,0.0,0.0,0.0,0.0,0.0,0.0,0.0,0.0,0.0,0.0,0.0,0.0,0.0,0.0,0.0,0.0,0.0,0.0,0.0,0.0,0.0,0.0,0.0,0.0,0.0,0.0,0.0,0.0,0.0,0.0,0.0,0.0,0.0,0.0,0.0,0.0,0.0,0.0,0.0,0.0,0.0,0.0,0.0,0.0,0.0,0.0,0.0,0.0,0.0,0.0,0.0,0.0,0.0,0.0,0.0,0.0,0.0,0.0,0.0,0.0,0.0,0.0,0.0,0.0,0.0,0.0,0.0,0.0,0.0,0.0,0.0,0.0,0.0,0.0,0.0,0.0,0.0,0.0,0.0,0.0,0.0,0.0,0.0,0.0,0.0,0.0,0.0,0.0,0.0,0.0,0.0,0.0,0.0,0.0,0.0,0.0,0.0,0.0,0.0,0.0,0.0,0.0,0.0,0.0,0.0,0.0,0.0,0.0,0.0,0.0,0.0,0.0,0.0,0.0,0.0,0.0,0.0,0.0,0.0,0.0,0.0,0.0,0.0,0.0,0.0,0.0,0.0,0.0,0.0,0.0,0.0,0.0,0.0,0.0,0.0,0.0,0.0,0.0,0.0,0.0,0.0,0.0,0.0,0.0,0.0,0.0,0.0,0.0,0.0,0.0,0.0,0.0,0.0,0.0,0.0,0.0,0.0,0.0,0.0,0.0,0.0,0.0,0.0,0.0,0.0,0.0,0.0,0.0,0.0,0.0,0.0,0.0,0.0,0.0,0.0,0.0,0.0,0.0,0.0,0.0,0.0,0.0,0.0,0.0,0.0,0.0,0.0,0.0,0.0,0.0,0.0,0.0,0.0,0.0,0.0,0.0,0.0,0.0,0.0,0.0,0.0,0.0,0.0,0.0,0.0,0.0,0.0,0.0,0.0,0.0,0.0,0.0,0.0,0.0,0.0,0.0,0.0,0.0,0.0,0.0,0.0,0.0,0.0,0.0,0.0,0.0,0.0,0.0,0.0,0.0,0.0,0.0,0.0,0.0,0.0,0.0,0.0,0.0,0.0,0.0,0.0,0.0,0.0,0.0,0.0,0.0,0.0,0.0,0.0,0.0,0.0,0.0,0.0,0.0,0.0,0.0,0.0,0.0,0.0,0.0,0.0,0.0,0.0,0.0,0.0,0.0,0.0,0.0,0.0,0.0,0.0,0.0,0.0,0.0,0.0,0.0,0.0,0.0,0.0,0.0,0.0,0.0,0.0,0.0,0.0,0.0,0.0,0.0,0.0,0.0,0.0,0.0,0.0,0.0,0.0,0.0,0.0,0.0,0.0,0.0,0.0,0.0,0.0,0.0,0.0,0.0,0.0,0.0,0.0,0.0,0.0,0.0,0.0,0.0,0.0,0.0,0.0,0.0,0.0,0.0,0.0,0.0,0.0,0.0,0.0,0.0,0.0,0.0,0.0,0.0,0.0,0.0,0.0,0.0,0.0,0.0,0.0,0.0,0.0,0.0,0.0,0.0,0.0,0.0,0.0,0.0,0.0,0.0,0.0,0.0,0.0,0.0,0.0,0.0,0.0,0.0,0.0,0.0,0.0,0.0,0.0,0.0,0.0,0.0,0.0,0.0,0.0,0.0,0.0,0.0,0.0,0.0,0.0,0.0,0.0,0.0,0.0,0.0,0.0,0.0,0.0,0.0,0.0,0.0,0.0,0.0,0.0,0.0,0.0,0.0,0.0,0.0,0.0,0.0,0.0,0.0,0.0,0.0,0.0,0.0,0.0,0.0,0.0,0.0,0.0,0.0,0.0,0.0,0.0,0.0,0.0,0.0,0.0,0.0,0.0,0.0,0.0,0.0,0.0,0.0,0.0,0.0,0.0,0.0,0.0,0.0,0.0,0.0,0.0,0.0,0.0,0.0,0.0,0.0,0.0,0.0,0.0,0.0,0.0,0.0,0.0,0.0,0.0,0.0,0.0,0.0,0.0,0.0,0.0,0.0,0.0,0.0,0.0,0.0,0.0,0.0,0.0,0.0,0.0,0.0,0.0,0.0,0.0,0.0,0.0,0.0,0.0,0.0,0.0,0.0,0.0,0.0,0.0,0.0,0.0,0.0,0.0,0.0,0.0,0.0,0.0,0.0,0.0,0.0,0.0,0.0,0.0,0.0,0.0,0.0,0.0,0.0,0.0,0.0,0.0,0.0,0.0,0.0,0.0,0.0,0.0,0.0,0.0,0.0,0.0,0.0,0.0,0.0,0.0,0.0,0.0,0.0,0.0,0.0,0.0,0.0,0.0,0.0,0.0,0.0,0.0,0.0,0.0,0.0,0.0,0.0,0.0,0.0,0.0,0.0,0.0,0.0,0.0,0.0,0.0,0.0,0.0,0.0,0.0,0.0,0.0,0.0,0.0,0.0,0.0,0.0,0.0,0.0,0.0,0.0,0.0,0.0,0.0,0.0,0.0,0.0,0.0,0.0,0.0,0.0,0.0,0.0,0.0,0.0,0.0,0.0,0.0,0.0,0.0,0.0,0.0,0.0,0.0,0.0,0.0,0.0,0.0,0.0,0.0,0.0,0.0,0.0,0.0,0.0,0.0,0.0,0.0,0.0,0.0,0.0,0.0,0.0,0.0,0.0,0.0,0.0,0.0,0.0,0.0,0.0,0.0,0.0,0.0,0.0,0.0,0.0,0.0,0.0,0.0,0.0,0.0,0.0,0.0,0.0,0.0,0.0,0.0,0.0,0.0,0.0,0.0,0.0,0.0,0.0,0.0,0.0,0.0,0.0,0.0,0.0,0.0,0.0,0.0,0.0,0.0,0.0,0.0,0.0,0.0,0.0,0.0,0.0,0.0,0.0,0.0,0.0,0.0,0.0,0.0,0.0,0.0,0.0,0.0,-3.6009,0.0,0.0,0.0,0.0,0.0,0.0,0.0,0.0,0.0,0.0,0.0,0.0,0.0,0.0,0.0,0.0,0.0,0.0,0.0,0.0,0.0,0.0,0.0,0.0,0.0,0.0,0.0,0.0,0.0,0.0,0.0,0.0,0.0,0.0,0.0,0.0,0.0,0.0,0.0,0.0,0.0,0.0,0.0,0.0,0.0,0.0,0.0,0.0,0.0,0.0,0.0,0.0,0.0,0.0,0.0,0.0,0.0,0.0,0.0,0.0,0.0,0.0,0.0,0.0,0.0,0.0,0.0,0.0,0.0,0.0,0.0,0.0,0.0,0.0,0.0,0.0,0.0,0.0,0.0,0.0,0.0,0.0,0.0,0.0,0.0,0.0,0.0,0.0,0.0,0.0,0.0,0.0,0.0,0.0,0.0,0.0,0.0,0.0,0.0,0.0,0.0,0.0,0.0,0.0,0.0,0.0,0.0,0.0,0.0,0.0,-3.6402,-3.6012,-3.6012,-3.6018,-3.6011,0.0,0.0,0.0,0.0,0.0,0.0,0.0,0.0,0.0,0.0,0.0,0.0,0.0,0.0,0.0,0.0,0.0,0.0,0.0,0.0,0.0,0.0,0.0,0.0,0.0,0.0,0.0,0.0,0.0,0.0,0.0,0.0,0.0,0.0,0.0,0.0,0.0,0.0,0.0,0.0,0.0,0.0,0.0,0.0,0.0,0.0,0.0,0.0,0.0,0.0,0.0,0.0,0.0,0.0,0.0,0.0,0.0,0.0,0.0,0.0,0.0,0.0,0.0,0.0,0.0,0.0,0.0,0.0,0.0,0.0,0.0,0.0,0.0,0.0,0.0,0.0,0.0,0.0,0.0,0.0,0.0,0.0,0.0,0.0,0.0,0.0,0.0,0.0,0.0,0.0,0.0,0.0,0.0,0.0,0.0,0.0,0.0,0.0,0.0,0.0,0.0,0.0,0.0,0.0,0.0,0.0,0.0,0.0,0.0,0.0,0.0,0.0,-3.6012,-3.6019,-3.6011,0.0,0.0,0.0,0.0,0.0,0.0,0.0,0.0,0.0,0.0,0.0,0.0,0.0,0.0,0.0,0.0,0.0,0.0,0.0,0.0,0.0,0.0,0.0,0.0,0.0,0.0,0.0,0.0,0.0,0.0,0.0,0.0,0.0,0.0,0.0,0.0,0.0,0.0,0.0,0.0,0.0,0.0,0.0,0.0,0.0,0.0,0.0,0.0,0.0,0.0,0.0,0.0,0.0,0.0,0.0,0.0,0.0,0.0,0.0,0.0,0.0,0.0,0.0,0.0,0.0,0.0,0.0,0.0,0.0,0.0,0.0,0.0,0.0,0.0,0.0,0.0,0.0,0.0,0.0,0.0,0.0,0.0,0.0,0.0,0.0,0.0,0.0,0.0,0.0,0.0,0.0,0.0,0.0,0.0,0.0,0.0,0.0,0.0,0.0,0.0,0.0,0.0,0.0,0.0,0.0,0.0,0.0,0.0,0.0,0.0,-3.6012,-3.6012,-3.6012,0.0,-3.6011,0.0,0.0,0.0,0.0,0.0,0.0,0.0,0.0,0.0,0.0,0.0,0.0,0.0,0.0,0.0,0.0,0.0,0.0,0.0,0.0,0.0,0.0,0.0,0.0,0.0,0.0,0.0,0.0,0.0,0.0,0.0,0.0,0.0,0.0,0.0,0.0,0.0,0.0,0.0,0.0,0.0,0.0,0.0,0.0,0.0,0.0,0.0,0.0,0.0,0.0,0.0,0.0,0.0,0.0,0.0,0.0,0.0,0.0,0.0,0.0,0.0,0.0,0.0,0.0,0.0,0.0,0.0,0.0,0.0,0.0,0.0,0.0,0.0,0.0,0.0,0.0,0.0,0.0,0.0,0.0,0.0,0.0,0.0,0.0,0.0,0.0,0.0,0.0,0.0,0.0,0.0,0.0,0.0,0.0,0.0,0.0,0.0,0.0,0.0,0.0,0.0,0.0,0.0,0.0,0.0,0.0,0.0,0.0,0.0,0.0,-3.6012,-3.6012,-3.6021,-3.6007,0.0,0.0,0.0,0.0,0.0,0.0,0.0,0.0,0.0,0.0,0.0,0.0,0.0,0.0,0.0,0.0,0.0,0.0,0.0,0.0,0.0,0.0,0.0,0.0,0.0,0.0,0.0,0.0,0.0,0.0,0.0,0.0,0.0,0.0,0.0,0.0,0.0,0.0,0.0,0.0,0.0,0.0,0.0,0.0,0.0,0.0,0.0,0.0,0.0,0.0,0.0,0.0,0.0,0.0,0.0,0.0,0.0,0.0,0.0,0.0,0.0,0.0,0.0,0.0,0.0,0.0,0.0,0.0,0.0,0.0,0.0,0.0,0.0,0.0,0.0,0.0,0.0,0.0,0.0,0.0,0.0,0.0,0.0,0.0,0.0,0.0,0.0,0.0,0.0,0.0,0.0,0.0,0.0,0.0,0.0,0.0,0.0,0.0,0.0,0.0,0.0,0.0,0.0,0.0,0.0,0.0,0.0,0.0,0.0,0.0,-3.6324,-3.6012,-3.6012,-3.6006,-3.601,-3.601,0.0,0.0,0.0,0.0,0.0,0.0,0.0,0.0,0.0,0.0,0.0,0.0,0.0,0.0,0.0,0.0,0.0,0.0,0.0,0.0,0.0,0.0,0.0,0.0,0.0,0.0,0.0,0.0,0.0,0.0,0.0,0.0,0.0,0.0,0.0,0.0,0.0,0.0,0.0,0.0,0.0,0.0,0.0,0.0,0.0,0.0,0.0,0.0,0.0,0.0,0.0,0.0,0.0,0.0,0.0,0.0,0.0,0.0,0.0,0.0,0.0,0.0,0.0,0.0,0.0,0.0,0.0,0.0,0.0,0.0,0.0,0.0,0.0,0.0,0.0,0.0,0.0,0.0,0.0,0.0,0.0,0.0,0.0,0.0,0.0,0.0,0.0,0.0,0.0,0.0,0.0,0.0,0.0,0.0,0.0,0.0,0.0,0.0,0.0,0.0,0.0,0.0,0.0,0.0,0.0,0.0,0.0,0.0,-3.6109,-3.6031,-3.6012,-3.6012,-3.6006,-3.601,0.0,0.0,0.0,0.0,0.0,0.0,0.0,0.0,0.0,0.0,0.0,0.0,0.0,0.0,0.0,0.0,0.0,0.0,0.0,0.0,0.0,0.0,0.0,0.0,0.0,0.0,0.0,0.0,0.0,0.0,0.0,0.0,0.0,0.0,0.0,0.0,0.0,0.0,0.0,0.0,0.0,0.0,0.0,0.0,0.0,0.0,0.0,0.0,0.0,0.0,0.0,0.0,0.0,0.0,0.0,0.0,0.0,0.0,0.0,0.0,0.0,0.0,0.0,0.0,0.0,0.0,0.0,0.0,0.0,0.0,0.0,0.0,0.0,0.0,0.0,0.0,0.0,0.0,0.0,0.0,0.0,0.0,0.0,0.0,0.0,0.0,0.0,0.0,0.0,0.0,0.0,0.0,0.0,0.0,0.0,0.0,0.0,0.0,0.0,0.0,0.0,0.0,0.0,0.0,0.0,0.0,0.0,0.0,0.0,-3.6031,-3.6012,-3.6012,-3.6012,-3.6003,-3.6008,0.0,0.0,0.0,0.0,0.0,0.0,0.0,0.0,0.0,0.0,0.0,0.0,0.0,0.0,0.0,0.0,0.0,0.0,0.0,0.0,0.0,0.0,0.0,0.0,0.0,0.0,0.0,0.0,0.0,0.0,0.0,0.0,0.0,0.0,0.0,0.0,0.0,0.0,0.0,0.0,0.0,0.0,0.0,0.0,0.0,0.0,0.0,0.0,0.0,0.0,0.0,0.0,0.0,0.0,0.0,0.0,0.0,0.0,0.0,0.0,0.0,0.0,0.0,0.0,0.0,0.0,0.0,0.0,0.0,0.0,0.0,0.0,0.0,0.0,0.0,0.0,0.0,0.0,0.0,0.0,0.0,0.0,0.0,0.0,0.0,0.0,0.0,0.0,0.0,0.0,0.0,0.0,0.0,0.0,0.0,0.0,0.0,0.0,0.0,0.0,0.0,0.0,0.0,0.0,0.0,0.0,0.0,0.0,0.0,-3.6012,0.0,-3.6012,-3.6012,-3.6019,-3.6006,0.0,0.0,0.0,0.0,0.0,0.0,0.0,0.0,0.0,0.0,0.0,0.0,0.0,0.0,0.0,0.0,0.0,0.0,0.0,0.0,0.0,0.0,0.0,0.0,0.0,0.0,0.0,0.0,0.0,0.0,0.0,0.0,0.0,0.0,0.0,0.0,0.0,0.0,0.0,0.0,0.0,0.0,0.0,0.0,0.0,0.0,0.0,0.0,0.0,0.0,0.0,0.0,0.0,0.0,0.0,0.0,0.0,0.0,0.0,0.0,0.0,0.0,0.0,0.0,0.0,0.0,0.0,0.0,0.0,0.0,0.0,0.0,0.0,0.0,0.0,0.0,0.0,0.0,0.0,0.0,0.0,0.0,0.0,0.0,0.0,0.0,0.0,0.0,0.0,0.0,0.0,0.0,0.0,0.0,0.0,0.0,0.0,0.0,0.0,0.0,0.0,0.0,0.0,0.0,0.0,0.0,0.0,0.0,-3.6045,-3.6031,-3.6051,-3.6109,-3.6031,-3.6058,-3.6026,0.0,0.0,0.0,0.0,0.0,0.0,0.0,0.0,0.0,0.0,0.0,0.0,0.0,0.0,0.0,0.0,0.0,0.0,0.0,0.0,0.0,0.0,0.0,0.0,0.0,0.0,0.0,0.0,0.0,0.0,0.0,0.0,0.0,0.0,0.0,0.0,0.0,0.0,0.0,0.0,0.0,0.0,0.0,0.0,0.0,0.0,0.0,0.0,0.0,0.0,0.0,0.0,0.0,0.0,0.0,0.0,0.0,0.0,0.0,0.0,0.0,0.0,0.0,0.0,0.0,0.0,0.0,0.0,0.0,0.0,0.0,0.0,0.0,0.0,0.0,0.0,0.0,0.0,0.0,0.0,0.0,0.0,0.0,0.0,0.0,0.0,0.0,0.0,0.0,0.0,0.0,0.0,0.0,0.0,0.0,0.0,0.0,0.0,0.0,0.0,0.0,0.0,0.0,0.0,0.0,0.0,0.0,0.0,0.0,-3.6911,-3.7477,-3.7516,-3.6931,-3.6894,-3.6627,0.0,0.0,0.0,0.0,0.0,0.0,0.0,0.0,0.0,0.0,0.0,0.0,0.0,0.0,0.0,0.0,0.0,0.0,0.0,0.0,0.0,0.0,0.0,0.0,0.0,0.0,0.0,0.0,0.0,0.0,0.0,0.0,0.0,0.0,0.0,0.0,0.0,0.0,0.0,0.0,0.0,0.0,0.0,0.0,0.0,0.0,0.0,0.0,0.0,0.0,0.0,0.0,0.0,0.0,0.0,0.0,0.0,0.0,0.0,0.0,0.0,0.0,0.0,0.0,0.0,0.0,0.0,0.0,0.0,0.0,0.0,0.0,0.0,0.0,0.0,0.0,0.0,0.0,0.0,0.0,0.0,0.0,0.0,0.0,0.0,0.0,0.0,0.0,0.0,0.0,0.0,0.0,0.0,0.0,0.0,0.0,0.0,0.0,0.0,0.0,0.0,0.0,0.0,0.0,0.0,0.0,0.0,0.0,0.0,-3.8266,-3.8477,-3.8357,-3.7789,-3.7458,-3.7054,-3.6517,0.0,0.0,0.0,0.0,0.0,0.0,0.0,0.0,0.0,0.0,0.0,0.0,0.0,0.0,0.0,0.0,0.0,0.0,0.0,0.0,0.0,0.0,0.0,0.0,0.0,0.0,0.0,0.0,0.0,0.0,0.0,0.0,0.0,0.0,0.0,0.0,0.0,0.0,0.0,0.0,0.0,0.0,0.0,0.0,0.0,0.0,0.0,0.0,0.0,0.0,0.0,0.0,0.0,0.0,0.0,0.0,0.0,0.0,0.0,0.0,0.0,0.0,0.0,0.0,0.0,0.0,0.0,0.0,0.0,0.0,0.0,0.0,0.0,0.0,0.0,0.0,0.0,0.0,0.0,0.0,0.0,0.0,0.0,0.0,0.0,0.0,0.0,0.0,0.0,0.0,0.0,0.0,0.0,0.0,0.0,0.0,0.0,0.0,0.0,0.0,0.0,0.0,0.0,0.0,0.0,0.0,0.0,0.0,-3.9877,-3.9106,-3.869,-3.8671,-3.7908,-3.7406,0.0,0.0,0.0,0.0,0.0,0.0,0.0,0.0,0.0,0.0,0.0,0.0,0.0,0.0,0.0,0.0,0.0,0.0,0.0,0.0,0.0,0.0,0.0,0.0,0.0,0.0,0.0,0.0,0.0,0.0,0.0,0.0,0.0,0.0,0.0,0.0,0.0,0.0,0.0,0.0,0.0,0.0,0.0,0.0,0.0,0.0,0.0,0.0,0.0,0.0,0.0,0.0,0.0,0.0,0.0,0.0,0.0,0.0,0.0,0.0,0.0,0.0,0.0,0.0,0.0,0.0,0.0,0.0,0.0,0.0,0.0,0.0,0.0,0.0,0.0,0.0,0.0,0.0,0.0,0.0,0.0,0.0,0.0,0.0,0.0,0.0,0.0,0.0,0.0,0.0,0.0,0.0,0.0,0.0,0.0,0.0,0.0,0.0,0.0,0.0,0.0,0.0,0.0,0.0,0.0,0.0,0.0,0.0,0.0,-3.9838,-3.9679,-3.9561,-3.9561,-3.9343,-3.8622,0.0,0.0,0.0,0.0,0.0,0.0,0.0,0.0,0.0,0.0,0.0,0.0,0.0,0.0,0.0,0.0,0.0,0.0,0.0,0.0,0.0,0.0,0.0,0.0,0.0,0.0,0.0,0.0,0.0,0.0,0.0,0.0,0.0,0.0,0.0,0.0,0.0,0.0,0.0,0.0,0.0,0.0,0.0,0.0,0.0,0.0,0.0,0.0,0.0,0.0,0.0,0.0,0.0,0.0,0.0,0.0,0.0,0.0,0.0,0.0,0.0,0.0,0.0,0.0,0.0,0.0,0.0,0.0,0.0,0.0,0.0,0.0,0.0,0.0,0.0,0.0,0.0,0.0,0.0,0.0,0.0,0.0,0.0,0.0,0.0,0.0,0.0,0.0,0.0,0.0,0.0,0.0,0.0,0.0,0.0,0.0,0.0,0.0,0.0,0.0,0.0,0.0,0.0,0.0,0.0,0.0,0.0,0.0,-3.9199,-4.0351,-3.9705,-3.9509,-3.9881,-3.9543,-3.8876,0.0,0.0,0.0,0.0,0.0,0.0,0.0,0.0,0.0,0.0,0.0,0.0,0.0,0.0,0.0,0.0,0.0,0.0,0.0,0.0,0.0,0.0,0.0,0.0,0.0,0.0,0.0,0.0,0.0,0.0,0.0,0.0,0.0,0.0,0.0,0.0,0.0,0.0,0.0,0.0,0.0,0.0,0.0,0.0,0.0,0.0,0.0,0.0,0.0,0.0,0.0,0.0,0.0,0.0,0.0,0.0,0.0,0.0,0.0,0.0,0.0,0.0,0.0,0.0,0.0,0.0,0.0,0.0,0.0,0.0,0.0,0.0,0.0,0.0,0.0,0.0,0.0,0.0,0.0,0.0,0.0,0.0,0.0,0.0,0.0,0.0,0.0,0.0,0.0,0.0,0.0,0.0,0.0,0.0,0.0,0.0,0.0,0.0,0.0,0.0,0.0,0.0,0.0,0.0,0.0,0.0,0.0,0.0,-3.9353,-4.0916,-3.9433,-3.8984,-3.9707,-3.9096,-3.8642,0.0,0.0,0.0,0.0,0.0,0.0,0.0,0.0,0.0,0.0,0.0,0.0,0.0,0.0,0.0,0.0,0.0,0.0,0.0,0.0,0.0,0.0,0.0,0.0,0.0,0.0,0.0,0.0,0.0,0.0,0.0,0.0,0.0,0.0,0.0,0.0,0.0,0.0,0.0,0.0,0.0,0.0,0.0,0.0,0.0,0.0,0.0,0.0,0.0,0.0,0.0,0.0,0.0,0.0,0.0,0.0,0.0,0.0,0.0,0.0,0.0,0.0,0.0,0.0,0.0,0.0,0.0,0.0,0.0,0.0,0.0,0.0,0.0,0.0,0.0,0.0,0.0,0.0,0.0,0.0,0.0,0.0,0.0,0.0,0.0,0.0,0.0,0.0,0.0,0.0,0.0,0.0,0.0,0.0,0.0,0.0,0.0,0.0,0.0,0.0,0.0,0.0,0.0,0.0,0.0,0.0,0.0,0.0,-3.9117,-4.0115,-3.912,-3.8691,-3.8887,-3.9352,-3.8978,0.0,0.0,0.0,0.0,0.0,0.0,0.0,0.0,0.0,0.0,0.0,0.0,0.0,0.0,0.0,0.0,0.0,0.0,0.0,0.0,0.0,0.0,0.0,0.0,0.0,0.0,0.0,0.0,0.0,0.0,0.0,0.0,0.0,0.0,0.0,0.0,0.0,0.0,0.0,0.0,0.0,0.0,0.0,0.0,0.0,0.0,0.0,0.0,-2.623,0.0,0.0,0.0,0.0,0.0,0.0,0.0,0.0,0.0,0.0,0.0,0.0,0.0,0.0,0.0,0.0,0.0,0.0,0.0,0.0,0.0,0.0,0.0,0.0,0.0,0.0,0.0,0.0,0.0,0.0,0.0,0.0,0.0,0.0,0.0,0.0,0.0,0.0,0.0,0.0,0.0,0.0,0.0,0.0,0.0,0.0,0.0,0.0,0.0,0.0,0.0,0.0,0.0,0.0,0.0,0.0,0.0,0.0,0.0,-3.9621,-4.0407,-3.9236,-3.8808,-3.9199,-3.9647,-3.9274,0.0,0.0,0.0,0.0,0.0,0.0,0.0,0.0,0.0,0.0,0.0,0.0,0.0,0.0,0.0,0.0,0.0,0.0,0.0,0.0,0.0,0.0,0.0,0.0,0.0,0.0,0.0,0.0,0.0,0.0,0.0,0.0,0.0,0.0,0.0,0.0,0.0,0.0,0.0,0.0,0.0,0.0,0.0,0.0,0.0,0.0,0.0,0.0,0.0,0.0,0.0,0.0,0.0,0.0,0.0,0.0,0.0,0.0,0.0,0.0,0.0,0.0,0.0,0.0,0.0,0.0,0.0,0.0,0.0,0.0,0.0,0.0,0.0,0.0,0.0,0.0,0.0,0.0,0.0,0.0,0.0,0.0,0.0,0.0,0.0,0.0,0.0,0.0,0.0,0.0,0.0,0.0,0.0,0.0,0.0,0.0,0.0,0.0,0.0,0.0,0.0,0.0,0.0,0.0,0.0,0.0,0.0,-3.8574,-4.0339,-4.1185,-3.9664,-3.9218,-4.0059,-4.0097,-3.9706,-3.8847,0.0,0.0,0.0,0.0,0.0,0.0,0.0,0.0,0.0,0.0,0.0,0.0,0.0,0.0,0.0,0.0,0.0,0.0,0.0,0.0,0.0,0.0,0.0,0.0,0.0,0.0,0.0,0.0,0.0,0.0,0.0,0.0,0.0,0.0,0.0,0.0,0.0,0.0,-2.6816,-2.6269,0.0,0.0,0.0,0.0,0.0,0.0,0.0,0.0,-2.638,0.0,0.0,0.0,0.0,0.0,0.0,0.0,0.0,0.0,0.0,0.0,0.0,0.0,0.0,0.0,0.0,0.0,0.0,0.0,0.0,0.0,0.0,0.0,0.0,0.0,0.0,0.0,0.0,0.0,0.0,0.0,0.0,0.0,0.0,0.0,0.0,0.0,0.0,0.0,0.0,0.0,0.0,0.0,0.0,0.0,0.0,0.0,0.0,0.0,0.0,0.0,0.0,0.0,0.0,0.0,0.0,-3.6031,-3.8531,-4.0589,-4.2103,-4.0541,-4.0115,-4.0957,-4.0976,-4.0586,-3.9726,0.0,0.0,0.0,0.0,0.0,0.0,0.0,0.0,0.0,0.0,0.0,0.0,0.0,0.0,0.0,0.0,0.0,0.0,0.0,0.0,0.0,0.0,0.0,0.0,0.0,0.0,0.0,0.0,0.0,0.0,0.0,0.0,0.0,0.0,0.0,0.0,0.0,0.0,0.0,-2.6425,-2.705,0.0,0.0,0.0,0.0,0.0,0.0,0.0,0.0,-2.8951,0.0,0.0,0.0,0.0,0.0,0.0,0.0,0.0,0.0,0.0,0.0,0.0,0.0,0.0,0.0,0.0,0.0,0.0,0.0,0.0,0.0,0.0,0.0,0.0,0.0,0.0,0.0,0.0,0.0,0.0,0.0,0.0,0.0,0.0,0.0,0.0,0.0,0.0,0.0,0.0,0.0,0.0,0.0,0.0,0.0,0.0,0.0,0.0,0.0,0.0,0.0,0.0,0.0,0.0,0.0,-3.7438,-3.9409,-4.1094,-4.2314,-4.1165,-4.0934,-4.1777,-4.1406,-4.0781,0.0,0.0,0.0,0.0,0.0,0.0,0.0,0.0,0.0,0.0,0.0,0.0,0.0,0.0,0.0,0.0,0.0,0.0,0.0,0.0,0.0,0.0,0.0,0.0,0.0,0.0,0.0,0.0,0.0,0.0,0.0,0.0,0.0,0.0,0.0,0.0,0.0,0.0,0.0,0.0,-2.8767,-2.9177,-2.9588,0.0,0.0,0.0,0.0,0.0,0.0,-3.0498,-3.0079,0.0,0.0,0.0,0.0,0.0,0.0,0.0,0.0,0.0,0.0,0.0,0.0,0.0,0.0,0.0,0.0,0.0,0.0,0.0,0.0,0.0,0.0,0.0,0.0,0.0,0.0,0.0,0.0,0.0,0.0,0.0,0.0,0.0,0.0,0.0,0.0,0.0,0.0,0.0,0.0,0.0,0.0,0.0,0.0,0.0,0.0,0.0,0.0,0.0,0.0,0.0,0.0,0.0,0.0,0.0,-3.863,-4.025,-4.16,-4.2563,-4.1633,-4.1597,-4.2596,-4.1718,-4.0879,0.0,0.0,0.0,0.0,0.0,0.0,0.0,0.0,0.0,0.0,0.0,0.0,0.0,0.0,0.0,0.0,0.0,0.0,0.0,0.0,0.0,0.0,0.0,0.0,0.0,0.0,0.0,0.0,0.0,0.0,0.0,0.0,0.0,0.0,0.0,0.0,0.0,0.0,0.0,0.0,0.0,-3.1204,-3.1381,-3.1559,0.0,0.0,0.0,0.0,-3.1928,-3.1745,0.0,0.0,0.0,0.0,0.0,0.0,0.0,0.0,0.0,0.0,0.0,0.0,0.0,0.0,0.0,0.0,0.0,0.0,0.0,0.0,0.0,0.0,0.0,0.0,0.0,0.0,0.0,0.0,0.0,0.0,0.0,0.0,0.0,0.0,0.0,0.0,0.0,0.0,0.0,0.0,0.0,0.0,0.0,0.0,0.0,0.0,0.0,0.0,0.0,0.0,0.0,0.0,0.0,0.0,0.0,0.0,-3.865,-4.025,-4.1893,-4.3365,-4.1944,-4.189,-4.3474,-4.2031,-4.1152,0.0,0.0,0.0,0.0,0.0,0.0,0.0,0.0,0.0,0.0,0.0,0.0,0.0,0.0,0.0,0.0,0.0,0.0,0.0,0.0,0.0,0.0,0.0,0.0,0.0,0.0,0.0,0.0,0.0,0.0,0.0,0.0,0.0,0.0,0.0,0.0,0.0,0.0,0.0,0.0,0.0,-3.2255,-3.3002,-3.3764,-3.4527,0.0,0.0,-3.54,-3.5419,-3.477,0.0,0.0,0.0,0.0,0.0,0.0,0.0,0.0,0.0,0.0,0.0,0.0,0.0,0.0,0.0,0.0,0.0,0.0,0.0,0.0,0.0,0.0,0.0,0.0,0.0,0.0,0.0,0.0,0.0,0.0,0.0,0.0,0.0,0.0,0.0,0.0,0.0,0.0,0.0,0.0,0.0,0.0,0.0,0.0,0.0,0.0,0.0,0.0,0.0,0.0,0.0,0.0,0.0,0.0,0.0,-3.9029,-3.9999,-4.0727,-4.1961,-4.3565,-4.198,-4.1928,-4.3648,-4.207,-4.0976,0.0,0.0,0.0,0.0,0.0,0.0,0.0,0.0,0.0,0.0,0.0,0.0,0.0,0.0,0.0,0.0,0.0,0.0,0.0,0.0,0.0,0.0,0.0,0.0,0.0,0.0,0.0,0.0,0.0,0.0,0.0,0.0,0.0,0.0,0.0,0.0,0.0,0.0,0.0,0.0,0.0,0.0,-3.4824,-3.5609,0.0,0.0,0.0,-3.6745,-3.6745,0.0,0.0,0.0,0.0,0.0,0.0,0.0,0.0,0.0,0.0,0.0,0.0,0.0,0.0,0.0,0.0,0.0,0.0,0.0,0.0,0.0,0.0,0.0,0.0,0.0,0.0,0.0,0.0,0.0,0.0,0.0,0.0,0.0,0.0,0.0,0.0,0.0,0.0,0.0,0.0,0.0,0.0,0.0,0.0,0.0,0.0,0.0,0.0,0.0,0.0,0.0,0.0,0.0,0.0,0.0,0.0,0.0,-4.1054,-4.1322,-4.2147,-4.3593,-4.2427,-4.2376,-4.3607,-4.2265,0.0,0.0,0.0,0.0,0.0,0.0,0.0,0.0,0.0,0.0,0.0,0.0,0.0,0.0,0.0,0.0,0.0,0.0,0.0,0.0,0.0,0.0,0.0,0.0,0.0,0.0,0.0,-3.0786,0.0,0.0,0.0,0.0,0.0,0.0,0.0,0.0,0.0,0.0,0.0,0.0,0.0,0.0,-3.6378,-3.6598,-3.7173,-3.759,0.0,0.0,-3.7541,-3.7327,-3.6758,-3.6012,0.0,0.0,0.0,0.0,0.0,0.0,0.0,0.0,0.0,0.0,0.0,0.0,0.0,0.0,0.0,0.0,0.0,0.0,0.0,0.0,0.0,0.0,0.0,0.0,0.0,0.0,0.0,0.0,0.0,0.0,0.0,0.0,0.0,0.0,0.0,0.0,0.0,0.0,0.0,0.0,0.0,0.0,0.0,0.0,0.0,0.0,0.0,0.0,0.0,0.0,0.0,0.0,0.0,0.0,-4.016,-4.1093,-4.1909,-4.2754,-4.3671,-4.3577,-4.3586,-4.3684,-4.2811,-4.1933,0.0,0.0,0.0,0.0,0.0,0.0,0.0,0.0,0.0,0.0,0.0,0.0,0.0,0.0,0.0,0.0,0.0,0.0,0.0,0.0,0.0,0.0,0.0,0.0,0.0,0.0,0.0,0.0,0.0,0.0,0.0,0.0,0.0,0.0,0.0,0.0,0.0,0.0,0.0,0.0,0.0,-3.7427,-3.8207,-3.8383,-3.8426,0.0,-3.8422,-3.817,-3.7419,-3.7262,-3.6931,-3.6051,0.0,0.0,0.0,0.0,0.0,0.0,0.0,0.0,0.0,0.0,0.0,0.0,0.0,0.0,0.0,0.0,0.0,0.0,0.0,0.0,0.0,0.0,0.0,0.0,0.0,0.0,0.0,0.0,0.0,0.0,0.0,0.0,0.0,0.0,0.0,0.0,0.0,0.0,0.0,0.0,0.0,0.0,0.0,0.0,0.0,0.0,0.0,0.0,0.0,0.0,0.0,0.0,0.0,-4.0237,-4.1089,-4.1952,-4.2802,-4.3663,-4.3693,-4.3703,-4.3703,-4.287,-4.2031,0.0,0.0,0.0,0.0,0.0,0.0,0.0,0.0,0.0,0.0,0.0,0.0,0.0,0.0,0.0,0.0,0.0,0.0,0.0,0.0,0.0,0.0,0.0,0.0,0.0,0.0,0.0,0.0,-3.2409,-3.2715,-3.3553,0.0,0.0,0.0,0.0,0.0,0.0,0.0,0.0,0.0,0.0,-3.8129,-3.8466,-3.8956,0.0,0.0,-3.9286,-3.9213,-3.889,-3.7975,-3.7177,-3.6851,-3.607,0.0,0.0,0.0,0.0,0.0,0.0,0.0,0.0,0.0,0.0,0.0,0.0,0.0,0.0,0.0,0.0,0.0,0.0,0.0,0.0,0.0,0.0,0.0,0.0,0.0,0.0,0.0,0.0,0.0,0.0,0.0,0.0,0.0,0.0,0.0,0.0,0.0,0.0,0.0,0.0,0.0,0.0,0.0,0.0,0.0,0.0,0.0,0.0,0.0,0.0,0.0,0.0,-4.061,-4.1458,-4.2351,-4.3185,-4.4046,-4.4335,-4.4366,-4.4075,-4.324,-4.2402,0.0,0.0,0.0,0.0,0.0,0.0,0.0,0.0,0.0,0.0,0.0,0.0,0.0,0.0,0.0,0.0,0.0,0.0,0.0,0.0,0.0,0.0,0.0,0.0,0.0,0.0,0.0,0.0,-3.3595,-3.3982,-3.4547,0.0,0.0,0.0,0.0,0.0,0.0,0.0,0.0,0.0,0.0,-3.899,-3.9232,-3.98,-4.0198,-4.0189,-4.0192,-4.0101,-3.9841,-3.8807,-3.7973,-3.7729,0.0,0.0,0.0,0.0,0.0,0.0,0.0,0.0,0.0,0.0,0.0,0.0,0.0,0.0,0.0,0.0,0.0,0.0,0.0,0.0,0.0,0.0,0.0,0.0,0.0,0.0,0.0,0.0,0.0,0.0,-4.1127,0.0,0.0,0.0,0.0,0.0,0.0,0.0,0.0,0.0,0.0,0.0,0.0,0.0,0.0,0.0,0.0,0.0,0.0,0.0,0.0,0.0,0.0,-4.1461,-4.2257,-4.3189,-4.4046,-4.4846,-4.5753,-4.5789,-4.4973,-4.4137,-4.3261,-4.2383,0.0,0.0,0.0,0.0,0.0,0.0,0.0,0.0,0.0,0.0,0.0,0.0,0.0,0.0,0.0,0.0,0.0,0.0,0.0,0.0,0.0,0.0,0.0,0.0,0.0,0.0,-3.3458,-3.4118,-3.4603,0.0,0.0,0.0,0.0,0.0,0.0,0.0,0.0,0.0,0.0,-3.9763,-4.0097,-4.0877,-4.1052,-4.1039,-4.1037,-4.1059,-4.0774,-3.9936,-3.9763,-3.9476,0.0,0.0,0.0,0.0,0.0,0.0,0.0,0.0,0.0,0.0,0.0,0.0,0.0,0.0,0.0,0.0,0.0,0.0,0.0,0.0,0.0,0.0,0.0,0.0,0.0,0.0,0.0,-4.3172,-4.3133,0.0,0.0,0.0,0.0,0.0,0.0,0.0,0.0,0.0,0.0,0.0,-4.2763,-4.2763,0.0,0.0,0.0,0.0,0.0,0.0,0.0,0.0,0.0,0.0,0.0,0.0,-4.2023,-4.2357,-4.3766,-4.464,-4.4921,-4.5826,-4.5881,-4.5013,-4.4723,-4.3886,-4.2441,0.0,0.0,0.0,0.0,0.0,0.0,0.0,0.0,0.0,0.0,0.0,0.0,0.0,0.0,0.0,0.0,0.0,0.0,0.0,0.0,0.0,0.0,0.0,0.0,0.0,-3.5066,0.0,0.0,0.0,0.0,0.0,0.0,0.0,0.0,0.0,0.0,0.0,-3.9474,-3.9763,-4.0292,-4.076,-4.1068,-4.1107,-4.111,0.0,0.0,0.0,0.0,0.0,0.0,0.0,0.0,0.0,0.0,0.0,0.0,0.0,0.0,-3.6501,-3.5348,-3.5114,-3.5117,-3.5124,0.0,0.0,0.0,0.0,0.0,0.0,0.0,0.0,0.0,0.0,0.0,0.0,0.0,0.0,-4.404,0.0,-4.3737,0.0,0.0,0.0,0.0,0.0,0.0,0.0,0.0,-4.3328,-4.362,-4.362,-4.362,-4.362,0.0,-4.362,-4.3056,0.0,0.0,0.0,0.0,0.0,0.0,0.0,0.0,-4.2588,-4.3215,-4.4325,-4.5045,-4.537,-4.5974,-4.6012,-4.5462,-4.5154,-4.4179,-4.2461,-4.1367,-4.0508,0.0,0.0,0.0,0.0,0.0,0.0,0.0,0.0,0.0,0.0,0.0,0.0,0.0,0.0,0.0,0.0,0.0,0.0,0.0,0.0,0.0,0.0,0.0,-3.6815,0.0,0.0,0.0,0.0,0.0,0.0,0.0,0.0,0.0,-3.8984,-3.9676,-4.0224,-4.0224,-4.0737,-4.1107,-4.1107,0.0,0.0,0.0,0.0,0.0,0.0,0.0,-4.0252,-4.0244,-3.9825,-3.9362,-3.9073,-3.8783,-3.8611,-3.8611,0.0,0.0,-3.7126,-3.691,-3.6912,-3.6898,-3.6903,-3.6908,-3.6911,-3.6914,-3.6894,0.0,0.0,0.0,0.0,0.0,0.0,0.0,0.0,-4.5757,-4.5085,0.0,-4.4189,0.0,0.0,0.0,0.0,0.0,-4.362,0.0,0.0,-4.3718,-4.3679,-4.3718,-4.3737,-4.3698,-4.3679,-4.3737,-4.3698,-4.364,-4.2822,0.0,0.0,0.0,0.0,0.0,0.0,-4.3215,-4.4796,-4.4929,-4.5354,-4.6147,-4.626,-4.63,-4.6262,-4.5448,-4.4219,-4.2598,-4.2461,-4.1679,-4.0077,-3.9999,0.0,0.0,0.0,0.0,0.0,0.0,0.0,0.0,0.0,0.0,0.0,0.0,0.0,0.0,0.0,0.0,0.0,0.0,0.0,0.0,-3.8508,0.0,0.0,0.0,0.0,0.0,0.0,0.0,0.0,0.0,0.0,-3.9902,-4.0544,-4.1064,-4.1087,0.0,0.0,0.0,0.0,-4.1208,-4.1224,-4.1185,-4.1192,-4.1209,-4.1192,-4.1178,-4.1189,0.0,0.0,-4.0095,-3.9286,-3.8806,-3.8747,-3.8806,-3.8689,-3.8708,-3.8552,-3.8513,-3.8533,-3.8479,-3.8583,-3.8586,-3.8415,-3.8456,-5.1668,0.0,0.0,0.0,0.0,-4.8539,-4.843,-4.8399,-4.7891,-4.7662,-4.7639,-4.6768,0.0,0.0,0.0,0.0,0.0,0.0,-4.452,-4.4559,-4.5163,-4.5455,-4.5455,-4.5455,-4.5475,-4.5455,-4.5455,-4.5455,-4.5416,-4.4579,-4.3838,-4.3231,0.0,0.0,0.0,0.0,-4.4403,-4.4894,-4.5521,-4.5946,-4.6206,-4.6231,-4.6273,-4.6301,-4.5468,-4.4766,-4.4258,-4.3652,-4.2812,-4.1738,-4.1679,0.0,0.0,0.0,0.0,0.0,0.0,0.0,0.0,0.0,0.0,0.0,0.0,0.0,0.0,0.0,0.0,0.0,0.0,0.0,-3.8486,-3.8522,-3.8516,0.0,0.0,0.0,0.0,0.0,0.0,0.0,0.0,0.0,-4.2325,-4.2108,-4.2159,0.0,0.0,-4.2886,-4.288,-4.288,-4.288,-4.288,-4.288,0.0,-4.2887,-4.288,-4.2869,-4.2872,-4.2922,-4.2873,-4.2633,-4.1876,-4.1314,-4.1301,-4.0797,-4.0387,-4.0309,-3.9372,-3.8689,-3.8611,-3.8596,-3.8601,-3.8602,-3.8608,-3.8631,-5.3378,-5.1579,-5.0756,-5.0401,-5.0338,-4.9627,-4.9327,-4.9296,-4.8945,-4.8808,-4.8776,-4.824,-4.7703,-4.7212,-4.6667,0.0,0.0,0.0,-4.6449,-4.6468,-4.6975,-4.7228,-4.7232,-4.7251,-4.7228,-4.7248,-4.7232,-4.7228,-4.7212,-4.6352,-4.565,-4.5101,0.0,0.0,-4.4127,-4.4637,-4.5069,-4.542,-4.5926,-4.6196,-4.6206,-4.6228,-4.6266,-4.6282,-4.578,-4.5351,-4.5,-4.4512,-4.3808,-4.2969,-4.2578,-4.1952,0.0,0.0,0.0,0.0,0.0,0.0,0.0,0.0,0.0,0.0,0.0,-3.6854,-3.7704,0.0,0.0,0.0,-3.9602,-3.9872,-3.9571,-3.9818,0.0,0.0,0.0,0.0,0.0,0.0,0.0,-4.2597,-4.2724,-4.3044,-4.3879,-4.3602,-4.3365,-4.3576,-4.3615,-4.3607,-4.362,0.0,-4.362,-4.362,-4.362,-4.362,-4.362,-4.3611,-4.3617,-4.3617,-4.3652,-4.3663,-4.3651,-4.3234,-4.293,-4.2857,-4.2492,-4.2007,-4.1674,-4.0776,-3.9976,-3.9665,-3.9589,-3.9593,-3.9575,-3.9601,-3.9584,-5.4922,-5.4141,-5.3278,-5.2864,-5.2649,-5.1081,-5.0391,-5.0245,-4.9473,-4.9081,-4.9013,-4.8912,-4.8863,-4.8806,-4.8806,0.0,-4.8806,-4.8806,-4.8768,-4.8806,-4.8806,-4.8806,-4.8806,-4.8787,-4.8806,-4.8787,-4.8806,-4.8806,-4.8729,-4.7992,-4.7602,-4.754,-4.5199,-4.4345,-4.4972,-4.5011,-4.54,-4.6176,-4.6199,-4.6216,-4.6209,-4.6269,-4.6301,-4.6301,-4.6288,-4.5937,-4.5137,-4.5098,-4.4707,-4.3828,-4.3047,-4.2578,-4.248,0.0,0.0,0.0,0.0,0.0,0.0,0.0,0.0,0.0,0.0,0.0,0.0,0.0,0.0,0.0,-4.1458,0.0,-4.1361,-4.1971,0.0,0.0,0.0,-4.2676,-4.3432,-4.3486,-4.3535,-4.3588,0.0,0.0,-4.4792,-4.4895,-4.4612,-4.3895,-4.381,-4.3812,-4.3796,-4.3854,-4.3796,-4.3913,-4.3835,-4.3835,-4.3991,-4.3952,-4.3975,-4.3975,-4.3809,-4.3899,-4.3902,-4.3807,-4.3823,-4.3806,-4.3738,-4.345,-4.265,-4.2435,-4.2259,-4.1441,-4.1148,-4.1052,-4.098,-4.0962,-4.0984,-5.6172,-5.5898,-5.5039,-5.4296,-5.365,-5.3258,-5.2687,-5.207,-5.1845,-5.1403,-5.0742,-5.0075,-4.9429,-4.8806,-4.8806,-4.8806,-4.8806,-4.8806,-4.8806,-4.8806,-4.8806,-4.8806,-4.8806,-4.8806,-4.8806,-4.8806,-4.8806,-4.8806,-4.8787,-4.8592,-4.8495,-4.8456,-4.7871,-4.6995,-4.5926,-4.5887,-4.5985,-4.6199,-4.6199,-4.6196,-4.6209,-4.6269,-4.6301,-4.6301,-4.6288,-4.6191,-4.5996,-4.5996,-4.5586,-4.4746,-4.4492,-4.4062,-4.3418,-4.2383,0.0,0.0,0.0,0.0,0.0,0.0,0.0,0.0,0.0,-3.8575,-3.9416,0.0,-4.0818,0.0,-4.2666,-4.3211,-4.3017,-4.3194,0.0,0.0,-4.3259,-4.3272,-4.3481,-4.3496,-4.3748,-4.4423,-4.4501,-4.4792,-4.5613,-4.577,-4.5739,-4.5529,-4.5554,-4.5577,-4.5592,-4.5572,-4.5592,-4.5553,-4.5514,-4.5572,-4.5514,-4.5572,-4.5514,-4.5592,-4.5576,-4.5582,-4.5556,-4.5028,-4.4634,-4.4643,-4.4126,-4.3645,-4.343,-4.3391,-4.3333,-4.304,-4.2045,-4.1109,-4.1111,-4.1134,-4.1314,-5.7187,-5.7109,-5.623,-5.5605,-5.5097,-5.4335,-5.3727,-5.3293,-5.3282,-5.2782,-5.193,-5.1018,-5.0173,-4.9425,-4.9745,-4.9703,-4.9372,-4.9722,-4.9898,-4.9917,-4.9917,-4.9917,-4.9898,-4.9898,-4.9917,-4.9917,-4.9917,-4.9917,-4.9878,-4.9527,-4.9333,-4.9333,-4.8962,-4.8319,-4.7384,-4.6995,-4.6585,-4.6219,-4.6583,-4.6975,-4.7348,-4.7422,-4.7277,-4.6907,-4.6874,-4.6699,-4.6308,-4.6289,-4.6074,-4.5605,-4.5215,-4.4785,-4.4297,-4.3457,-4.2969,0.0,0.0,0.0,0.0,0.0,0.0,0.0,0.0,0.0,0.0,0.0,-4.2393,-4.2841,-4.3679,-4.401,-4.362,-4.3907,-4.4121,-4.4132,-4.4097,-4.4224,-4.4579,-4.4598,-4.4792,-4.5258,-4.5336,-4.5516,-4.5944,-4.6047,-4.6117,-4.6117,-4.6166,-4.6204,-4.6215,-4.6199,-4.6199,-4.6199,-4.6199,-4.6199,-4.6199,-4.6199,-4.6199,-4.6199,-4.6199,-4.6203,-4.6193,-4.5822,-4.5487,-4.5494,-4.5158,-4.4719,-4.4367,-4.427,-4.4172,-4.3665,-4.2944,-4.2319,-4.2261,-4.2244,-4.2441,-5.8086,-5.7988,-5.7129,-5.6758,-5.664,-5.5019,-5.4257,-5.4178,-5.4169,-5.367,-5.2798,-5.1865,-5.1083,-5.0472,-5.1043,-5.084,-5.008,-5.0801,-5.1094,-5.0977,-5.0996,-5.1035,-5.1152,-5.1133,-5.1191,-5.1308,-5.1304,-5.1304,-5.1285,-5.0521,-5.017,-5.0131,-4.9449,-4.9079,-4.8923,-4.8206,-4.7407,-4.6553,-4.7284,-4.8028,-4.8784,-4.887,-4.8527,-4.7824,-4.7655,-4.7246,-4.6504,-4.6367,-4.6289,-4.6269,-4.5566,-4.5156,-4.5156,-4.4336,-4.3867,0.0,-4.375,0.0,0.0,0.0,0.0,0.0,0.0,0.0,0.0,-4.327,-4.3796,-4.3932,-4.4637,-4.4754,-4.3991,-4.4565,-4.4969,-4.4965,-4.4968,-4.5244,-4.5905,-4.5982,-4.5982,-4.5982,-4.6099,-4.6177,-4.6196,-4.6319,-4.6448,-4.6545,-4.6637,-4.6702,-4.6569,-4.6394,-4.6199,-4.6199,-4.6199,-4.6199,-4.6199,-4.6199,-4.6199,-4.6199,-4.6199,-4.6199,-4.6199,-4.6186,-4.6187,-4.617,-4.6169,-4.5968,-4.5285,-4.5168,-4.4914,-4.4291,-4.4096,-4.3938,-4.3645,-4.3549,-4.3744,-5.8945,-5.8887,-5.8008,-5.7656,-5.7578,-5.6543,-5.5703,-5.5057,-5.5052,-5.4551,-5.3704,-5.2818,-5.2359,-5.2171,-5.1642,-5.0917,-5.0098,-5.0254,-4.9942,-4.9256,-4.9276,-4.965,-5.0293,-5.0332,-5.0683,-5.1346,-5.1333,-5.1307,-5.1307,-5.1113,-5.1067,-5.1047,-5.0891,-5.0482,-4.98,0.0,0.0,0.0,-4.8457,-4.863,-4.8803,-4.8868,-4.8839,-4.8644,-4.7968,0.0,-4.7344,-4.668,-4.6289,-4.6289,-4.6152,0.0,0.0,0.0,0.0,0.0,0.0,0.0,0.0,0.0,0.0,0.0,-4.398,-4.3947,-4.3448,-4.415,-4.4949,-4.5631,-4.5868,-4.5887,-4.5728,-4.5846,-4.5924,-4.5864,-4.5857,-4.5906,-4.5982,-4.6002,-4.5982,-4.6002,-4.6618,-4.7065,-4.7084,-4.7714,-4.8175,-4.8117,-4.8253,-4.8319,-4.8261,-4.7111,-4.6277,-4.6199,-4.6277,-4.6219,-4.6199,-4.6199,-4.6199,-4.6199,-4.6199,-4.6199,-4.6199,-4.6206,-4.6206,-4.6209,-4.6267,-4.628,-4.6066,-4.6046,-4.5929,-4.5831,-4.5773,-4.5382,-4.4018,-4.3725,-4.3918,-5.9805,0.0,-5.8418,-5.789,0.0,-5.6973,-5.6367,-5.5956,-5.5935,-5.5457,-5.4598,-5.3726,-5.3111,-5.2696,-5.2668,-5.1943,-5.0773,-5.1202,-5.0907,-5.0085,-5.0068,-5.0321,-5.0751,-5.0731,-5.0965,-5.1394,-5.1366,-5.1362,-5.1362,-5.1372,-5.1349,-5.1369,-5.1349,-5.1135,-5.0706,-5.0732,-5.0313,-4.9463,-4.9449,-4.9655,-5.0061,-5.0121,-4.9934,-4.9485,-4.912,0.0,0.0,0.0,0.0,0.0,0.0,0.0,0.0,-4.5879,0.0,-4.5625,-4.5234,-4.4997,-4.4993,-4.4988,-4.4955,-4.4941,-4.5315,-4.5339,-4.491,-4.528,-4.5732,-4.6157,-4.6199,-4.6199,-4.6196,-4.6201,-4.6356,-4.6679,-4.6735,-4.6887,-4.7208,-4.728,-4.7275,-4.7323,-4.7667,-4.7939,-4.7939,-4.8301,-4.8643,-4.8696,-4.8727,-4.8795,-4.8729,-4.8066,-4.7368,-4.694,-4.6842,-4.6667,-4.6297,-4.6199,-4.6219,-4.6199,-4.6199,-4.6199,-4.6199,-4.62,-4.6198,-4.6206,-4.6262,-4.6294,-4.63,-4.6302,-4.6302,-4.6302,-4.6302,-4.6066,-4.513,-4.4992,-4.509,-6.0625,-6.0488,-5.8984,-5.8242,-5.8066,-5.7187,-5.6738,-5.6621,0.0,0.0,0.0,-5.4615,-5.3845,-5.3199,-5.3693,-5.3083,-5.1718,-5.2381,-5.2225,-5.1403,-5.1403,-5.1481,-5.1617,-5.1617,-5.1637,-5.1637,-5.1634,-5.1536,-5.1397,-5.1394,-5.1394,-5.1394,-5.1394,-5.1397,-5.1397,-5.14,-5.1054,-5.0364,-5.0323,-5.0662,-5.1357,-5.1393,-5.1047,-5.0345,-5.0234,-4.9863,-4.916,-4.8301,-4.7812,-4.7793,-4.7148,-4.6758,-4.6758,-4.6758,-4.6758,-4.6758,-4.6757,-4.6754,-4.6751,-4.6744,-4.671,-4.6677,-4.6664,-4.6605,-4.6452,-4.6433,-4.6491,-4.6644,-4.6663,-4.6663,-4.6663,-4.6672,-4.691,-4.7564,-4.7624,-4.7894,-4.8487,-4.8593,-4.8505,-4.8605,-4.8696,-4.8832,-4.8832,-4.9015,-4.9075,-4.9158,-4.9303,-4.9188,-4.9173,-4.8962,-4.8417,-4.7852,-4.7719,-4.7443,-4.6706,-4.6491,-4.6394,-4.6238,-4.6199,-4.6199,-4.6199,-4.6213,-4.6209,-4.6203,-4.6258,-4.6288,-4.6298,-4.6302,-4.6302,-4.6302,-4.6302,-4.6302,-4.6302,-4.6282,-4.6223,-6.1504,-6.1426,-6.0469,-5.9648,-5.8965,-5.8086,-5.7285,-5.6621,-5.662,-5.6536,-5.6367,-5.5507,-5.5052,-5.4908,-5.4259,-5.344,-5.2544,-5.2639,-5.223,-5.141,-5.139,-5.18,-5.2503,-5.2503,-5.2522,-5.2522,-5.253,-5.2116,-5.1452,-5.14,-5.1394,-5.1394,-5.1394,-5.14,-5.1394,-5.1396,-5.1323,-5.1215,-5.1228,-5.1271,-5.1387,-5.1395,-5.1342,-5.1209,-5.0566,-5.0156,-5.0019,-4.918,-4.8711,-4.8711,-4.8594,-4.8535,-4.8535,-4.8496,-4.8535,-4.8535,-4.8532,-4.8547,-4.8507,-4.8496,-4.8459,-4.8449,-4.8438,-4.8125,-4.7407,-4.731,-4.7637,-4.8319,-4.8339,-4.8436,-4.8436,-4.8374,-4.8355,-4.8496,-4.8506,-4.8565,-4.8694,-4.8688,-4.8708,-4.8735,-4.9265,-4.9732,-4.9771,-5.0298,-5.0683,-5.0796,-5.0617,-5.0847,-5.0591,-4.9683,-4.8845,-4.8631,-4.8612,-4.8241,-4.754,-4.731,-4.7057,-4.6297,-4.6258,-4.6277,-4.6199,-4.6213,-4.6209,-4.6203,-4.6255,-4.6288,-4.6298,-4.6302,-4.6302,-4.6302,-4.6302,-4.6302,-4.6302,-4.6302,-4.6302,-6.1699,-6.1601,-6.0762,-5.9941,-5.9101,-5.7773,-5.6973,-5.6621,-5.6621,-5.6619,-5.6554,-5.618,-5.602,-5.5978,-5.5588,-5.4944,-5.4125,-5.4105,-5.3637,-5.2854,-5.2815,-5.303,-5.3383,-5.3401,-5.3419,-5.3414,-5.3409,-5.2936,-5.2188,-5.2104,-5.1867,-5.1438,-5.1399,-5.1401,-5.1388,-5.1394,-5.1398,-5.1384,-5.14,-5.1402,-5.139,-5.1399,-5.1384,-5.1385,-5.1015,-5.0859,-5.084,-5.0058,-4.959,-4.9609,-4.9141,-4.8887,-4.8887,-4.8887,-4.8887,-4.8886,-4.8882,-4.8877,-4.8854,-4.8814,-4.8794,-4.8797,-4.8808,-4.8842,-4.8869,-4.8472,-4.8358,-4.8768,-4.8776,-4.8729,-4.8748,-4.874,-4.8918,-4.9362,-4.9396,-4.9581,-4.9934,-5.0006,-4.9995,-5.0042,-5.0348,-5.06,-5.06,-5.0942,-5.1192,-5.1214,-5.1259,-5.131,-5.1304,-5.0689,-4.9956,-4.9566,-4.9449,-4.9099,-4.8358,-4.8202,-4.7832,-4.7053,-4.6897,-4.6686,-4.6355,-4.6206,-4.6216,-4.6212,-4.6228,-4.626,-4.629,-4.6296,-4.63,-4.6302,-4.6302,-4.6302,-4.6302,-4.6302,-4.6302,-6.1699,-6.164,-6.0976,-6.0117,-5.9062,-5.7344,-5.6621,-5.6621,-5.6621,-5.6621,-5.6619,-5.6616,-5.6613,-5.6612,-5.6612,-5.6222,-5.5656,-5.5598,-5.5227,-5.4641,-5.4581,-5.4582,-5.4581,-5.4581,-5.4501,-5.4322,-5.4301,-5.3849,-5.3082,-5.2983,-5.2553,-5.1773,-5.1695,-5.1597,-5.1402,-5.1389,-5.1391,-5.1393,-5.1394,-5.1394,-5.1395,-5.1402,-5.1385,-5.1386,-5.1386,-5.1387,-5.1367,-5.0801,-5.0469,-5.0429,-4.9824,-4.9472,-4.9453,-4.9453,-4.9452,-4.947,-4.9466,-4.944,-4.9394,-4.9386,-4.9382,-4.9382,-4.9374,-4.9637,-5.0146,-4.9746,-4.9364,-4.9336,-4.9378,-4.9307,-4.9346,-4.9332,-4.9552,-5.0189,-5.0267,-5.049,-5.1072,-5.1203,-5.1211,-5.1208,-5.1202,-5.1183,-5.1202,-5.1202,-5.1214,-5.1208,-5.1249,-5.1293,-5.1287,-5.1304,-5.0981,-5.0541,-5.0287,-4.9956,-4.9235,-4.906,-4.8709,-4.793,-4.7793,-4.7427,-4.6858,-4.653,-4.6342,-4.63,-4.6198,-4.6233,-4.6284,-4.6294,-4.63,-4.6302,-4.6302,-4.6302,-4.6302,-4.6302,-4.6302,-6.1699,-6.1699,-6.1582,-6.0644,-5.9062,-5.7344,-5.6621,-5.6621,-5.6621,-5.6621,-5.6621,-5.662,-5.6616,-5.6612,-5.6612,-5.6535,-5.6437,-5.6476,-5.6398,-5.63,-5.6358,-5.6358,-5.6262,-5.6319,-5.5948,-5.5265,-5.5167,-5.4718,-5.3916,-5.3838,-5.3428,-5.2667,-5.2569,-5.2197,-5.1533,-5.1436,-5.1436,-5.1417,-5.1402,-5.1384,-5.1384,-5.1385,-5.1386,-5.1387,-5.1387,-5.1387,-5.1387,-5.1328,-5.1268,-5.1287,-5.1187,-5.1145,-5.1127,-5.1126,-5.1145,-5.1126,-5.1121,-5.1172,-5.1143,-5.1157,-5.1082,-5.1157,-5.1011,-5.1,-5.1135,-5.1077,-5.1029,-5.0914,-5.0923,-5.0841,-5.0958,-5.0894,-5.0865,-5.0941,-5.1019,-5.1125,-5.1175,-5.1202,-5.1202,-5.1202,-5.1202,-5.1202,-5.1202,-5.1202,-5.1214,-5.1203,-5.1219,-5.124,-5.1278,-5.1291,-5.128,-5.1156,-5.1164,-5.0794,-5.0112,-4.9898,-4.9547,-4.8865,-4.869,-4.828,-4.7676,-4.7349,-4.7196,-4.6801,-4.6432,-4.6504,-4.6477,-4.6294,-4.6358,-4.6456,-4.6417,-4.6302,-4.6302,-4.6302,-4.6302,-6.1699,-6.1699,-6.1699,-6.0742,-5.9062,-5.7344,-5.6621,-5.6621,-5.6621,-5.6621,-5.6621,-5.6621,-5.662,-5.6619,-5.6619,-5.6619,-5.6619,-5.6619,-5.6619,-5.6619,-5.6619,-5.6619,-5.6619,-5.6619,-5.6384,-5.6109,-5.607,-5.562,-5.4818,-5.427,-5.3801,-5.3508,-5.3469,-5.3294,-5.2942,-5.2925,-5.2926,-5.2926,-5.2421,-5.2168,-5.2109,-5.166,-5.1386,-5.1387,-5.1387,-5.1387,-5.1386,-5.1386,-5.1384,-5.1402,-5.1399,-5.1398,-5.1398,-5.1398,-5.1397,-5.1394,-5.1387,-5.1398,-5.1394,-5.1399,-5.1386,-5.1394,-5.1333,-5.1308,-5.1291,-5.1254,-5.1235,-5.1215,-5.1205,-5.1205,-5.1205,-5.1208,-5.1211,-5.1206,-5.12,-5.1214,-5.1202,-5.1202,-5.1202,-5.1202,-5.1202,-5.1202,-5.1202,-5.1202,-5.1208,-5.12,-5.1217,-5.12,-5.1245,-5.1288,-5.131,-5.13,-5.1312,-5.118,-5.0813,-5.0774,-5.0385,-4.9781,-4.9508,-4.9196,-4.8514,-4.8265,-4.8109,-4.7726,-4.7635,-4.763,-4.785,-4.7322,-4.7059,-4.6983,-4.6515,-4.6302,-4.6302,-4.6302,-4.6302,-6.1699,-6.1621,-6.1211,-6.0312,-5.9062,-5.7344,-5.6621,-5.6621,-5.6621,-5.6621,-5.6621,-5.6621,-5.6621,-5.6621,-5.6621,-5.6621,-5.6621,-5.6621,-5.6621,-5.6621,-5.6621,-5.6621,-5.6621,-5.6621,-5.6621,-5.662,-5.66,-5.6268,-5.564,-5.5055,-5.4605,-5.439,-5.4351,-5.4234,-5.4019,-5.3983,-5.3983,-5.3925,-5.3359,-5.3047,-5.2969,-5.2422,-5.1894,-5.1465,-5.1387,-5.1386,-5.1385,-5.1384,-5.14,-5.1396,-5.1394,-5.1394,-5.1394,-5.1393,-5.1391,-5.1387,-5.1398,-5.1394,-5.1394,-5.1384,-5.1391,-5.1394,-5.134,-5.1296,-5.1295,-5.1244,-5.122,-5.1214,-5.1203,-5.1217,-5.1217,-5.1214,-5.1202,-5.1202,-5.1202,-5.1202,-5.1202,-5.1202,-5.1202,-5.1202,-5.1202,-5.1202,-5.1202,-5.1202,-5.1202,-5.1202,-5.12,-5.1203,-5.1214,-5.1245,-5.1273,-5.1306,-5.1304,-5.1292,-5.1296,-5.1242,-5.095,-5.0677,-5.0365,-5.0073,-4.9333,-4.9157,-4.8884,-4.8467,-4.8743,-4.8739,-4.8471,-4.8099,-4.7762,-4.7528,-4.712,-4.6593,-4.6339,-4.6319,-4.6305,-6.1699,-6.1484,-5.998,-5.9336,-5.9062,-5.7344,-5.6621,-5.6621,-5.6621,-5.6621,-5.6621,-5.6621,-5.6621,-5.6621,-5.6621,-5.6621,-5.6621,-5.6621,-5.6621,-5.6621,-5.6621,-5.6621,-5.6621,-5.6621,-5.6621,-5.6621,-5.6601,-5.6543,-5.6484,-5.6445,-5.6055,-5.5293,-5.5234,-5.4844,-5.4258,-5.418,-5.4043,-5.416,-5.4043,-5.3945,-5.3926,-5.3887,-5.3008,-5.1719,-5.1425,-5.1444,-5.1385,-5.1397,-5.1391,-5.139,-5.1402,-5.1396,-5.1396,-5.1396,-5.1396,-5.1396,-5.1414,-5.1414,-5.1451,-5.1523,-5.1511,-5.1436,-5.144,-5.1316,-5.13,-5.1249,-5.1206,-5.1214,-5.1206,-5.1208,-5.1208,-5.1202,-5.1202,-5.1202,-5.1202,-5.1202,-5.1202,-5.1202,-5.1202,-5.1202,-5.1202,-5.1202,-5.1202,-5.1202,-5.1202,-5.1202,-5.1202,-5.1214,-5.1203,-5.1214,-5.124,-5.1273,-5.131,-5.13,-5.1296,-5.13,-5.1261,-5.1086,-5.0891,-5.0911,-5.0385,-4.9878,-4.9488,-4.9204,-4.925,-4.9168,-4.892,-4.864,-4.8363,-4.8096,-4.7801,-4.7354,-4.7022,-4.6495,-4.6441,-6.1699,-6.1543,-5.9883,-5.9199,-5.9004,-5.7344,-5.6621,-5.6621,-5.6621,-5.6621,-5.6621,-5.6621,-5.6621,-5.6621,-5.6621,-5.6621,-5.6621,-5.6621,-5.6621,-5.6621,-5.6621,-5.6621,-5.6621,-5.6621,-5.6621,-5.6621,-5.6621,-5.6621,-5.6621,-5.6621,-5.6465,-5.6191,-5.6152,-5.5957,-5.5703,-5.5664,-5.5664,-5.5625,-5.5156,-5.4824,-5.4765,-5.4297,-5.3652,-5.3085,-5.2518,-5.195,-5.1401,-5.1395,-5.1387,-5.14,-5.1396,-5.1394,-5.1394,-5.1394,-5.1394,-5.1453,-5.1921,-5.2234,-5.2312,-5.2759,-5.2808,-5.2289,-5.2197,-5.1925,-5.1429,-5.128,-5.1244,-5.122,-5.1208,-5.1206,-5.1208,-5.1202,-5.1202,-5.1202,-5.1202,-5.1202,-5.1202,-5.1202,-5.1202,-5.1202,-5.1202,-5.1202,-5.1202,-5.1202,-5.1202,-5.1202,-5.1202,-5.1208,-5.122,-5.1217,-5.1224,-5.1235,-5.1278,-5.1295,-5.1296,-5.13,-5.13,-5.13,-5.1222,-5.1164,-5.0833,-5.0735,-5.0424,-5.033,-5.018,-5.0146,-5.0096,-4.9738,-4.936,-4.8662,-4.8388,-4.825,-4.7978,-4.7435,-4.7188,-6.1699,-6.1445,-5.9902,-5.9199,-5.8984,-5.7344,-5.6621,-5.6621,-5.6621,-5.6621,-5.6621,-5.6621,-5.6621,-5.6621,-5.6621,-5.6621,-5.6621,-5.6621,-5.6621,-5.6621,-5.6621,-5.6621,-5.6621,-5.6621,-5.6621,-5.6621,-5.6621,-5.6621,-5.6621,-5.6621,-5.6621,-5.6601,-5.6621,-5.6621,-5.6621,-5.6621,-5.6621,-5.6484,-5.6015,-5.5703,-5.5644,-5.5156,-5.4687,-5.4391,-5.3843,-5.3119,-5.2274,-5.2248,-5.2261,-5.2236,-5.2234,-5.2234,-5.2253,-5.2253,-5.2253,-5.2312,-5.28,-5.3134,-5.3171,-5.3678,-5.3732,-5.3194,-5.3103,-5.2776,-5.221,-5.2115,-5.1964,-5.1765,-5.1618,-5.1553,-5.1264,-5.1208,-5.1202,-5.1202,-5.1202,-5.1202,-5.1202,-5.1202,-5.1202,-5.1202,-5.1202,-5.1202,-5.1202,-5.1202,-5.1202,-5.1202,-5.1202,-5.1202,-5.1202,-5.122,-5.1208,-5.1215,-5.124,-5.1263,-5.1284,-5.1292,-5.1296,-5.13,-5.13,-5.13,-5.13,-5.13,-5.13,-5.1328,-5.1346,-5.1372,-5.1213,-5.0837,-5.0219,-4.9423,-4.9189,-4.9089,-4.8742,-4.8337,-4.8128,-6.1699,-6.1465,-5.9902,-5.9199,-5.8965,-5.7344,-5.6621,-5.6621,-5.6621,-5.6621,-5.6621,-5.6621,-5.6621,-5.6621,-5.6621,-5.6621,-5.6621,-5.6621,-5.6621,-5.6621,-5.6621,-5.6621,-5.6621,-5.6621,-5.6621,-5.6621,-5.6621,-5.6621,-5.6621,-5.6621,-5.6621,-5.6621,-5.6621,-5.6621,-5.6621,-5.6621,-5.6621,-5.6582,-5.6504,-5.6523,-5.6599,-5.6424,-5.6011,-5.5402,-5.5221,-5.4826,-5.4044,-5.3918,-5.3776,-5.3815,-5.3834,-5.3951,-5.3776,-5.3756,-5.3873,-5.3795,-5.3951,-5.399,-5.4029,-5.4127,-5.4279,-5.3996,-5.3961,-5.3829,-5.3614,-5.356,-5.3297,-5.2723,-5.2514,-5.223,-5.1558,-5.1478,-5.1377,-5.1202,-5.1202,-5.1202,-5.1202,-5.1202,-5.1202,-5.1202,-5.1202,-5.1202,-5.1202,-5.1202,-5.1202,-5.1202,-5.1202,-5.1202,-5.1202,-5.1208,-5.122,-5.1208,-5.122,-5.123,-5.1267,-5.1304,-5.1292,-5.13,-5.13,-5.13,-5.13,-5.13,-5.1304,-5.1312,-5.1359,-5.1383,-5.1401,-5.1058,-5.0885,-5.0301,-5.0143,-4.9911,-4.962,-4.9293,-4.9009,-6.1699,-6.1504,-5.9883,-5.9199,-5.8984,-5.7324,-5.6621,-5.6621,-5.6621,-5.6621,-5.6621,-5.6621,-5.6621,-5.6621,-5.6621,-5.6621,-5.6621,-5.6621,-5.6621,-5.666,-5.664,-5.666,-5.666,-5.664,-5.6621,-5.6621,-5.6621,-5.6621,-5.6621,-5.6621,-5.6621,-5.6621,-5.6621,-5.6621,-5.6621,-5.662,-5.662,-5.662,-5.6618,-5.6616,-5.6614,-5.6614,-5.6456,-5.6255,-5.6174,-5.6032,-5.5771,-5.4656,-5.4029,-5.4029,-5.399,-5.399,-5.401,-5.399,-5.399,-5.4068,-5.4596,-5.4888,-5.4966,-5.5415,-5.5452,-5.5038,-5.4833,-5.4488,-5.4001,-5.3938,-5.3794,-5.3476,-5.3414,-5.3225,-5.3049,-5.3002,-5.2469,-5.1338,-5.1202,-5.1241,-5.1202,-5.1202,-5.1202,-5.1202,-5.1202,-5.1202,-5.1202,-5.1202,-5.1202,-5.1202,-5.1202,-5.1202,-5.1202,-5.1202,-5.1214,-5.1208,-5.1215,-5.1215,-5.1258,-5.13,-5.1296,-5.13,-5.13,-5.13,-5.13,-5.1304,-5.1312,-5.133,-5.1375,-5.1391,-5.1388,-5.1316,-5.1121,-5.1102,-5.0887,-5.0711,-5.0557,-5.0252,-4.9889,-6.1699,-6.1543,-6.0215,-5.9453,-5.9062,-5.7656,-5.6875,-5.664,-5.6621,-5.6621,-5.6621,-5.6621,-5.6621,-5.6621,-5.6621,-5.6797,-5.7051,-5.709,-5.7265,-5.7461,-5.7187,-5.7246,-5.75,-5.7578,-5.7344,-5.7129,-5.709,-5.6914,-5.6621,-5.6621,-5.6621,-5.6621,-5.662,-5.6621,-5.662,-5.6618,-5.6617,-5.6616,-5.6614,-5.6611,-5.6609,-5.6609,-5.6605,-5.6618,-5.6616,-5.6612,-5.6508,-5.5513,-5.4966,-5.4966,-5.4966,-5.4986,-5.4966,-5.4986,-5.4966,-5.5064,-5.5415,-5.5767,-5.5845,-5.6235,-5.6411,-5.5882,-5.5716,-5.5491,-5.497,-5.4876,-5.4765,-5.4379,-5.4279,-5.4144,-5.3852,-5.3788,-5.3241,-5.2344,-5.1874,-5.1532,-5.1319,-5.1202,-5.1202,-5.1202,-5.1202,-5.1202,-5.1202,-5.1202,-5.1202,-5.1202,-5.1202,-5.1202,-5.1202,-5.1202,-5.1214,-5.1217,-5.121,-5.123,-5.1269,-5.1295,-5.1296,-5.13,-5.13,-5.13,-5.13,-5.1292,-5.1303,-5.1346,-5.1391,-5.1396,-5.139,-5.1392,-5.1297,-5.1394,-5.1394,-5.1222,-5.0951,-5.0882,-5.0597,-6.1699,-6.1582,-6.0742,-5.9902,-5.9121,-5.8203,-5.7344,-5.668,-5.6621,-5.6621,-5.6621,-5.6621,-5.6621,-5.6621,-5.6738,-5.7168,-5.7773,-5.7988,-5.8398,-5.8769,-5.8535,-5.8437,-5.8848,-5.8887,-5.8535,-5.8066,-5.7969,-5.7598,-5.707,-5.703,-5.6716,-5.6794,-5.6811,-5.6651,-5.6633,-5.6612,-5.6612,-5.6611,-5.661,-5.6607,-5.6619,-5.6619,-5.6616,-5.6606,-5.6606,-5.6606,-5.6567,-5.6411,-5.6428,-5.6547,-5.6372,-5.635,-5.6526,-5.6584,-5.6411,-5.6372,-5.6547,-5.6528,-5.6565,-5.6545,-5.6567,-5.6487,-5.6402,-5.6489,-5.6249,-5.6111,-5.5915,-5.5342,-5.5217,-5.4898,-5.4309,-5.4169,-5.4037,-5.3774,-5.3011,-5.2263,-5.1532,-5.1474,-5.1571,-5.1416,-5.1299,-5.126,-5.126,-5.1202,-5.1202,-5.1202,-5.1202,-5.1202,-5.1202,-5.1202,-5.1202,-5.1206,-5.1219,-5.1225,-5.1244,-5.1276,-5.1296,-5.13,-5.13,-5.13,-5.1308,-5.1319,-5.132,-5.1364,-5.1399,-5.1386,-5.139,-5.1392,-5.1394,-5.1394,-5.1396,-5.14,-5.1328,-5.118,-5.1107,-6.1699,-6.1601,-6.0762,-5.9922,-5.9121,-5.8262,-5.7422,-5.666,-5.6621,-5.6621,-5.6621,-5.6621,-5.666,-5.668,-5.7285,-5.7715,-5.8086,-5.8613,-5.9297,-5.9961,-5.9902,-5.9453,-5.9258,-5.9238,-5.9121,-5.8887,-5.8828,-5.873,-5.8534,-5.8357,-5.8102,-5.7571,-5.755,-5.7217,-5.6709,-5.6666,-5.6605,-5.6603,-5.6618,-5.6614,-5.661,-5.661,-5.6608,-5.6606,-5.6604,-5.6604,-5.6604,-5.6604,-5.6604,-5.6604,-5.6604,-5.6604,-5.6604,-5.6604,-5.6604,-5.6604,-5.6604,-5.6604,-5.6604,-5.6604,-5.6604,-5.6604,-5.6582,-5.6558,-5.6489,-5.6481,-5.6371,-5.6147,-5.6122,-5.6008,-5.579,-5.5667,-5.5405,-5.4752,-5.4005,-5.3349,-5.304,-5.3034,-5.2814,-5.2251,-5.2096,-5.1843,-5.1513,-5.1358,-5.1358,-5.1358,-5.1377,-5.1319,-5.1396,-5.1338,-5.1396,-5.1258,-5.1208,-5.1215,-5.1225,-5.1276,-5.1296,-5.13,-5.13,-5.1304,-5.1316,-5.1349,-5.1372,-5.1394,-5.1384,-5.139,-5.1392,-5.1394,-5.1394,-5.1394,-5.1402,-5.1387,-5.1391,-5.1319,-5.1305,-6.1699,-6.166,-6.1152,-6.0469,-5.9629,-5.8808,-5.7949,-5.7187,-5.6758,-5.6621,-5.668,-5.7031,-5.7148,-5.7246,-5.8047,-5.8633,-5.8984,-5.9473,-6.0156,-6.084,-6.0937,-6.0683,-6.0351,-6.0254,-6.0078,-5.9707,-5.9687,-5.9472,-5.9197,-5.9155,-5.8857,-5.8482,-5.8401,-5.795,-5.7189,-5.7108,-5.6907,-5.6673,-5.6608,-5.6604,-5.6604,-5.6604,-5.6604,-5.6604,-5.6604,-5.6604,-5.6604,-5.6604,-5.6604,-5.6604,-5.6604,-5.6604,-5.6604,-5.6604,-5.6604,-5.6604,-5.6604,-5.6604,-5.6604,-5.6604,-5.6604,-5.6604,-5.6604,-5.6582,-5.6555,-5.6511,-5.6484,-5.6455,-5.6498,-5.6487,-5.6484,-5.6461,-5.6197,-5.5707,-5.519,-5.4555,-5.3874,-5.3674,-5.3493,-5.3112,-5.2912,-5.2795,-5.2271,-5.2232,-5.2212,-5.229,-5.2407,-5.2154,-5.1882,-5.1746,-5.1616,-5.155,-5.1344,-5.1317,-5.1303,-5.1334,-5.13,-5.13,-5.1319,-5.1319,-5.133,-5.1366,-5.1386,-5.1401,-5.139,-5.1394,-5.1394,-5.1394,-5.1394,-5.1396,-5.1385,-5.1391,-5.1395,-5.14,-5.1385,-6.1699,-6.1699,-6.1699,-6.1191,-6.0312,-5.9531,-5.8613,-5.7812,-5.6953,-5.6699,-5.6933,-5.7578,-5.7871,-5.8086,-5.8926,-5.9668,-6.0312,-6.043,-6.0937,-6.1406,-6.1601,-6.1504,-6.1445,-6.1387,-6.1074,-6.0625,-6.0545,-6.0192,-5.9858,-5.9576,-5.9372,-5.9273,-5.9226,-5.8753,-5.8113,-5.7935,-5.7484,-5.6938,-5.686,-5.676,-5.6643,-5.6604,-5.6604,-5.6604,-5.6604,-5.6604,-5.6604,-5.6604,-5.6604,-5.6604,-5.6604,-5.6604,-5.6604,-5.6604,-5.6604,-5.6604,-5.6604,-5.6604,-5.6604,-5.6604,-5.6604,-5.6604,-5.6604,-5.6604,-5.6602,-5.6555,-5.6511,-5.6528,-5.6494,-5.6485,-5.6498,-5.6484,-5.643,-5.6253,-5.627,-5.5595,-5.4541,-5.4052,-5.3996,-5.3856,-5.3856,-5.3831,-5.3714,-5.3714,-5.3636,-5.3034,-5.3131,-5.2931,-5.2678,-5.2581,-5.2335,-5.2016,-5.1758,-5.1439,-5.1405,-5.1388,-5.1331,-5.1308,-5.1317,-5.1327,-5.1372,-5.1386,-5.1379,-5.139,-5.1392,-5.1394,-5.1394,-5.1394,-5.1394,-5.1402,-5.1389,-5.1394,-5.1398,-5.1384,-5.1386,-6.1699,-6.1699,-6.1699,-6.1191,-6.0351,-5.9551,-5.8711,-5.791,-5.7031,-5.709,-5.7558,-5.7871,-5.834,-5.8945,-5.9746,-6.0254,-6.0547,-6.1055,-6.1562,-6.164,-6.1699,-6.1699,-6.1699,-6.1699,-6.1601,-6.1386,-6.1404,-6.1303,-6.11,-6.0899,-6.0776,-6.0182,-6.0063,-5.969,-5.8948,-5.8792,-5.8382,-5.7699,-5.7562,-5.7211,-5.674,-5.6682,-5.6662,-5.6604,-5.6604,-5.6604,-5.6604,-5.6604,-5.6604,-5.6604,-5.6604,-5.6604,-5.6604,-5.6604,-5.6604,-5.6604,-5.6604,-5.6604,-5.6604,-5.6604,-5.6604,-5.6604,-5.6604,-5.6604,-5.6604,-5.6602,-5.6582,-5.658,-5.655,-5.65,-5.6508,-5.6501,-5.6487,-5.6476,-5.6445,-5.6308,-5.5911,-5.5753,-5.5355,-5.491,-5.4698,-5.4485,-5.3869,-5.3908,-5.3869,-5.3753,-5.3753,-5.3656,-5.3539,-5.3442,-5.3104,-5.2752,-5.2474,-5.2217,-5.2115,-5.1927,-5.1526,-5.1385,-5.133,-5.1344,-5.1372,-5.1396,-5.1386,-5.139,-5.1394,-5.1394,-5.1394,-5.1396,-5.1398,-5.1385,-5.1393,-5.1398,-5.1402,-5.1386,-5.1387,-6.1699,-6.1699,-6.1699,-6.1445,-6.0918,-6.0117,-5.9492,-5.8965,-5.8203,-5.8066,-5.8515,-5.8867,-5.9355,-5.9805,-6.0605,-6.1015,-6.1094,-6.1445,-6.1699,-6.1699,-6.1699,-6.1699,-6.1699,-6.1699,-6.1698,-6.1716,-6.1693,-6.1705,-6.1699,-6.1672,-6.1393,-6.1056,-6.0978,-6.0529,-5.9827,-5.971,-5.9241,-5.8577,-5.8402,-5.8011,-5.7309,-5.7172,-5.6899,-5.6682,-5.6604,-5.6604,-5.6604,-5.6604,-5.6604,-5.6604,-5.6623,-5.6623,-5.6604,-5.6604,-5.6604,-5.6604,-5.6604,-5.6604,-5.6604,-5.6604,-5.6604,-5.6604,-5.6604,-5.6604,-5.6604,-5.6604,-5.6604,-5.6604,-5.656,-5.6553,-5.6545,-5.6517,-5.6508,-5.6482,-5.6494,-5.6496,-5.6444,-5.6398,-5.6214,-5.573,-5.559,-5.5417,-5.508,-5.4711,-5.4841,-5.5074,-5.5113,-5.4977,-5.4399,-5.4243,-5.395,-5.3616,-5.3317,-5.3088,-5.2966,-5.2563,-5.1837,-5.1583,-5.1366,-5.1377,-5.1384,-5.1386,-5.1388,-5.1392,-5.1394,-5.1394,-5.1394,-5.1398,-5.1402,-5.1389,-5.1395,-5.1401,-5.1385,-5.1386,-5.1387,-6.1699,-6.1699,-6.1699,-6.1699,-6.1562,-6.0762,-6.0332,-6.0234,-5.9551,-5.9121,-5.9473,-6.0137,-6.0293,-6.0723,-6.1289,-6.166,-6.168,-6.168,-6.1699,-6.1699,-6.1699,-6.1699,-6.1699,-6.1717,-6.1715,-6.1714,-6.1707,-6.1699,-6.1713,-6.1705,-6.1642,-6.164,-6.1659,-6.1232,-6.0725,-6.0568,-6.0178,-5.9417,-5.93,-5.889,-5.8168,-5.7992,-5.7641,-5.7035,-5.6643,-5.6623,-5.6662,-5.674,-5.684,-5.6801,-5.6918,-5.6975,-5.6936,-5.6643,-5.6604,-5.6604,-5.6604,-5.6604,-5.6604,-5.6604,-5.6604,-5.6604,-5.6604,-5.6604,-5.6604,-5.6604,-5.6604,-5.6604,-5.6604,-5.6604,-5.6584,-5.6555,-5.6531,-5.6506,-5.6494,-5.6498,-5.648,-5.6444,-5.6344,-5.6278,-5.6105,-5.5933,-5.5998,-5.585,-5.6136,-5.6304,-5.6285,-5.6136,-5.5499,-5.5127,-5.4872,-5.4591,-5.4305,-5.3695,-5.3494,-5.2999,-5.2285,-5.1907,-5.1613,-5.1425,-5.1431,-5.1392,-5.1392,-5.1392,-5.1394,-5.1394,-5.1396,-5.1402,-5.1387,-5.1391,-5.1398,-5.1384,-5.1386,-5.1386,-5.1387,-6.1699,-6.1699,-6.1699,-6.1699,-6.1582,-6.0781,-6.0449,-6.0273,-5.9648,-5.9609,-6.0176,-6.0371,-6.0859,-6.1348,-6.1562,-6.1699,-6.1699,-6.1699,-6.1699,-6.1699,-6.1699,-6.1699,-6.1717,-6.1714,-6.1709,-6.1704,-6.1717,-6.1713,-6.1705,-6.1701,-6.1698,-6.1698,-6.1698,-6.1522,-6.1464,-6.1425,-6.0978,-6.0315,-6.0178,-5.9749,-5.9085,-5.8734,-5.8421,-5.7641,-5.7172,-5.6879,-5.6899,-5.7289,-5.7601,-5.766,-5.8285,-5.8558,-5.8304,-5.7367,-5.6877,-5.6818,-5.6858,-5.6916,-5.676,-5.6662,-5.6623,-5.6604,-5.6604,-5.6604,-5.6604,-5.6604,-5.6604,-5.6604,-5.6604,-5.6604,-5.6604,-5.6582,-5.6558,-5.6511,-5.6506,-5.6497,-5.6498,-5.648,-5.6448,-5.6383,-5.6382,-5.6375,-5.6358,-5.6327,-5.6321,-5.6341,-5.6341,-5.6333,-5.6044,-5.5919,-5.593,-5.5653,-5.5376,-5.4624,-5.3947,-5.3319,-5.2698,-5.235,-5.2008,-5.1544,-5.1492,-5.1414,-5.1394,-5.1394,-5.1394,-5.1394,-5.1398,-5.1385,-5.1391,-5.1395,-5.1401,-5.1386,-5.1387,-5.1387,-5.1387,-6.1699,-6.1699,-6.1699,-6.1699,-6.1621,-6.1269,-6.1055,-6.1015,-6.0683,-6.0703,-6.0996,-6.1094,-6.1269,-6.1621,-6.1699,-6.1699,-6.1699,-6.1699,-6.1699,-6.1699,-6.1699,-6.1699,-6.1716,-6.1711,-6.1705,-6.1699,-6.1711,-6.1707,-6.1701,-6.1698,-6.1698,-6.1698,-6.1698,-6.1698,-6.1698,-6.1659,-6.1464,-6.1095,-6.1017,-6.0646,-5.9788,-5.9417,-5.8831,-5.8499,-5.8128,-5.7933,-5.7972,-5.8187,-5.848,-5.8558,-5.887,-5.9063,-5.8887,-5.8519,-5.7914,-5.7894,-5.7853,-5.7621,-5.7309,-5.7192,-5.7094,-5.6662,-5.6643,-5.6604,-5.6604,-5.6604,-5.6643,-5.6604,-5.6604,-5.6604,-5.6604,-5.6604,-5.6582,-5.656,-5.6536,-5.6531,-5.652,-5.6488,-5.6464,-5.6429,-5.6417,-5.6393,-5.6386,-5.6375,-5.6375,-5.6375,-5.6375,-5.6391,-5.6407,-5.6417,-5.6407,-5.6251,-5.5894,-5.5436,-5.4716,-5.4114,-5.3431,-5.3006,-5.252,-5.2056,-5.1648,-5.1609,-5.1472,-5.1394,-5.1394,-5.1394,-5.14,-5.1387,-5.1393,-5.1398,-5.1384,-5.1387,-5.1387,-5.1387,-5.1387,-6.1699,-6.1699,-6.1699,-6.1699,-6.1699,-6.1699,-6.168,-6.1699,-6.166,-6.1621,-6.1699,-6.168,-6.166,-6.1699,-6.1699,-6.1699,-6.1699,-6.1699,-6.1699,-6.1699,-6.1699,-6.1698,-6.1715,-6.171,-6.1702,-6.1711,-6.1705,-6.1698,-6.1698,-6.1698,-6.1698,-6.1698,-6.1698,-6.1698,-6.1698,-6.1698,-6.1698,-6.1698,-6.1679,-6.1291,-6.0627,-5.9846,-5.9356,-5.9297,-5.92,-5.9005,-5.8927,-5.9222,-5.9339,-5.9436,-5.9592,-5.9707,-5.9651,-5.9631,-5.9631,-5.9573,-5.9317,-5.8714,-5.8304,-5.807,-5.7855,-5.7445,-5.7192,-5.7153,-5.7092,-5.7153,-5.684,-5.6662,-5.6604,-5.6604,-5.6604,-5.6604,-5.6604,-5.6604,-5.6584,-5.6563,-5.6533,-5.6503,-5.6491,-5.6464,-5.6433,-5.6426,-5.6427,-5.6407,-5.6407,-5.6412,-5.6412,-5.6417,-5.6432,-5.6446,-5.6459,-5.6476,-5.6301,-5.6069,-5.5577,-5.514,-5.447,-5.391,-5.3344,-5.28,-5.2253,-5.1824,-5.1687,-5.157,-5.1394,-5.1394,-5.1402,-5.1389,-5.1395,-5.1401,-5.1386,-5.1387,-5.1387,-5.1387,-5.1387,-6.1699,-6.1699,-6.1699,-6.1699,-6.1699,-6.1699,-6.1699,-6.1699,-6.1699,-6.1699,-6.1699,-6.1699,-6.1699,-6.1699,-6.1699,-6.1699,-6.1699,-6.1699,-6.1699,-6.1699,-6.1698,-6.1716,-6.171,-6.1702,-6.1715,-6.1705,-6.1701,-6.1698,-6.1698,-6.1698,-6.1698,-6.1698,-6.1698,-6.1698,-6.1698,-6.1698,-6.1698,-6.1698,-6.1698,-6.164,-6.1386,-6.0646,-6.0315,-6.008,-5.969,-5.9356,-5.9512,-5.9924,-6.0237,-6.0315,-6.0959,-6.1308,-6.1405,-6.1386,-6.1386,-6.0937,-6.0117,-5.9063,-5.8987,-5.8948,-5.8831,-5.8536,-5.8575,-5.8753,-5.8421,-5.7953,-5.7426,-5.6643,-5.6701,-5.674,-5.6801,-5.6682,-5.6643,-5.6604,-5.6604,-5.6604,-5.658,-5.6536,-5.6525,-5.6497,-5.6468,-5.6469,-5.6468,-5.645,-5.6432,-5.6441,-5.6465,-5.647,-5.6459,-5.6472,-5.6469,-5.6487,-5.6498,-5.6299,-5.6194,-5.5777,-5.5272,-5.4693,-5.4186,-5.3561,-5.2936,-5.239,-5.1999,-5.1843,-5.1629,-5.1414,-5.1398,-5.1387,-5.1395,-5.1402,-5.1386,-5.1387,-5.1387,-5.1387,-5.1387,-6.1699,-6.1699,-6.1699,-6.1699,-6.1699,-6.1699,-6.1699,-6.1699,-6.1699,-6.1699,-6.1699,-6.1699,-6.1699,-6.1699,-6.1699,-6.1699,-6.1699,-6.1699,-6.1699,-6.1698,-6.1717,-6.1713,-6.1705,-6.1699,-6.1711,-6.1703,-6.1698,-6.1698,-6.1698,-6.1698,-6.1698,-6.1698,-6.1698,-6.1698,-6.1698,-6.1698,-6.1698,-6.1698,-6.1698,-6.1698,-6.1601,-6.1347,-6.1113,-6.1113,-6.0705,-6.0529,-6.0605,-6.0839,-6.1134,-6.1193,-6.1581,-6.1679,-6.1698,-6.1679,-6.1679,-6.162,-6.1074,-6.0412,-5.9944,-5.9846,-5.9612,-5.9239,-5.9161,-5.9044,-5.9024,-5.8792,-5.8441,-5.8089,-5.8029,-5.7794,-5.7387,-5.7289,-5.6977,-5.684,-5.6877,-5.6721,-5.6701,-5.6602,-5.6555,-5.6528,-5.65,-5.6504,-5.6507,-5.6476,-5.6465,-5.6461,-5.6469,-5.6473,-5.6476,-5.6484,-5.6478,-5.6494,-5.65,-5.647,-5.6438,-5.625,-5.5782,-5.5298,-5.5044,-5.4381,-5.362,-5.3073,-5.2722,-5.2195,-5.1804,-5.1609,-5.1474,-5.1387,-5.1396,-5.1402,-5.1385,-5.1387,-5.1387,-5.1387,-5.1387,-6.1699,-6.1699,-6.1699,-6.1699,-6.1699,-6.1699,-6.1699,-6.1699,-6.1699,-6.1699,-6.1699,-6.1699,-6.1699,-6.1699,-6.1699,-6.1699,-6.1699,-6.1699,-6.1698,-6.1717,-6.1714,-6.1709,-6.1701,-6.1715,-6.1707,-6.1698,-6.1698,-6.1698,-6.1698,-6.1698,-6.1698,-6.1698,-6.1698,-6.1698,-6.1698,-6.1698,-6.1698,-6.1698,-6.1698,-6.1698,-6.1679,-6.1698,-6.1659,-6.1679,-6.1698,-6.1698,-6.1698,-6.1659,-6.1659,-6.1659,-6.1659,-6.1698,-6.1698,-6.1698,-6.1698,-6.1698,-6.1464,-6.1271,-6.0881,-6.0666,-6.0354,-6.0,-5.9707,-5.9902,-5.9514,-5.9417,-5.92,-5.8929,-5.8907,-5.8616,-5.8324,-5.8128,-5.7933,-5.7658,-5.7443,-5.7172,-5.6955,-5.6975,-5.6797,-5.6558,-5.6533,-5.6531,-5.6539,-5.6517,-5.6511,-5.6485,-5.6485,-5.6485,-5.6488,-5.6508,-5.6517,-5.6528,-5.6533,-5.6555,-5.656,-5.6428,-5.6059,-5.5884,-5.565,-5.522,-5.4459,-5.3971,-5.362,-5.2995,-5.2292,-5.2038,-5.2021,-5.1701,-5.1397,-5.1401,-5.1384,-5.1386,-5.1387,-5.1387,-5.1387,-6.1699,-6.1699,-6.1699,-6.1699,-6.1699,-6.1699,-6.1699,-6.1699,-6.1699,-6.1699,-6.1699,-6.1699,-6.1699,-6.1699,-6.1699,-6.1699,-6.1699,-6.1698,-6.1716,-6.1713,-6.1708,-6.1701,-6.1713,-6.1707,-6.1701,-6.1701,-6.1698,-6.1698,-6.1698,-6.1698,-6.1698,-6.1698,-6.1698,-6.1698,-6.1698,-6.1698,-6.1698,-6.1698,-6.1698,-6.1698,-6.1698,-6.1698,-6.1698,-6.1698,-6.1698,-6.1698,-6.1698,-6.1698,-6.1698,-6.1698,-6.1698,-6.1703,-6.1703,-6.1703,-6.1703,-6.1705,-6.1705,-6.1568,-6.1432,-6.1408,-6.1522,-6.1483,-6.131,-6.0905,-6.038,-6.0317,-5.9963,-5.9497,-5.9638,-5.9343,-5.9107,-5.8968,-5.8872,-5.8521,-5.8228,-5.807,-5.7816,-5.7523,-5.7306,-5.6779,-5.6582,-5.6577,-5.6577,-5.6553,-5.6548,-5.6539,-5.6517,-5.652,-5.6523,-5.6525,-5.6553,-5.6577,-5.6582,-5.6604,-5.6604,-5.645,-5.6313,-5.6294,-5.6177,-5.5825,-5.5318,-5.4908,-5.4342,-5.3893,-5.3249,-5.2897,-5.2489,-5.2108,-5.1762,-5.1496,-5.1402,-5.1386,-5.1387,-5.1387,-5.1387,-6.1699,-6.1699,-6.1699,-6.1699,-6.1699,-6.1699,-6.1699,-6.1699,-6.1699,-6.1699,-6.1699,-6.1699,-6.1699,-6.1699,-6.1698,-6.1698,-6.1718,-6.1715,-6.1711,-6.1708,-6.1701,-6.1713,-6.1707,-6.1703,-6.1698,-6.1698,-6.1698,-6.1698,-6.1698,-6.1698,-6.1698,-6.1698,-6.1698,-6.1698,-6.1698,-6.1698,-6.1698,-6.1698,-6.1698,-6.1698,-6.1698,-6.1698,-6.1698,-6.1698,-6.1698,-6.1698,-6.1698,-6.1698,-6.1698,-6.1701,-6.1701,-6.1705,-6.1709,-6.1711,-6.1713,-6.1717,-6.1717,-6.1717,-6.1715,-6.1709,-6.1703,-6.1711,-6.1657,-6.1523,-6.1112,-6.1172,-6.1076,-6.0803,-6.0586,-6.035,-5.9944,-5.986,-5.972,-5.9328,-5.9091,-5.899,-5.8695,-5.8384,-5.7797,-5.7289,-5.6838,-5.6604,-5.6604,-5.6604,-5.6599,-5.6575,-5.6553,-5.6553,-5.6555,-5.6555,-5.658,-5.6582,-5.6604,-5.6604,-5.6604,-5.6604,-5.6604,-5.6604,-5.6604,-5.6294,-5.5864,-5.5398,-5.489,-5.4517,-5.4108,-5.3561,-5.3036,-5.2511,-5.2051,-5.1611,-5.1421,-5.1386,-5.1387,-5.1387,-5.1387,-6.1465,-6.1699,-6.1699,-6.1699,-6.1699,-6.1699,-6.1699,-6.1699,-6.1699,-6.1699,-6.1699,-6.1699,-6.1699,-6.1699,-6.1718,-6.1716,-6.1714,-6.1709,-6.1704,-6.1699,-6.1713,-6.1707,-6.1703,-6.1698,-6.1698,-6.1698,-6.1698,-6.1698,-6.1698,-6.1698,-6.1698,-6.1698,-6.1698,-6.1698,-6.1698,-6.1698,-6.1698,-6.1698,-6.1698,-6.1698,-6.1698,-6.1698,-6.1698,-6.1698,-6.1698,-6.1698,-6.1698,-6.1701,-6.1703,-6.1705,-6.1707,-6.1711,-6.1697,-6.1702,-6.1704,-6.1707,-6.1709,-6.1709,-6.1707,-6.1701,-6.1713,-6.1701,-6.1704,-6.1707,-6.1709,-6.1709,-6.1492,-6.1571,-6.1571,-6.1436,-6.0773,-6.0767,-6.0686,-6.0373,-6.0288,-6.0148,-5.9616,-5.9206,-5.8463,-5.7797,-5.7387,-5.6977,-5.6626,-5.6626,-5.6604,-5.6599,-5.658,-5.658,-5.658,-5.6602,-5.6602,-5.6604,-5.6604,-5.6604,-5.6604,-5.6604,-5.6604,-5.6604,-5.6604,-5.6604,-5.6255,-5.5825,-5.563,-5.5513,-5.5025,-5.4225,-5.3758,-5.3448,-5.2558,-5.1592,-5.152,-5.1504,-5.1387,-5.1387,-5.1387,-6.0898,-6.168,-6.1621,-6.1621,-6.1543,-6.168,-6.166,-6.1699,-6.1699,-6.1699,-6.1699,-6.1699,-6.1699,-6.1717,-6.1716,-6.1713,-6.1708,-6.1702,-6.1717,-6.1713,-6.1707,-6.1701,-6.1701,-6.1698,-6.1698,-6.1698,-6.1698,-6.1698,-6.1698,-6.1698,-6.1698,-6.1698,-6.1698,-6.1698,-6.1698,-6.1698,-6.1698,-6.1698,-6.1698,-6.1698,-6.1698,-6.1698,-6.1698,-6.1698,-6.1698,-6.1698,-6.1698,-6.1703,-6.1707,-6.1713,-6.1715,-6.1702,-6.1708,-6.1709,-6.1709,-6.171,-6.171,-6.171,-6.1709,-6.1709,-6.1709,-6.1709,-6.1711,-6.1711,-6.171,-6.171,-6.1711,-6.1713,-6.1692,-6.1691,-6.1592,-6.1573,-6.1416,-6.1316,-6.1195,-6.1014,-6.0466,-5.9917,-5.9175,-5.8648,-5.8096,-5.7523,-5.6977,-5.6645,-5.6626,-5.6604,-5.6604,-5.6604,-5.6604,-5.6604,-5.6604,-5.6604,-5.6604,-5.6604,-5.6604,-5.6604,-5.6604,-5.6604,-5.6604,-5.6604,-5.6604,-5.6352,-5.6294,-5.6391,-5.5903,-5.5103,-5.4752,-5.4478,-5.3398,-5.2374,-5.1775,-5.1621,-5.1484,-5.1387,-5.1406,-5.9765,-6.0039,-6.0039,-6.0039,-6.0117,-6.0625,-6.1133,-6.164,-6.1699,-6.1699,-6.1698,-6.1698,-6.1716,-6.1712,-6.1708,-6.1705,-6.1701,-6.1711,-6.1705,-6.1705,-6.1701,-6.1701,-6.1698,-6.1698,-6.1698,-6.1698,-6.1698,-6.1698,-6.1698,-6.1698,-6.1698,-6.1698,-6.1698,-6.1698,-6.1698,-6.1698,-6.1698,-6.1698,-6.1698,-6.1698,-6.1698,-6.1698,-6.1698,-6.1698,-6.1698,-6.1701,-6.1701,-6.1707,-6.1713,-6.1701,-6.1702,-6.1709,-6.1713,-6.1715,-6.1716,-6.1699,-6.1699,-6.1718,-6.1717,-6.1717,-6.1717,-6.1716,-6.1716,-6.1699,-6.1699,-6.1699,-6.1717,-6.1699,-6.1699,-6.1699,-6.1679,-6.1677,-6.1578,-6.1597,-6.1515,-6.1511,-6.112,-6.0553,-5.9967,-5.9655,-5.9184,-5.832,-5.7652,-5.7063,-5.6905,-5.6727,-5.6708,-5.6626,-5.6606,-5.6604,-5.6604,-5.6604,-5.6604,-5.6604,-5.6604,-5.6604,-5.6604,-5.6604,-5.6604,-5.6604,-5.6604,-5.6604,-5.6584,-5.6489,-5.6274,-5.6001,-5.5493,-5.4912,-5.4102,-5.3273,-5.2809,-5.2168,-5.1855,-5.1641,-5.1406,-5.8926,-5.918,-5.9199,-5.9199,-5.9277,-5.9765,-6.0469,-6.1172,-6.1269,-6.1406,-6.1639,-6.1716,-6.1712,-6.1705,-6.1701,-6.1713,-6.1711,-6.1703,-6.1698,-6.1698,-6.1698,-6.1698,-6.1698,-6.1698,-6.1698,-6.1698,-6.1698,-6.1698,-6.1698,-6.1698,-6.1698,-6.1698,-6.1698,-6.1698,-6.1698,-6.1698,-6.1698,-6.1698,-6.1698,-6.1698,-6.1698,-6.1698,-6.1698,-6.1698,-6.1701,-6.1701,-6.1707,-6.1713,-6.1701,-6.1705,-6.171,-6.1714,-6.1717,-6.1699,-6.1699,-6.1699,-6.1699,-6.1699,-6.1699,-6.1699,-6.1699,-6.1698,-6.1699,-6.1699,-6.1699,-6.1699,-6.1699,-6.1699,-6.1699,-6.1699,-6.1699,-6.1699,-6.1699,-6.1699,-6.1696,-6.1674,-6.1555,-6.0969,-6.0635,-6.0343,-5.9953,-5.911,-5.8365,-5.7718,-5.7246,-5.7029,-5.6813,-5.6749,-5.6667,-5.6626,-5.6606,-5.6604,-5.6604,-5.6604,-5.6604,-5.6604,-5.6604,-5.6604,-5.6604,-5.6604,-5.6604,-5.6604,-5.6604,-5.6604,-5.645,-5.6216,-5.5886,-5.5324,-5.4864,-5.4461,-5.4076,-5.334,-5.2461,-5.2187,-5.2051,-5.8359,-5.9062,-5.9121,-5.9043,-5.9062,-5.9004,-5.9512,-6.0351,-6.0429,-6.0916,-6.1677,-6.171,-6.1705,-6.1699,-6.1717,-6.1711,-6.1703,-6.1701,-6.1698,-6.1698,-6.1698,-6.1698,-6.1698,-6.1698,-6.1698,-6.1698,-6.1698,-6.1698,-6.1698,-6.1698,-6.1698,-6.1698,-6.1698,-6.1698,-6.1698,-6.1698,-6.1698,-6.1698,-6.1698,-6.1698,-6.1698,-6.1698,-6.1698,-6.1701,-6.1701,-6.1707,-6.1713,-6.1701,-6.1708,-6.1713,-6.1716,-6.1698,-6.1699,-6.1699,-6.1699,-6.1699,-6.1699,-6.1699,-6.1699,-6.1699,-6.1699,-6.1699,-6.1699,-6.1699,-6.1699,-6.1699,-6.1699,-6.1699,-6.1699,-6.1699,-6.1699,-6.1699,-6.1699,-6.1699,-6.1699,-6.1697,-6.1697,-6.1422,-6.1127,-6.0814,-6.0443,-5.9816,-5.9191,-5.8544,-5.7898,-5.7701,-5.7485,-5.7091,-5.695,-5.663,-5.6628,-5.6604,-5.6604,-5.6604,-5.6604,-5.6604,-5.6604,-5.6604,-5.6604,-5.6604,-5.6604,-5.6606,-5.6604,-5.6604,-5.6604,-5.645,-5.6181,-5.6087,-5.6012,-5.561,-5.5151,-5.4355,-5.3437,-5.3379,-5.334,-5.7129,-5.7344,-5.7344,-5.7363,-5.7344,-5.7363,-5.8163,-5.951,-6.0115,-6.0894,-6.1705,-6.1702,-6.1715,-6.1705,-6.1705,-6.1703,-6.1701,-6.1698,-6.1698,-6.1698,-6.1698,-6.1698,-6.1698,-6.1698,-6.1698,-6.1698,-6.1698,-6.1698,-6.1698,-6.1698,-6.1698,-6.1698,-6.1698,-6.1698,-6.1698,-6.1698,-6.1698,-6.1698,-6.1698,-6.1698,-6.1698,-6.1698,-6.1698,-6.1701,-6.1707,-6.1713,-6.1699,-6.1709,-6.1714,-6.1716,-6.1698,-6.1699,-6.1699,-6.1699,-6.1699,-6.1699,-6.1699,-6.1699,-6.1699,-6.1699,-6.1699,-6.1699,-6.1699,-6.1699,-6.1699,-6.1699,-6.1699,-6.1699,-6.1699,-6.1699,-6.1699,-6.1699,-6.1699,-6.1699,-6.1699,-6.1699,-6.1699,-6.1621,-6.1367,-6.1248,-6.0896,-6.0543,-5.9918,-5.9291,-5.8703,-5.8508,-5.8175,-5.7704,-5.7192,-5.6855,-5.6634,-5.661,-5.6608,-5.6608,-5.6606,-5.6604,-5.6604,-5.6604,-5.6606,-5.6608,-5.661,-5.661,-5.6606,-5.6608,-5.661,-5.6614,-5.6557,-5.6483,-5.6388,-5.6456,-5.6032,-5.5233,-5.459,-5.4492,-5.4375,-5.6621,-5.6621,-5.6621,-5.6621,-5.6621,-5.662,-5.7419,-5.8707,-5.9545,-6.0379,-6.117,-6.1557,-6.1707,-6.1701,-6.1701,-6.1701,-6.1698,-6.1698,-6.1698,-6.1698,-6.1698,-6.1698,-6.1698,-6.1698,-6.1698,-6.1698,-6.1698,-6.1698,-6.1698,-6.1698,-6.1698,-6.1698,-6.1698,-6.1698,-6.1698,-6.1698,-6.1698,-6.1698,-6.1698,-6.1698,-6.1698,-6.1698,-6.1698,-6.1703,-6.1711,-6.1699,-6.1704,-6.1713,-6.1717,-6.1698,-6.1699,-6.1699,-6.1699,-6.1699,-6.1699,-6.1699,-6.1699,-6.1699,-6.1699,-6.1699,-6.1699,-6.1699,-6.1699,-6.1699,-6.1699,-6.1699,-6.1699,-6.1699,-6.1699,-6.1699,-6.1699,-6.1699,-6.1699,-6.1699,-6.1699,-6.1699,-6.1699,-6.1699,-6.166,-6.1601,-6.1386,-6.1093,-6.0584,-5.9961,-5.9548,-5.9392,-5.8943,-5.8278,-5.761,-5.6981,-5.674,-5.6616,-5.6614,-5.6612,-5.661,-5.6608,-5.661,-5.6612,-5.6614,-5.6614,-5.6614,-5.6618,-5.6619,-5.6619,-5.6619,-5.6603,-5.6605,-5.6606,-5.6571,-5.6616,-5.6619,-5.6054,-5.5566,-5.5527,-5.5371,-5.6621,-5.6621,-5.6621,-5.6621,-5.6621,-5.6619,-5.7065,-5.7861,-5.8772,-5.9626,-6.0503,-6.1334,-6.1701,-6.1698,-6.1698,-6.1698,-6.1698,-6.1698,-6.1698,-6.1698,-6.1698,-6.1698,-6.1698,-6.1698,-6.1698,-6.1698,-6.1698,-6.1698,-6.1698,-6.1698,-6.1698,-6.1698,-6.1698,-6.1698,-6.1698,-6.1698,-6.1698,-6.1698,-6.1698,-6.1698,-6.1698,-6.1698,-6.1701,-6.1701,-6.1711,-6.1702,-6.1709,-6.1714,-6.1698,-6.1699,-6.1699,-6.1699,-6.1699,-6.1699,-6.1699,-6.1699,-6.1699,-6.1699,-6.1699,-6.1699,-6.1699,-6.1699,-6.1699,-6.1699,-6.1699,-6.1699,-6.1699,-6.1699,-6.1699,-6.1699,-6.1699,-6.1699,-6.1699,-6.1699,-6.1699,-6.1699,-6.1699,-6.1699,-6.1699,-6.166,-6.1601,-6.1348,-6.1269,-6.0683,-6.0488,-6.0332,-5.9805,-5.9023,-5.834,-5.7558,-5.7002,-5.678,-5.6621,-5.6619,-5.6618,-5.6616,-5.6618,-5.6618,-5.6621,-5.6603,-5.6605,-5.6609,-5.6611,-5.6609,-5.6606,-5.661,-5.6612,-5.6613,-5.6614,-5.6618,-5.662,-5.662,-5.6465,-5.6289,-5.6172,-5.6621,-5.6621,-5.6621,-5.6621,-5.662,-5.6616,-5.6709,-5.7052,-5.8508,-5.9558,-6.0456,-6.1232,-6.1698,-6.1698,-6.1698,-6.1698,-6.1698,-6.1698,-6.1698,-6.1698,-6.1698,-6.1698,-6.1698,-6.1698,-6.1698,-6.1698,-6.1698,-6.1698,-6.1698,-6.1698,-6.1698,-6.1698,-6.1698,-6.1698,-6.1698,-6.1698,-6.1698,-6.1698,-6.1698,-6.1698,-6.1698,-6.1698,-6.1701,-6.1705,-6.1715,-6.1705,-6.1711,-6.1717,-6.1699,-6.1699,-6.1699,-6.1699,-6.1699,-6.1699,-6.1699,-6.1699,-6.1699,-6.1699,-6.1699,-6.1699,-6.1699,-6.1699,-6.1699,-6.1699,-6.1699,-6.1699,-6.1699,-6.1699,-6.1699,-6.1699,-6.1699,-6.1699,-6.1699,-6.1699,-6.1699,-6.1699,-6.1699,-6.1699,-6.1699,-6.1699,-6.1699,-6.168,-6.164,-6.1562,-6.1445,-6.1055,-6.0527,-5.9902,-5.9375,-5.8652,-5.7617,-5.7239,-5.6708,-5.6609,-5.6606,-5.6605,-5.6605,-5.6607,-5.661,-5.6611,-5.6612,-5.6614,-5.6615,-5.6613,-5.6611,-5.6615,-5.6617,-5.6618,-5.6619,-5.662,-5.6621,-5.6621,-5.6621,-5.6465,-5.6523,-5.6621,-5.6621,-5.6621,-5.6621,-5.6618,-5.6614,-5.6609,-5.6912,-5.8367,-5.9375,-6.0002,-6.1056,-6.1698,-6.1698,-6.1698,-6.1698,-6.1698,-6.1698,-6.1698,-6.1698,-6.1698,-6.1698,-6.1698,-6.1698,-6.1698,-6.1698,-6.1698,-6.1698,-6.1698,-6.1698,-6.1698,-6.1698,-6.1698,-6.1698,-6.1698,-6.1698,-6.1698,-6.1698,-6.1698,-6.1698,-6.1698,-6.1698,-6.1698,-6.1707,-6.1697,-6.1707,-6.1712,-6.1699,-6.1699,-6.1699,-6.1699,-6.1699,-6.1699,-6.1699,-6.1699,-6.1699,-6.1699,-6.1699,-6.1699,-6.1699,-6.1699,-6.1699,-6.1699,-6.1699,-6.1699,-6.1699,-6.1699,-6.1699,-6.1699,-6.1699,-6.1699,-6.1699,-6.1699,-6.1699,-6.1699,-6.1699,-6.1699,-6.1699,-6.1699,-6.1699,-6.1699,-6.1699,-6.168,-6.166,-6.1582,-6.1543,-6.1035,-6.0625,-6.0137,-5.9668,-5.8633,-5.7811,-5.7359,-5.6789,-5.661,-5.661,-5.6612,-5.6613,-5.6615,-5.6618,-5.6618,-5.6618,-5.6618,-5.6621,-5.6621,-5.6619,-5.662,-5.6621,-5.6621,-5.6621,-5.6621,-5.6621,-5.6621,-5.6621,-5.6621,-5.6621,-5.6621,-5.6621,-5.662,-5.6618,-5.6613,-5.6607,-5.6872,-5.8228,-5.889,-5.9183,-6.0744,-6.1464,-6.1698,-6.1698,-6.1698,-6.1698,-6.1698,-6.1698,-6.1698,-6.1698,-6.1698,-6.1698,-6.1698,-6.1698,-6.1698,-6.1698,-6.1698,-6.1698,-6.1698,-6.1698,-6.1698,-6.1698,-6.1698,-6.1698,-6.1698,-6.1698,-6.1698,-6.1698,-6.1698,-6.1698,-6.1698,-6.1698,-6.1707,-6.1699,-6.1708,-6.1712,-6.1699,-6.1699,-6.1699,-6.1699,-6.1699,-6.1699,-6.1699,-6.1699,-6.1699,-6.1699,-6.1699,-6.1699,-6.1699,-6.1699,-6.1699,-6.1699,-6.1699,-6.1699,-6.1699,-6.1699,-6.1699,-6.1699,-6.1699,-6.1699,-6.1699,-6.1699,-6.1699,-6.1699,-6.1699,-6.1699,-6.1699,-6.1699,-6.1699,-6.1699,-6.1699,-6.1699,-6.1699,-6.1699,-6.1699,-6.1543,-6.1172,-6.0762,-6.0273,-5.9551,-5.8808,-5.8241,-5.7653,-5.6992,-5.668,-5.6699,-5.6618,-5.6619,-5.662,-5.6621,-5.6621,-5.6621,-5.6621,-5.6621,-5.6621,-5.6621,-5.6621,-5.6621,-5.6621,-5.6621,-5.6621,-5.6621,-5.6621,-5.6621,-5.6621,-5.6621,-5.662,-5.6618,-5.6613,-5.6607,-5.6618,-5.6747,-5.7604,-5.805,-5.8538,-5.9827,-6.0959,-6.1679,-6.1698,-6.1698,-6.1698,-6.1698,-6.1698,-6.1698,-6.1698,-6.1698,-6.1698,-6.1698,-6.1698,-6.1698,-6.1698,-6.1698,-6.1698,-6.1698,-6.1698,-6.1698,-6.1698,-6.1698,-6.1698,-6.1698,-6.1698,-6.1698,-6.1698,-6.1698,-6.1698,-6.1698,-6.1698,-6.1709,-6.1701,-6.1707,-6.1712,-6.1717,-6.1699,-6.1699,-6.1699,-6.1699,-6.1699,-6.1699,-6.1699,-6.1699,-6.1699,-6.1699,-6.1699,-6.1699,-6.1699,-6.1699,-6.1699,-6.1699,-6.1699,-6.1699,-6.1699,-6.1699,-6.1699,-6.1699,-6.1699,-6.1699,-6.1699,-6.1699,-6.1699,-6.1699,-6.1699,-6.1699,-6.1699,-6.1699,-6.1699,-6.1699,-6.1699,-6.1699,-6.1699,-6.1699,-6.1699,-6.1387,-6.1289,-6.0859,-6.039,-5.9824,-5.918,-5.8476,-5.7812,-5.6992,-5.6816,-5.6699,-5.6621,-5.6621,-5.6621,-5.6621,-5.6621,-5.6621,-5.6621,-5.6621,-5.6621,-5.6621,-5.6621,-5.6621,-5.6621,-5.6621,-5.6621,-5.6621,-5.6621]},{"header":{"parameterUnit":"m.s-1","parameterCategory":1,"la1":31.0,"la2":29.5877,"lo1":-88.7671,"lo2":-86.6584,"dy":0.0162,"dx":0.0185,"nx":115,"ny":88,"refTime":"2023-04-02T12:00:00:Z","depth":0,"parameterNumber":3,"parameterNumberName":"V-component_of_WINDS"},"data":[0.0,0.0,0.0,0.0,0.0,0.0,0.0,0.0,0.0,0.0,0.0,0.0,0.0,0.0,0.0,0.0,0.0,0.0,0.0,0.0,0.0,0.0,0.0,0.0,0.0,0.0,0.0,0.0,0.0,0.0,0.0,0.0,0.0,0.0,0.0,0.0,0.0,0.0,0.0,0.0,0.0,0.0,0.0,0.0,0.0,0.0,0.0,0.0,0.0,0.0,0.0,0.0,0.0,0.0,0.0,0.0,0.0,0.0,0.0,0.0,0.0,0.0,0.0,0.0,0.0,0.0,0.0,0.0,0.0,0.0,0.0,0.0,0.0,0.0,0.0,0.0,0.0,0.0,0.0,0.0,0.0,0.0,0.0,0.0,0.0,0.0,0.0,0.0,0.0,0.0,0.0,0.0,0.0,0.0,0.0,0.0,0.0,0.0,0.0,0.0,0.0,0.0,0.0,0.0,0.0,0.0,0.0,0.0,0.0,0.0,0.0,0.0,0.0,0.0,0.0,0.0,0.0,0.0,0.0,0.0,0.0,0.0,0.0,0.0,0.0,0.0,0.0,0.0,0.0,0.0,0.0,0.0,0.0,0.0,0.0,0.0,0.0,0.0,0.0,0.0,0.0,0.0,0.0,0.0,0.0,0.0,0.0,0.0,0.0,0.0,0.0,0.0,0.0,0.0,0.0,0.0,0.0,0.0,0.0,0.0,0.0,0.0,0.0,0.0,0.0,0.0,0.0,0.0,0.0,0.0,0.0,0.0,0.0,0.0,0.0,0.0,0.0,0.0,0.0,0.0,0.0,0.0,0.0,0.0,0.0,0.0,0.0,0.0,0.0,0.0,0.0,0.0,0.0,0.0,0.0,0.0,0.0,0.0,0.0,0.0,0.0,0.0,0.0,0.0,0.0,0.0,0.0,0.0,0.0,0.0,0.0,0.0,0.0,0.0,0.0,0.0,0.0,0.0,0.0,0.0,0.0,0.0,0.0,0.0,0.0,0.0,0.0,0.0,0.0,0.0,0.0,0.0,0.0,0.0,0.0,0.0,0.0,0.0,0.0,0.0,0.0,0.0,0.0,0.0,0.0,0.0,0.0,0.0,0.0,0.0,0.0,0.0,0.0,0.0,0.0,0.0,0.0,0.0,0.0,0.0,0.0,0.0,0.0,0.0,0.0,0.0,0.0,0.0,0.0,0.0,0.0,0.0,0.0,0.0,0.0,0.0,0.0,0.0,0.0,0.0,0.0,0.0,0.0,0.0,0.0,0.0,0.0,0.0,0.0,0.0,0.0,0.0,0.0,0.0,0.0,0.0,0.0,0.0,0.0,0.0,0.0,0.0,0.0,0.0,0.0,0.0,0.0,0.0,0.0,0.0,0.0,0.0,0.0,0.0,0.0,0.0,0.0,0.0,0.0,0.0,0.0,0.0,0.0,0.0,0.0,0.0,0.0,0.0,0.0,0.0,0.0,0.0,0.0,0.0,0.0,0.0,0.0,0.0,0.0,0.0,0.0,0.0,0.0,0.0,0.0,0.0,0.0,0.0,0.0,0.0,0.0,0.0,0.0,0.0,0.0,0.0,0.0,0.0,0.0,0.0,0.0,0.0,0.0,0.0,0.0,0.0,0.0,0.0,0.0,0.0,0.0,0.0,0.0,0.0,0.0,0.0,0.0,0.0,0.0,0.0,0.0,0.0,0.0,0.0,0.0,0.0,0.0,0.0,0.0,0.0,0.0,0.0,0.0,0.0,0.0,0.0,0.0,0.0,0.0,0.0,0.0,0.0,0.0,0.0,0.0,0.0,0.0,0.0,0.0,0.0,0.0,0.0,0.0,0.0,0.0,0.0,0.0,0.0,0.0,0.0,0.0,0.0,0.0,0.0,0.0,0.0,0.0,0.0,0.0,0.0,0.0,0.0,0.0,0.0,0.0,0.0,0.0,0.0,0.0,0.0,0.0,0.0,0.0,0.0,0.0,0.0,0.0,0.0,0.0,0.0,0.0,0.0,0.0,0.0,0.0,0.0,0.0,0.0,0.0,0.0,0.0,0.0,0.0,0.0,0.0,0.0,0.0,0.0,0.0,0.0,0.0,0.0,0.0,0.0,0.0,0.0,0.0,0.0,0.0,0.0,0.0,0.0,0.0,0.0,0.0,0.0,0.0,0.0,0.0,0.0,0.0,0.0,0.0,0.0,0.0,0.0,0.0,0.0,0.0,0.0,0.0,0.0,0.0,0.0,0.0,0.0,0.0,0.0,0.0,0.0,0.0,0.0,0.0,0.0,0.0,0.0,0.0,0.0,0.0,0.0,0.0,0.0,0.0,0.0,0.0,0.0,0.0,0.0,0.0,0.0,0.0,0.0,0.0,0.0,0.0,0.0,0.0,0.0,0.0,0.0,0.0,0.0,0.0,0.0,0.0,0.0,0.0,0.0,0.0,0.0,0.0,0.0,0.0,0.0,0.0,0.0,0.0,0.0,0.0,0.0,0.0,0.0,0.0,0.0,0.0,0.0,0.0,0.0,0.0,0.0,0.0,0.0,0.0,0.0,0.0,0.0,0.0,0.0,0.0,0.0,0.0,0.0,0.0,0.0,0.0,0.0,0.0,0.0,0.0,0.0,0.0,0.0,0.0,0.0,0.0,0.0,0.0,0.0,0.0,0.0,0.0,0.0,0.0,0.0,0.0,0.0,0.0,0.0,0.0,0.0,0.0,0.0,0.0,0.0,0.0,0.0,0.0,0.0,0.0,0.0,0.0,0.0,0.0,0.0,0.0,0.0,0.0,0.0,0.0,0.0,0.0,0.0,0.0,0.0,0.0,0.0,0.0,0.0,0.0,0.0,0.0,0.0,0.0,0.0,0.0,0.0,0.0,0.0,0.0,0.0,0.0,0.0,0.0,0.0,0.0,0.0,0.0,0.0,0.0,0.0,0.0,0.0,0.0,0.0,0.0,0.0,0.0,0.0,0.0,0.0,0.0,0.0,0.0,0.0,0.0,0.0,0.0,0.0,0.0,0.0,0.0,0.0,0.0,0.0,0.0,0.0,0.0,0.0,0.0,0.0,0.0,0.0,0.0,0.0,0.0,0.0,0.0,0.0,0.0,0.0,0.0,0.0,0.0,0.0,0.0,0.0,0.0,0.0,0.0,0.0,0.0,0.0,0.0,0.0,0.0,0.0,0.0,0.0,0.0,0.0,0.0,0.0,0.0,0.0,0.0,0.0,0.0,0.0,0.0,0.0,0.0,0.0,0.0,0.0,0.0,0.0,0.0,0.0,0.0,0.0,0.0,0.0,0.0,0.0,0.0,0.0,0.0,0.0,0.0,0.0,0.0,0.0,0.0,0.0,0.0,0.0,0.0,0.0,0.0,0.0,0.0,0.0,0.0,0.0,0.0,0.0,0.0,0.0,0.0,0.0,0.0,0.0,0.0,0.0,0.0,0.0,0.0,0.0,0.0,0.0,0.0,0.0,0.0,0.0,0.0,0.0,0.0,0.0,0.0,0.0,0.0,0.0,0.0,0.0,0.0,0.0,0.0,0.0,0.0,0.0,0.0,0.0,0.0,0.0,0.0,0.0,0.0,0.0,0.0,0.0,0.0,0.0,0.0,0.0,0.0,0.0,0.0,0.0,0.0,0.0,0.0,0.0,0.0,0.0,0.0,0.0,0.0,0.0,0.0,0.0,0.0,0.0,0.0,0.0,0.0,0.0,0.0,0.0,0.0,0.0,0.0,0.0,0.0,0.0,0.0,0.0,0.0,0.0,0.0,0.0,0.0,0.0,0.0,0.0,0.0,0.0,0.0,0.0,0.0,0.0,0.0,0.0,0.0,0.0,0.0,0.0,0.0,0.0,0.0,0.0,0.0,0.0,0.0,0.0,0.0,0.0,0.0,0.0,0.0,0.0,0.0,0.0,0.0,0.0,0.0,0.0,0.0,0.0,0.0,0.0,0.0,0.0,0.0,0.0,0.0,0.0,0.0,0.0,0.0,0.0,0.0,0.0,0.0,0.0,0.0,0.0,0.0,0.0,0.0,0.0,0.0,0.0,0.0,0.0,0.0,0.0,0.0,0.0,0.0,0.0,0.0,0.0,0.0,0.0,0.0,0.0,0.0,0.0,0.0,0.0,0.0,0.0,0.0,0.0,0.0,0.0,0.0,0.0,0.0,0.0,0.0,0.0,0.0,0.0,0.0,0.0,0.0,0.0,0.0,0.0,0.0,0.0,0.0,0.0,0.0,0.0,0.0,0.0,0.0,0.0,0.0,0.0,0.0,0.0,0.0,0.0,0.0668,0.0,0.0,0.0,0.0,0.0,0.0,0.0,0.0,0.0,0.0,0.0,0.0,0.0,0.0,0.0,0.0,0.0,0.0,0.0,0.0,0.0,0.0,0.0,0.0,0.0,0.0,0.0,0.0,0.0,0.0,0.0,0.0,0.0,0.0,0.0,0.0,0.0,0.0,0.0,0.0,0.0,0.0,0.0,0.0,0.0,0.0,0.0,0.0,0.0,0.0,0.0,0.0,0.0,0.0,0.0,0.0,0.0,0.0,0.0,0.0,0.0,0.0,0.0,0.0,0.0,0.0,0.0,0.0,0.0,0.0,0.0,0.0,0.0,0.0,0.0,0.0,0.0,0.0,0.0,0.0,0.0,0.0,0.0,0.0,0.0,0.0,0.0,0.0,0.0,0.0,0.0,0.0,0.0,0.0,0.0,0.0,0.0,0.0,0.0,0.0,0.0,0.0,0.0,0.0,0.0,0.0,0.0,0.0,0.0,0.0,0.1311,0.1297,0.1297,0.11,0.0589,0.0,0.0,0.0,0.0,0.0,0.0,0.0,0.0,0.0,0.0,0.0,0.0,0.0,0.0,0.0,0.0,0.0,0.0,0.0,0.0,0.0,0.0,0.0,0.0,0.0,0.0,0.0,0.0,0.0,0.0,0.0,0.0,0.0,0.0,0.0,0.0,0.0,0.0,0.0,0.0,0.0,0.0,0.0,0.0,0.0,0.0,0.0,0.0,0.0,0.0,0.0,0.0,0.0,0.0,0.0,0.0,0.0,0.0,0.0,0.0,0.0,0.0,0.0,0.0,0.0,0.0,0.0,0.0,0.0,0.0,0.0,0.0,0.0,0.0,0.0,0.0,0.0,0.0,0.0,0.0,0.0,0.0,0.0,0.0,0.0,0.0,0.0,0.0,0.0,0.0,0.0,0.0,0.0,0.0,0.0,0.0,0.0,0.0,0.0,0.0,0.0,0.0,0.0,0.0,0.0,0.0,0.0,0.0,0.0,0.0,0.0,0.0,0.1297,0.1061,0.0589,0.0,0.0,0.0,0.0,0.0,0.0,0.0,0.0,0.0,0.0,0.0,0.0,0.0,0.0,0.0,0.0,0.0,0.0,0.0,0.0,0.0,0.0,0.0,0.0,0.0,0.0,0.0,0.0,0.0,0.0,0.0,0.0,0.0,0.0,0.0,0.0,0.0,0.0,0.0,0.0,0.0,0.0,0.0,0.0,0.0,0.0,0.0,0.0,0.0,0.0,0.0,0.0,0.0,0.0,0.0,0.0,0.0,0.0,0.0,0.0,0.0,0.0,0.0,0.0,0.0,0.0,0.0,0.0,0.0,0.0,0.0,0.0,0.0,0.0,0.0,0.0,0.0,0.0,0.0,0.0,0.0,0.0,0.0,0.0,0.0,0.0,0.0,0.0,0.0,0.0,0.0,0.0,0.0,0.0,0.0,0.0,0.0,0.0,0.0,0.0,0.0,0.0,0.0,0.0,0.0,0.0,0.0,0.0,0.0,0.0,0.1297,0.1297,0.1297,0.0,0.0589,0.0,0.0,0.0,0.0,0.0,0.0,0.0,0.0,0.0,0.0,0.0,0.0,0.0,0.0,0.0,0.0,0.0,0.0,0.0,0.0,0.0,0.0,0.0,0.0,0.0,0.0,0.0,0.0,0.0,0.0,0.0,0.0,0.0,0.0,0.0,0.0,0.0,0.0,0.0,0.0,0.0,0.0,0.0,0.0,0.0,0.0,0.0,0.0,0.0,0.0,0.0,0.0,0.0,0.0,0.0,0.0,0.0,0.0,0.0,0.0,0.0,0.0,0.0,0.0,0.0,0.0,0.0,0.0,0.0,0.0,0.0,0.0,0.0,0.0,0.0,0.0,0.0,0.0,0.0,0.0,0.0,0.0,0.0,0.0,0.0,0.0,0.0,0.0,0.0,0.0,0.0,0.0,0.0,0.0,0.0,0.0,0.0,0.0,0.0,0.0,0.0,0.0,0.0,0.0,0.0,0.0,0.0,0.0,0.0,0.0,0.1297,0.1297,0.1022,0.0786,0.0,0.0,0.0,0.0,0.0,0.0,0.0,0.0,0.0,0.0,0.0,0.0,0.0,0.0,0.0,0.0,0.0,0.0,0.0,0.0,0.0,0.0,0.0,0.0,0.0,0.0,0.0,0.0,0.0,0.0,0.0,0.0,0.0,0.0,0.0,0.0,0.0,0.0,0.0,0.0,0.0,0.0,0.0,0.0,0.0,0.0,0.0,0.0,0.0,0.0,0.0,0.0,0.0,0.0,0.0,0.0,0.0,0.0,0.0,0.0,0.0,0.0,0.0,0.0,0.0,0.0,0.0,0.0,0.0,0.0,0.0,0.0,0.0,0.0,0.0,0.0,0.0,0.0,0.0,0.0,0.0,0.0,0.0,0.0,0.0,0.0,0.0,0.0,0.0,0.0,0.0,0.0,0.0,0.0,0.0,0.0,0.0,0.0,0.0,0.0,0.0,0.0,0.0,0.0,0.0,0.0,0.0,0.0,0.0,0.0,0.1308,0.1297,0.1297,0.0825,0.0629,0.0629,0.0,0.0,0.0,0.0,0.0,0.0,0.0,0.0,0.0,0.0,0.0,0.0,0.0,0.0,0.0,0.0,0.0,0.0,0.0,0.0,0.0,0.0,0.0,0.0,0.0,0.0,0.0,0.0,0.0,0.0,0.0,0.0,0.0,0.0,0.0,0.0,0.0,0.0,0.0,0.0,0.0,0.0,0.0,0.0,0.0,0.0,0.0,0.0,0.0,0.0,0.0,0.0,0.0,0.0,0.0,0.0,0.0,0.0,0.0,0.0,0.0,0.0,0.0,0.0,0.0,0.0,0.0,0.0,0.0,0.0,0.0,0.0,0.0,0.0,0.0,0.0,0.0,0.0,0.0,0.0,0.0,0.0,0.0,0.0,0.0,0.0,0.0,0.0,0.0,0.0,0.0,0.0,0.0,0.0,0.0,0.0,0.0,0.0,0.0,0.0,0.0,0.0,0.0,0.0,0.0,0.0,0.0,0.0,0.13,0.1298,0.1297,0.1297,0.0825,0.0629,0.0,0.0,0.0,0.0,0.0,0.0,0.0,0.0,0.0,0.0,0.0,0.0,0.0,0.0,0.0,0.0,0.0,0.0,0.0,0.0,0.0,0.0,0.0,0.0,0.0,0.0,0.0,0.0,0.0,0.0,0.0,0.0,0.0,0.0,0.0,0.0,0.0,0.0,0.0,0.0,0.0,0.0,0.0,0.0,0.0,0.0,0.0,0.0,0.0,0.0,0.0,0.0,0.0,0.0,0.0,0.0,0.0,0.0,0.0,0.0,0.0,0.0,0.0,0.0,0.0,0.0,0.0,0.0,0.0,0.0,0.0,0.0,0.0,0.0,0.0,0.0,0.0,0.0,0.0,0.0,0.0,0.0,0.0,0.0,0.0,0.0,0.0,0.0,0.0,0.0,0.0,0.0,0.0,0.0,0.0,0.0,0.0,0.0,0.0,0.0,0.0,0.0,0.0,0.0,0.0,0.0,0.0,0.0,0.0,0.1298,0.1297,0.1297,0.1297,0.0943,0.0746,0.0,0.0,0.0,0.0,0.0,0.0,0.0,0.0,0.0,0.0,0.0,0.0,0.0,0.0,0.0,0.0,0.0,0.0,0.0,0.0,0.0,0.0,0.0,0.0,0.0,0.0,0.0,0.0,0.0,0.0,0.0,0.0,0.0,0.0,0.0,0.0,0.0,0.0,0.0,0.0,0.0,0.0,0.0,0.0,0.0,0.0,0.0,0.0,0.0,0.0,0.0,0.0,0.0,0.0,0.0,0.0,0.0,0.0,0.0,0.0,0.0,0.0,0.0,0.0,0.0,0.0,0.0,0.0,0.0,0.0,0.0,0.0,0.0,0.0,0.0,0.0,0.0,0.0,0.0,0.0,0.0,0.0,0.0,0.0,0.0,0.0,0.0,0.0,0.0,0.0,0.0,0.0,0.0,0.0,0.0,0.0,0.0,0.0,0.0,0.0,0.0,0.0,0.0,0.0,0.0,0.0,0.0,0.0,0.0,0.1297,0.0,0.1297,0.1297,0.1061,0.0825,0.0,0.0,0.0,0.0,0.0,0.0,0.0,0.0,0.0,0.0,0.0,0.0,0.0,0.0,0.0,0.0,0.0,0.0,0.0,0.0,0.0,0.0,0.0,0.0,0.0,0.0,0.0,0.0,0.0,0.0,0.0,0.0,0.0,0.0,0.0,0.0,0.0,0.0,0.0,0.0,0.0,0.0,0.0,0.0,0.0,0.0,0.0,0.0,0.0,0.0,0.0,0.0,0.0,0.0,0.0,0.0,0.0,0.0,0.0,0.0,0.0,0.0,0.0,0.0,0.0,0.0,0.0,0.0,0.0,0.0,0.0,0.0,0.0,0.0,0.0,0.0,0.0,0.0,0.0,0.0,0.0,0.0,0.0,0.0,0.0,0.0,0.0,0.0,0.0,0.0,0.0,0.0,0.0,0.0,0.0,0.0,0.0,0.0,0.0,0.0,0.0,0.0,0.0,0.0,0.0,0.0,0.0,0.0,0.0826,0.1298,0.1298,0.13,0.1298,0.1062,0.0786,0.0,0.0,0.0,0.0,0.0,0.0,0.0,0.0,0.0,0.0,0.0,0.0,0.0,0.0,0.0,0.0,0.0,0.0,0.0,0.0,0.0,0.0,0.0,0.0,0.0,0.0,0.0,0.0,0.0,0.0,0.0,0.0,0.0,0.0,0.0,0.0,0.0,0.0,0.0,0.0,0.0,0.0,0.0,0.0,0.0,0.0,0.0,0.0,0.0,0.0,0.0,0.0,0.0,0.0,0.0,0.0,0.0,0.0,0.0,0.0,0.0,0.0,0.0,0.0,0.0,0.0,0.0,0.0,0.0,0.0,0.0,0.0,0.0,0.0,0.0,0.0,0.0,0.0,0.0,0.0,0.0,0.0,0.0,0.0,0.0,0.0,0.0,0.0,0.0,0.0,0.0,0.0,0.0,0.0,0.0,0.0,0.0,0.0,0.0,0.0,0.0,0.0,0.0,0.0,0.0,0.0,0.0,0.0,0.0,0.1289,0.1309,0.131,0.129,0.1208,0.0999,0.0,0.0,0.0,0.0,0.0,0.0,0.0,0.0,0.0,0.0,0.0,0.0,0.0,0.0,0.0,0.0,0.0,0.0,0.0,0.0,0.0,0.0,0.0,0.0,0.0,0.0,0.0,0.0,0.0,0.0,0.0,0.0,0.0,0.0,0.0,0.0,0.0,0.0,0.0,0.0,0.0,0.0,0.0,0.0,0.0,0.0,0.0,0.0,0.0,0.0,0.0,0.0,0.0,0.0,0.0,0.0,0.0,0.0,0.0,0.0,0.0,0.0,0.0,0.0,0.0,0.0,0.0,0.0,0.0,0.0,0.0,0.0,0.0,0.0,0.0,0.0,0.0,0.0,0.0,0.0,0.0,0.0,0.0,0.0,0.0,0.0,0.0,0.0,0.0,0.0,0.0,0.0,0.0,0.0,0.0,0.0,0.0,0.0,0.0,0.0,0.0,0.0,0.0,0.0,0.0,0.0,0.0,0.0,0.0,0.1086,0.1218,0.1298,0.132,0.1308,0.1092,0.0677,0.0,0.0,0.0,0.0,0.0,0.0,0.0,0.0,0.0,0.0,0.0,0.0,0.0,0.0,0.0,0.0,0.0,0.0,0.0,0.0,0.0,0.0,0.0,0.0,0.0,0.0,0.0,0.0,0.0,0.0,0.0,0.0,0.0,0.0,0.0,0.0,0.0,0.0,0.0,0.0,0.0,0.0,0.0,0.0,0.0,0.0,0.0,0.0,0.0,0.0,0.0,0.0,0.0,0.0,0.0,0.0,0.0,0.0,0.0,0.0,0.0,0.0,0.0,0.0,0.0,0.0,0.0,0.0,0.0,0.0,0.0,0.0,0.0,0.0,0.0,0.0,0.0,0.0,0.0,0.0,0.0,0.0,0.0,0.0,0.0,0.0,0.0,0.0,0.0,0.0,0.0,0.0,0.0,0.0,0.0,0.0,0.0,0.0,0.0,0.0,0.0,0.0,0.0,0.0,0.0,0.0,0.0,0.0,0.0696,0.1067,0.1267,0.1266,0.1282,0.1102,0.0,0.0,0.0,0.0,0.0,0.0,0.0,0.0,0.0,0.0,0.0,0.0,0.0,0.0,0.0,0.0,0.0,0.0,0.0,0.0,0.0,0.0,0.0,0.0,0.0,0.0,0.0,0.0,0.0,0.0,0.0,0.0,0.0,0.0,0.0,0.0,0.0,0.0,0.0,0.0,0.0,0.0,0.0,0.0,0.0,0.0,0.0,0.0,0.0,0.0,0.0,0.0,0.0,0.0,0.0,0.0,0.0,0.0,0.0,0.0,0.0,0.0,0.0,0.0,0.0,0.0,0.0,0.0,0.0,0.0,0.0,0.0,0.0,0.0,0.0,0.0,0.0,0.0,0.0,0.0,0.0,0.0,0.0,0.0,0.0,0.0,0.0,0.0,0.0,0.0,0.0,0.0,0.0,0.0,0.0,0.0,0.0,0.0,0.0,0.0,0.0,0.0,0.0,0.0,0.0,0.0,0.0,0.0,0.0,0.0695,0.0822,0.0863,0.0863,0.0987,0.0927,0.0,0.0,0.0,0.0,0.0,0.0,0.0,0.0,0.0,0.0,0.0,0.0,0.0,0.0,0.0,0.0,0.0,0.0,0.0,0.0,0.0,0.0,0.0,0.0,0.0,0.0,0.0,0.0,0.0,0.0,0.0,0.0,0.0,0.0,0.0,0.0,0.0,0.0,0.0,0.0,0.0,0.0,0.0,0.0,0.0,0.0,0.0,0.0,0.0,0.0,0.0,0.0,0.0,0.0,0.0,0.0,0.0,0.0,0.0,0.0,0.0,0.0,0.0,0.0,0.0,0.0,0.0,0.0,0.0,0.0,0.0,0.0,0.0,0.0,0.0,0.0,0.0,0.0,0.0,0.0,0.0,0.0,0.0,0.0,0.0,0.0,0.0,0.0,0.0,0.0,0.0,0.0,0.0,0.0,0.0,0.0,0.0,0.0,0.0,0.0,0.0,0.0,0.0,0.0,0.0,0.0,0.0,0.0,0.0128,0.022,0.0347,0.0431,0.0392,0.0777,0.0891,0.0,0.0,0.0,0.0,0.0,0.0,0.0,0.0,0.0,0.0,0.0,0.0,0.0,0.0,0.0,0.0,0.0,0.0,0.0,0.0,0.0,0.0,0.0,0.0,0.0,0.0,0.0,0.0,0.0,0.0,0.0,0.0,0.0,0.0,0.0,0.0,0.0,0.0,0.0,0.0,0.0,0.0,0.0,0.0,0.0,0.0,0.0,0.0,0.0,0.0,0.0,0.0,0.0,0.0,0.0,0.0,0.0,0.0,0.0,0.0,0.0,0.0,0.0,0.0,0.0,0.0,0.0,0.0,0.0,0.0,0.0,0.0,0.0,0.0,0.0,0.0,0.0,0.0,0.0,0.0,0.0,0.0,0.0,0.0,0.0,0.0,0.0,0.0,0.0,0.0,0.0,0.0,0.0,0.0,0.0,0.0,0.0,0.0,0.0,0.0,0.0,0.0,0.0,0.0,0.0,0.0,0.0,0.0,-0.0429,-0.0402,-0.0172,-0.0043,0.0,0.064,0.0885,0.0,0.0,0.0,0.0,0.0,0.0,0.0,0.0,0.0,0.0,0.0,0.0,0.0,0.0,0.0,0.0,0.0,0.0,0.0,0.0,0.0,0.0,0.0,0.0,0.0,0.0,0.0,0.0,0.0,0.0,0.0,0.0,0.0,0.0,0.0,0.0,0.0,0.0,0.0,0.0,0.0,0.0,0.0,0.0,0.0,0.0,0.0,0.0,0.0,0.0,0.0,0.0,0.0,0.0,0.0,0.0,0.0,0.0,0.0,0.0,0.0,0.0,0.0,0.0,0.0,0.0,0.0,0.0,0.0,0.0,0.0,0.0,0.0,0.0,0.0,0.0,0.0,0.0,0.0,0.0,0.0,0.0,0.0,0.0,0.0,0.0,0.0,0.0,0.0,0.0,0.0,0.0,0.0,0.0,0.0,0.0,0.0,0.0,0.0,0.0,0.0,0.0,0.0,0.0,0.0,0.0,0.0,0.0,-0.0555,-0.0394,-0.0299,-0.0169,0.0,0.0515,0.0723,0.0,0.0,0.0,0.0,0.0,0.0,0.0,0.0,0.0,0.0,0.0,0.0,0.0,0.0,0.0,0.0,0.0,0.0,0.0,0.0,0.0,0.0,0.0,0.0,0.0,0.0,0.0,0.0,0.0,0.0,0.0,0.0,0.0,0.0,0.0,0.0,0.0,0.0,0.0,0.0,0.0,0.0,0.0,0.0,0.0,0.0,0.0,0.0,-0.0172,0.0,0.0,0.0,0.0,0.0,0.0,0.0,0.0,0.0,0.0,0.0,0.0,0.0,0.0,0.0,0.0,0.0,0.0,0.0,0.0,0.0,0.0,0.0,0.0,0.0,0.0,0.0,0.0,0.0,0.0,0.0,0.0,0.0,0.0,0.0,0.0,0.0,0.0,0.0,0.0,0.0,0.0,0.0,0.0,0.0,0.0,0.0,0.0,0.0,0.0,0.0,0.0,0.0,0.0,0.0,0.0,0.0,0.0,0.0,-0.0778,-0.0529,-0.0428,-0.0212,0.0,0.0346,0.0514,0.0,0.0,0.0,0.0,0.0,0.0,0.0,0.0,0.0,0.0,0.0,0.0,0.0,0.0,0.0,0.0,0.0,0.0,0.0,0.0,0.0,0.0,0.0,0.0,0.0,0.0,0.0,0.0,0.0,0.0,0.0,0.0,0.0,0.0,0.0,0.0,0.0,0.0,0.0,0.0,0.0,0.0,0.0,0.0,0.0,0.0,0.0,0.0,0.0,0.0,0.0,0.0,0.0,0.0,0.0,0.0,0.0,0.0,0.0,0.0,0.0,0.0,0.0,0.0,0.0,0.0,0.0,0.0,0.0,0.0,0.0,0.0,0.0,0.0,0.0,0.0,0.0,0.0,0.0,0.0,0.0,0.0,0.0,0.0,0.0,0.0,0.0,0.0,0.0,0.0,0.0,0.0,0.0,0.0,0.0,0.0,0.0,0.0,0.0,0.0,0.0,0.0,0.0,0.0,0.0,0.0,0.0,-0.1221,-0.1012,-0.0719,-0.0519,-0.0299,0.0,0.0219,0.0303,0.0254,0.0,0.0,0.0,0.0,0.0,0.0,0.0,0.0,0.0,0.0,0.0,0.0,0.0,0.0,0.0,0.0,0.0,0.0,0.0,0.0,0.0,0.0,0.0,0.0,0.0,0.0,0.0,0.0,0.0,0.0,0.0,0.0,0.0,0.0,0.0,0.0,0.0,0.0,-0.0059,-0.0029,0.0,0.0,0.0,0.0,0.0,0.0,0.0,0.0,-0.0576,0.0,0.0,0.0,0.0,0.0,0.0,0.0,0.0,0.0,0.0,0.0,0.0,0.0,0.0,0.0,0.0,0.0,0.0,0.0,0.0,0.0,0.0,0.0,0.0,0.0,0.0,0.0,0.0,0.0,0.0,0.0,0.0,0.0,0.0,0.0,0.0,0.0,0.0,0.0,0.0,0.0,0.0,0.0,0.0,0.0,0.0,0.0,0.0,0.0,0.0,0.0,0.0,0.0,0.0,0.0,0.0,-0.1298,-0.1346,-0.1151,-0.0735,-0.0663,-0.0438,-0.0045,0.0045,0.0044,0.0087,0.0,0.0,0.0,0.0,0.0,0.0,0.0,0.0,0.0,0.0,0.0,0.0,0.0,0.0,0.0,0.0,0.0,0.0,0.0,0.0,0.0,0.0,0.0,0.0,0.0,0.0,0.0,0.0,0.0,0.0,0.0,0.0,0.0,0.0,0.0,0.0,0.0,0.0,0.0,-0.0173,-0.0118,0.0,0.0,0.0,0.0,0.0,0.0,0.0,0.0,-0.0885,0.0,0.0,0.0,0.0,0.0,0.0,0.0,0.0,0.0,0.0,0.0,0.0,0.0,0.0,0.0,0.0,0.0,0.0,0.0,0.0,0.0,0.0,0.0,0.0,0.0,0.0,0.0,0.0,0.0,0.0,0.0,0.0,0.0,0.0,0.0,0.0,0.0,0.0,0.0,0.0,0.0,0.0,0.0,0.0,0.0,0.0,0.0,0.0,0.0,0.0,0.0,0.0,0.0,0.0,0.0,-0.1307,-0.1376,-0.1256,-0.0923,-0.0763,-0.0536,-0.0228,-0.009,0.0,0.0,0.0,0.0,0.0,0.0,0.0,0.0,0.0,0.0,0.0,0.0,0.0,0.0,0.0,0.0,0.0,0.0,0.0,0.0,0.0,0.0,0.0,0.0,0.0,0.0,0.0,0.0,0.0,0.0,0.0,0.0,0.0,0.0,0.0,0.0,0.0,0.0,0.0,0.0,0.0,-0.0408,-0.0382,-0.0323,0.0,0.0,0.0,0.0,0.0,0.0,-0.0765,-0.105,0.0,0.0,0.0,0.0,0.0,0.0,0.0,0.0,0.0,0.0,0.0,0.0,0.0,0.0,0.0,0.0,0.0,0.0,0.0,0.0,0.0,0.0,0.0,0.0,0.0,0.0,0.0,0.0,0.0,0.0,0.0,0.0,0.0,0.0,0.0,0.0,0.0,0.0,0.0,0.0,0.0,0.0,0.0,0.0,0.0,0.0,0.0,0.0,0.0,0.0,0.0,0.0,0.0,0.0,0.0,-0.1307,-0.1362,-0.1316,-0.1115,-0.0818,-0.059,-0.0418,-0.0137,0.0,0.0,0.0,0.0,0.0,0.0,0.0,0.0,0.0,0.0,0.0,0.0,0.0,0.0,0.0,0.0,0.0,0.0,0.0,0.0,0.0,0.0,0.0,0.0,0.0,0.0,0.0,0.0,0.0,0.0,0.0,0.0,0.0,0.0,0.0,0.0,0.0,0.0,0.0,0.0,0.0,0.0,-0.0647,-0.0616,-0.0482,0.0,0.0,0.0,0.0,-0.0592,-0.0901,0.0,0.0,0.0,0.0,0.0,0.0,0.0,0.0,0.0,0.0,0.0,0.0,0.0,0.0,0.0,0.0,0.0,0.0,0.0,0.0,0.0,0.0,0.0,0.0,0.0,0.0,0.0,0.0,0.0,0.0,0.0,0.0,0.0,0.0,0.0,0.0,0.0,0.0,0.0,0.0,0.0,0.0,0.0,0.0,0.0,0.0,0.0,0.0,0.0,0.0,0.0,0.0,0.0,0.0,0.0,0.0,-0.1307,-0.1362,-0.1326,-0.1088,-0.0869,-0.0594,-0.0427,-0.0138,0.0,0.0,0.0,0.0,0.0,0.0,0.0,0.0,0.0,0.0,0.0,0.0,0.0,0.0,0.0,0.0,0.0,0.0,0.0,0.0,0.0,0.0,0.0,0.0,0.0,0.0,0.0,0.0,0.0,0.0,0.0,0.0,0.0,0.0,0.0,0.0,0.0,0.0,0.0,0.0,0.0,0.0,-0.0809,-0.0612,-0.0589,-0.0565,0.0,0.0,-0.085,-0.085,-0.1024,0.0,0.0,0.0,0.0,0.0,0.0,0.0,0.0,0.0,0.0,0.0,0.0,0.0,0.0,0.0,0.0,0.0,0.0,0.0,0.0,0.0,0.0,0.0,0.0,0.0,0.0,0.0,0.0,0.0,0.0,0.0,0.0,0.0,0.0,0.0,0.0,0.0,0.0,0.0,0.0,0.0,0.0,0.0,0.0,0.0,0.0,0.0,0.0,0.0,0.0,0.0,0.0,0.0,0.0,0.0,-0.1619,-0.179,-0.1689,-0.1603,-0.1569,-0.1008,-0.0686,-0.0619,-0.0229,0.0,0.0,0.0,0.0,0.0,0.0,0.0,0.0,0.0,0.0,0.0,0.0,0.0,0.0,0.0,0.0,0.0,0.0,0.0,0.0,0.0,0.0,0.0,0.0,0.0,0.0,0.0,0.0,0.0,0.0,0.0,0.0,0.0,0.0,0.0,0.0,0.0,0.0,0.0,0.0,0.0,0.0,0.0,-0.1178,-0.1049,0.0,0.0,0.0,-0.0962,-0.0962,0.0,0.0,0.0,0.0,0.0,0.0,0.0,0.0,0.0,0.0,0.0,0.0,0.0,0.0,0.0,0.0,0.0,0.0,0.0,0.0,0.0,0.0,0.0,0.0,0.0,0.0,0.0,0.0,0.0,0.0,0.0,0.0,0.0,0.0,0.0,0.0,0.0,0.0,0.0,0.0,0.0,0.0,0.0,0.0,0.0,0.0,0.0,0.0,0.0,0.0,0.0,0.0,0.0,0.0,0.0,0.0,0.0,-0.2196,-0.194,-0.184,-0.1856,-0.1111,-0.074,-0.0761,-0.0277,0.0,0.0,0.0,0.0,0.0,0.0,0.0,0.0,0.0,0.0,0.0,0.0,0.0,0.0,0.0,0.0,0.0,0.0,0.0,0.0,0.0,0.0,0.0,0.0,0.0,0.0,0.0,-0.1445,0.0,0.0,0.0,0.0,0.0,0.0,0.0,0.0,0.0,0.0,0.0,0.0,0.0,0.0,-0.1867,-0.1758,-0.1582,-0.1436,0.0,0.0,-0.1147,-0.11,-0.1203,-0.1297,0.0,0.0,0.0,0.0,0.0,0.0,0.0,0.0,0.0,0.0,0.0,0.0,0.0,0.0,0.0,0.0,0.0,0.0,0.0,0.0,0.0,0.0,0.0,0.0,0.0,0.0,0.0,0.0,0.0,0.0,0.0,0.0,0.0,0.0,0.0,0.0,0.0,0.0,0.0,0.0,0.0,0.0,0.0,0.0,0.0,0.0,0.0,0.0,0.0,0.0,0.0,0.0,0.0,0.0,-0.2105,-0.2199,-0.1921,-0.182,-0.1859,-0.1189,-0.0808,-0.081,-0.028,0.0,0.0,0.0,0.0,0.0,0.0,0.0,0.0,0.0,0.0,0.0,0.0,0.0,0.0,0.0,0.0,0.0,0.0,0.0,0.0,0.0,0.0,0.0,0.0,0.0,0.0,0.0,0.0,0.0,0.0,0.0,0.0,0.0,0.0,0.0,0.0,0.0,0.0,0.0,0.0,0.0,0.0,-0.2002,-0.2044,-0.2054,-0.1972,0.0,-0.1636,-0.1583,-0.1307,-0.1301,-0.129,-0.1298,0.0,0.0,0.0,0.0,0.0,0.0,0.0,0.0,0.0,0.0,0.0,0.0,0.0,0.0,0.0,0.0,0.0,0.0,0.0,0.0,0.0,0.0,0.0,0.0,0.0,0.0,0.0,0.0,0.0,0.0,0.0,0.0,0.0,0.0,0.0,0.0,0.0,0.0,0.0,0.0,0.0,0.0,0.0,0.0,0.0,0.0,0.0,0.0,0.0,0.0,0.0,0.0,0.0,-0.2461,-0.2603,-0.2244,-0.2056,-0.205,-0.124,-0.0811,-0.0811,-0.0281,0.0,0.0,0.0,0.0,0.0,0.0,0.0,0.0,0.0,0.0,0.0,0.0,0.0,0.0,0.0,0.0,0.0,0.0,0.0,0.0,0.0,0.0,0.0,0.0,0.0,0.0,0.0,0.0,0.0,-0.216,-0.2252,-0.231,0.0,0.0,0.0,0.0,0.0,0.0,0.0,0.0,0.0,0.0,-0.2374,-0.2311,-0.2297,0.0,0.0,-0.1973,-0.1884,-0.1655,-0.1575,-0.1501,-0.1327,-0.1299,0.0,0.0,0.0,0.0,0.0,0.0,0.0,0.0,0.0,0.0,0.0,0.0,0.0,0.0,0.0,0.0,0.0,0.0,0.0,0.0,0.0,0.0,0.0,0.0,0.0,0.0,0.0,0.0,0.0,0.0,0.0,0.0,0.0,0.0,0.0,0.0,0.0,0.0,0.0,0.0,0.0,0.0,0.0,0.0,0.0,0.0,0.0,0.0,0.0,0.0,0.0,0.0,-0.2751,-0.2944,-0.2451,-0.2216,-0.2212,-0.1355,-0.0871,-0.0769,-0.0377,-0.0093,0.0,0.0,0.0,0.0,0.0,0.0,0.0,0.0,0.0,0.0,0.0,0.0,0.0,0.0,0.0,0.0,0.0,0.0,0.0,0.0,0.0,0.0,0.0,0.0,0.0,0.0,0.0,0.0,-0.2276,-0.2339,-0.2378,0.0,0.0,0.0,0.0,0.0,0.0,0.0,0.0,0.0,0.0,-0.2684,-0.2571,-0.2565,-0.2459,-0.2282,-0.2238,-0.2102,-0.1827,-0.1779,-0.1616,-0.1359,0.0,0.0,0.0,0.0,0.0,0.0,0.0,0.0,0.0,0.0,0.0,0.0,0.0,0.0,0.0,0.0,0.0,0.0,0.0,0.0,0.0,0.0,0.0,0.0,0.0,0.0,0.0,0.0,0.0,0.0,-0.2921,0.0,0.0,0.0,0.0,0.0,0.0,0.0,0.0,0.0,0.0,0.0,0.0,0.0,0.0,0.0,0.0,0.0,0.0,0.0,0.0,0.0,0.0,-0.2899,-0.3001,-0.25,-0.2212,-0.2252,-0.1598,-0.1049,-0.0834,-0.053,-0.0283,0.0,0.0,0.0,0.0,0.0,0.0,0.0,0.0,0.0,0.0,0.0,0.0,0.0,0.0,0.0,0.0,0.0,0.0,0.0,0.0,0.0,0.0,0.0,0.0,0.0,0.0,0.0,-0.2266,-0.2348,-0.242,0.0,0.0,0.0,0.0,0.0,0.0,0.0,0.0,0.0,0.0,-0.2824,-0.2804,-0.2858,-0.2871,-0.278,-0.251,-0.2466,-0.2315,-0.1875,-0.1823,-0.168,0.0,0.0,0.0,0.0,0.0,0.0,0.0,0.0,0.0,0.0,0.0,0.0,0.0,0.0,0.0,0.0,0.0,0.0,0.0,0.0,0.0,0.0,0.0,0.0,0.0,0.0,0.0,-0.3066,-0.3063,0.0,0.0,0.0,0.0,0.0,0.0,0.0,0.0,0.0,0.0,0.0,-0.3037,-0.3037,0.0,0.0,0.0,0.0,0.0,0.0,0.0,0.0,0.0,0.0,0.0,0.0,-0.2985,-0.2962,-0.2677,-0.2437,-0.2305,-0.175,-0.1252,-0.0786,-0.0537,-0.0287,0.0,0.0,0.0,0.0,0.0,0.0,0.0,0.0,0.0,0.0,0.0,0.0,0.0,0.0,0.0,0.0,0.0,0.0,0.0,0.0,0.0,0.0,0.0,0.0,0.0,0.0,-0.2222,0.0,0.0,0.0,0.0,0.0,0.0,0.0,0.0,0.0,0.0,0.0,-0.276,-0.2824,-0.2818,-0.285,-0.2917,-0.292,-0.2875,0.0,0.0,0.0,0.0,0.0,0.0,0.0,0.0,0.0,0.0,0.0,0.0,0.0,0.0,-0.1275,-0.1273,-0.1265,-0.1188,-0.0958,0.0,0.0,0.0,0.0,0.0,0.0,0.0,0.0,0.0,0.0,0.0,0.0,0.0,0.0,-0.2983,0.0,-0.3106,0.0,0.0,0.0,0.0,0.0,0.0,0.0,0.0,-0.3077,-0.3098,-0.3098,-0.3098,-0.3098,0.0,-0.3098,-0.3058,0.0,0.0,0.0,0.0,0.0,0.0,0.0,0.0,-0.3025,-0.3022,-0.2808,-0.2558,-0.2328,-0.1957,-0.1456,-0.0794,-0.0443,-0.0193,0.0,0.0,-0.0088,0.0,0.0,0.0,0.0,0.0,0.0,0.0,0.0,0.0,0.0,0.0,0.0,0.0,0.0,0.0,0.0,0.0,0.0,0.0,0.0,0.0,0.0,0.0,-0.2413,0.0,0.0,0.0,0.0,0.0,0.0,0.0,0.0,0.0,-0.3025,-0.2948,-0.2945,-0.2945,-0.2893,-0.292,-0.292,0.0,0.0,0.0,0.0,0.0,0.0,0.0,-0.2198,-0.1977,-0.1739,-0.159,-0.1492,-0.1397,-0.1306,-0.1306,0.0,0.0,-0.1296,-0.1329,-0.1249,-0.1087,-0.0886,-0.0684,-0.0483,-0.0161,0.008,0.0,0.0,0.0,0.0,0.0,0.0,0.0,0.0,-0.2749,-0.2856,0.0,-0.309,0.0,0.0,0.0,0.0,0.0,-0.3098,0.0,0.0,-0.3105,-0.3102,-0.3105,-0.3106,-0.3104,-0.3102,-0.3106,-0.3104,-0.3099,-0.3041,0.0,0.0,0.0,0.0,0.0,0.0,-0.3022,-0.3083,-0.2846,-0.2625,-0.2418,-0.2121,-0.1617,-0.0808,-0.0297,0.0,0.0,0.0,-0.0091,-0.0262,-0.0305,0.0,0.0,0.0,0.0,0.0,0.0,0.0,0.0,0.0,0.0,0.0,0.0,0.0,0.0,0.0,0.0,0.0,0.0,0.0,0.0,-0.2566,0.0,0.0,0.0,0.0,0.0,0.0,0.0,0.0,0.0,0.0,-0.3535,-0.3369,-0.3232,-0.3189,0.0,0.0,0.0,0.0,-0.2882,-0.2928,-0.2925,-0.2835,-0.2566,-0.2519,-0.2428,-0.2249,0.0,0.0,-0.1838,-0.1544,-0.1313,-0.1311,-0.1313,-0.1309,-0.1309,-0.1304,-0.1303,-0.1304,-0.1134,-0.0926,-0.0758,-0.0503,-0.0252,-0.1071,0.0,0.0,0.0,0.0,-0.1854,-0.2115,-0.2378,-0.2719,-0.2967,-0.3018,-0.3168,0.0,0.0,0.0,0.0,0.0,0.0,-0.3113,-0.3116,-0.3158,-0.3179,-0.3179,-0.3179,-0.318,-0.3179,-0.3179,-0.3179,-0.3176,-0.3117,-0.3065,-0.307,0.0,0.0,0.0,0.0,-0.3105,-0.309,-0.3083,-0.286,-0.2422,-0.2322,-0.1818,-0.0859,-0.0298,0.0,0.0,0.0,-0.0047,-0.0091,-0.0273,0.0,0.0,0.0,0.0,0.0,0.0,0.0,0.0,0.0,0.0,0.0,0.0,0.0,0.0,0.0,0.0,0.0,0.0,0.0,-0.2607,-0.2652,-0.2736,0.0,0.0,0.0,0.0,0.0,0.0,0.0,0.0,0.0,-0.4262,-0.3869,-0.3503,0.0,0.0,-0.3234,-0.3045,-0.3045,-0.3045,-0.3045,-0.3045,0.0,-0.2952,-0.2764,-0.2622,-0.2575,-0.239,-0.22,-0.1908,-0.1783,-0.1668,-0.1487,-0.138,-0.1366,-0.1364,-0.1332,-0.1309,-0.1306,-0.1137,-0.0969,-0.0927,-0.0632,-0.0379,-0.0349,-0.0563,-0.0775,-0.0935,-0.1153,-0.1462,-0.1669,-0.1991,-0.2405,-0.2772,-0.2983,-0.3109,-0.3231,-0.325,-0.3212,0.0,0.0,0.0,-0.3248,-0.3249,-0.3285,-0.3303,-0.3251,-0.3252,-0.3303,-0.3304,-0.3251,-0.3303,-0.325,-0.3241,-0.3192,-0.3203,0.0,0.0,-0.3134,-0.3121,-0.3102,-0.3126,-0.3161,-0.2927,-0.2422,-0.1968,-0.1464,-0.0808,-0.03,0.0,0.0,0.0,0.0,0.0,-0.0139,-0.0229,0.0,0.0,0.0,0.0,0.0,0.0,0.0,0.0,0.0,0.0,0.0,-0.173,-0.1935,0.0,0.0,0.0,-0.2596,-0.2657,-0.2767,-0.2872,0.0,0.0,0.0,0.0,0.0,0.0,0.0,-0.4289,-0.4396,-0.4524,-0.4612,-0.4246,-0.3842,-0.3669,-0.3433,-0.3288,-0.3098,0.0,-0.3098,-0.3098,-0.3098,-0.3098,-0.3098,-0.2954,-0.2859,-0.2859,-0.2622,-0.2432,-0.2288,-0.2029,-0.1827,-0.1684,-0.153,-0.1421,-0.1455,-0.1424,-0.1396,-0.1342,-0.1253,-0.1123,-0.108,-0.0821,-0.0648,0.0,0.0,-0.0581,-0.0865,-0.0862,-0.1115,-0.1375,-0.17,-0.1944,-0.2411,-0.2944,-0.2992,-0.3149,-0.3413,-0.3413,0.0,-0.3413,-0.3413,-0.341,-0.3413,-0.3413,-0.3413,-0.3413,-0.3412,-0.3413,-0.3412,-0.3413,-0.3413,-0.3407,-0.3303,-0.3276,-0.3324,-0.321,-0.3101,-0.3095,-0.3098,-0.3125,-0.3229,-0.318,-0.2928,-0.2371,-0.1363,-0.0808,-0.0808,-0.0303,0.0,0.0,0.0,0.0,0.0,0.0,0.0,0.0,0.0,0.0,0.0,0.0,0.0,0.0,0.0,0.0,0.0,0.0,0.0,0.0,0.0,0.0,0.0,-0.2944,0.0,-0.2938,-0.3165,0.0,0.0,0.0,-0.3874,-0.4182,-0.4235,-0.4336,-0.4581,0.0,0.0,-0.4708,-0.4471,-0.4148,-0.384,-0.3448,-0.316,-0.3111,-0.3115,-0.3111,-0.3119,-0.3113,-0.3113,-0.3124,-0.3122,-0.3075,-0.3075,-0.2919,-0.2733,-0.2685,-0.2296,-0.1961,-0.1913,-0.1671,-0.1517,-0.1489,-0.1482,-0.1476,-0.1402,-0.1392,-0.1344,-0.1163,-0.1073,-0.0984,0.0,0.0,-0.018,-0.0355,-0.0527,-0.0581,-0.092,-0.142,-0.1754,-0.2076,-0.2437,-0.2843,-0.3186,-0.3413,-0.3413,-0.3413,-0.3413,-0.3413,-0.3413,-0.3413,-0.3413,-0.3413,-0.3413,-0.3413,-0.3413,-0.3413,-0.3413,-0.3413,-0.3412,-0.3398,-0.3391,-0.3388,-0.3347,-0.3286,-0.3161,-0.3158,-0.3165,-0.318,-0.318,-0.2927,-0.2371,-0.1363,-0.0808,-0.0808,-0.0303,0.0,0.0,0.0,0.0,0.0,0.0,0.0,0.0,0.0,0.0,0.0,0.0,0.0,0.0,0.0,0.0,0.0,0.0,-0.2106,-0.2454,0.0,-0.2854,0.0,-0.303,-0.3069,-0.3055,-0.3305,0.0,0.0,-0.3927,-0.4214,-0.4474,-0.4524,-0.455,-0.4669,-0.4677,-0.4708,-0.4744,-0.4357,-0.4052,-0.3983,-0.3685,-0.3387,-0.3188,-0.3187,-0.3188,-0.3185,-0.3183,-0.3187,-0.3183,-0.3187,-0.3183,-0.3188,-0.3137,-0.3038,-0.2836,-0.2508,-0.2193,-0.1998,-0.1734,-0.1524,-0.1517,-0.1515,-0.1513,-0.1503,-0.1468,-0.1391,-0.1346,-0.1212,-0.1082,0.0,0.0,0.0,-0.0061,-0.024,-0.0356,-0.0586,-0.093,-0.1395,-0.1786,-0.2097,-0.2785,-0.3179,-0.3239,-0.3424,-0.3476,-0.3452,-0.3477,-0.3489,-0.3491,-0.3491,-0.3491,-0.3489,-0.3489,-0.3491,-0.3491,-0.3491,-0.3491,-0.3488,-0.3463,-0.345,-0.345,-0.3424,-0.3379,-0.3313,-0.3286,-0.3258,-0.3181,-0.3002,-0.2667,-0.2274,-0.1345,-0.0877,-0.0819,-0.0307,0.0,0.0,0.0,0.0,0.0,0.0,0.0,0.0,0.0,0.0,0.0,0.0,0.0,0.0,0.0,0.0,0.0,0.0,0.0,0.0,0.0,-0.3011,-0.3043,-0.3102,-0.3126,-0.3098,-0.3456,-0.3715,-0.3813,-0.4198,-0.4502,-0.4685,-0.4687,-0.4708,-0.4757,-0.4765,-0.4734,-0.4778,-0.4332,-0.3984,-0.3984,-0.3633,-0.3383,-0.3232,-0.318,-0.318,-0.318,-0.318,-0.318,-0.318,-0.318,-0.318,-0.318,-0.318,-0.313,-0.2977,-0.2652,-0.2334,-0.2185,-0.1824,-0.1562,-0.1549,-0.1546,-0.1543,-0.1525,-0.1453,-0.1432,-0.143,-0.1337,-0.1297,0.0,0.0,0.0,0.0,0.0,-0.024,-0.0355,-0.0414,-0.1064,-0.1523,-0.1901,-0.2661,-0.3013,-0.3087,-0.3346,-0.3444,-0.3392,-0.3441,-0.3461,-0.3453,-0.3454,-0.3457,-0.3465,-0.3463,-0.3467,-0.3475,-0.3531,-0.3531,-0.353,-0.3533,-0.3508,-0.3506,-0.3458,-0.3432,-0.3421,-0.3318,-0.3263,-0.3153,-0.2737,-0.2359,-0.2077,-0.128,-0.09,-0.0887,-0.0312,0.0,0.0,0.0,0.0,0.0,0.0,0.0,0.0,0.0,0.0,0.0,-0.0048,0.0,0.0,0.0,0.0,0.0,0.0,0.0,0.0,-0.3073,-0.3111,-0.312,-0.3121,-0.3129,-0.3124,-0.3556,-0.3885,-0.3934,-0.433,-0.4705,-0.4774,-0.4782,-0.4782,-0.4782,-0.4794,-0.4802,-0.4804,-0.4358,-0.4013,-0.4021,-0.3619,-0.3266,-0.3205,-0.3193,-0.318,-0.318,-0.318,-0.318,-0.318,-0.318,-0.318,-0.318,-0.318,-0.318,-0.318,-0.2774,-0.2421,-0.2369,-0.1965,-0.1605,-0.1581,-0.1577,-0.1568,-0.1498,-0.1492,-0.1534,-0.1524,-0.1473,-0.148,0.0,0.0,0.0,0.0,0.0,-0.0062,-0.0182,-0.042,-0.0841,-0.1428,-0.2227,-0.2364,-0.2572,-0.2791,-0.2819,-0.2836,-0.279,-0.2799,-0.2781,-0.2797,-0.2798,-0.2765,-0.2801,-0.2803,-0.2823,-0.2859,-0.3083,-0.3194,-0.3194,-0.3462,-0.3571,-0.357,-0.3559,-0.353,-0.3482,0.0,0.0,0.0,-0.2752,-0.2442,-0.2077,-0.1333,-0.0906,-0.0902,-0.0314,0.0,0.0,0.0,0.0,0.0,0.0,0.0,0.0,0.0,0.0,0.0,0.0,0.0,0.0,0.0,0.0,0.0,-0.2353,-0.2592,-0.3038,-0.3087,-0.3143,-0.3191,-0.3157,-0.3158,-0.3198,-0.3457,-0.3715,-0.3962,-0.4264,-0.4572,-0.4782,-0.4784,-0.4782,-0.4784,-0.49,-0.4947,-0.4949,-0.4542,-0.4215,-0.421,-0.3745,-0.3379,-0.3375,-0.3294,-0.3185,-0.318,-0.3185,-0.3181,-0.318,-0.318,-0.318,-0.318,-0.318,-0.318,-0.318,-0.2775,-0.2422,-0.2371,-0.1969,-0.1616,-0.1609,-0.1608,-0.1604,-0.16,-0.1598,-0.1585,-0.1489,-0.1479,-0.1534,0.0,0.0,0.0,0.0,0.0,0.0,-0.0061,-0.0244,-0.0549,-0.115,-0.1847,-0.217,-0.2377,-0.2474,-0.2645,-0.2665,-0.2605,-0.2627,-0.2668,-0.268,-0.2624,-0.2637,-0.266,-0.2659,-0.2671,-0.2693,-0.2861,-0.2917,-0.2917,-0.3086,-0.3141,-0.3142,-0.3141,-0.3128,-0.3101,-0.2992,-0.2802,-0.2592,-0.2483,-0.2277,-0.1912,-0.1258,-0.0872,-0.0864,-0.0321,0.0,0.0,0.0,0.0,0.0,0.0,0.0,0.0,0.0,0.0,0.0,-0.0247,-0.054,-0.0785,-0.1031,-0.1521,-0.2306,-0.2623,-0.2872,-0.314,-0.3166,-0.3148,-0.3228,-0.318,-0.318,-0.323,-0.3433,-0.3699,-0.3827,-0.4089,-0.436,-0.4702,-0.4761,-0.4812,-0.4922,-0.501,-0.5039,-0.5039,-0.4757,-0.447,-0.4314,-0.3942,-0.3573,-0.3407,-0.3361,-0.326,-0.3231,-0.3224,-0.3212,-0.3187,-0.318,-0.3181,-0.318,-0.318,-0.318,-0.318,-0.2876,-0.2573,-0.2422,-0.207,-0.1768,-0.1617,-0.1566,-0.1566,-0.1566,-0.1566,-0.1609,-0.1527,-0.1571,-0.1575,0.0,0.0,0.0,0.0,0.0,0.0,0.0,-0.0062,0.0,0.0,0.0,-0.1907,-0.2116,-0.2148,-0.2462,-0.255,-0.2484,-0.2516,-0.2509,-0.2525,-0.2525,-0.2529,-0.2536,-0.2536,-0.2537,-0.2537,-0.2593,-0.2588,-0.2637,-0.2693,-0.2693,-0.2693,-0.2693,-0.2637,-0.2637,-0.2581,-0.2452,-0.2144,-0.2197,-0.2046,-0.1737,-0.1177,-0.0891,-0.0824,-0.0274,0.0,0.0,0.0,0.0,0.0,0.0,0.0,0.0,0.0,0.0,0.0,-0.0306,-0.0561,-0.0816,-0.1122,-0.1631,-0.2395,-0.2956,-0.3259,-0.3197,-0.3196,-0.32,-0.3262,-0.3263,-0.3263,-0.3263,-0.3417,-0.364,-0.3796,-0.401,-0.4295,-0.4669,-0.4786,-0.4884,-0.5055,-0.5118,-0.5132,-0.5132,-0.4882,-0.4671,-0.4409,-0.4097,-0.3817,-0.3492,-0.3424,-0.3386,-0.3346,-0.3285,-0.3318,-0.3215,-0.32,-0.3193,-0.3183,-0.318,-0.318,-0.318,-0.2978,-0.2725,-0.2472,-0.2171,-0.192,-0.1667,-0.1566,-0.1566,-0.1566,-0.1566,-0.1566,-0.1566,-0.1566,-0.1564,0.0,0.0,0.0,0.0,0.0,0.0,0.0,0.0,-0.0371,-0.0863,-0.1476,-0.1514,-0.1682,-0.1917,-0.2013,-0.1983,-0.1892,-0.1953,-0.1938,-0.1908,-0.1907,-0.1922,-0.1948,-0.1948,-0.1949,-0.1949,-0.2236,-0.2332,-0.2303,-0.2581,-0.2693,-0.2693,-0.2693,-0.2581,-0.23,-0.2244,-0.2129,-0.19,-0.2069,-0.1958,-0.1402,-0.1065,-0.0728,-0.0447,-0.0165,0.0,0.0,0.0,0.0,0.0,0.0,0.0,0.0,0.0,0.0,0.0,-0.0529,-0.0847,-0.09,-0.1376,-0.1904,-0.2539,-0.3069,-0.3365,-0.3263,-0.3256,-0.3331,-0.3379,-0.338,-0.3387,-0.3387,-0.3436,-0.3699,-0.4136,-0.4244,-0.4462,-0.4957,-0.501,-0.5012,-0.5122,-0.5124,-0.5172,-0.5176,-0.5009,-0.488,-0.4723,-0.4317,-0.389,-0.3649,-0.3474,-0.3416,-0.3401,-0.3399,-0.3373,-0.3324,-0.3256,-0.3239,-0.3187,-0.3184,-0.3185,-0.318,-0.2978,-0.2725,-0.2472,-0.2222,-0.192,-0.1667,-0.1566,-0.1566,-0.1566,-0.1566,-0.1566,-0.1566,-0.1566,-0.1566,0.0,0.0,0.0,0.0,0.0,0.0,0.0,0.0,-0.0185,-0.0494,-0.0987,-0.1103,-0.1284,-0.1405,-0.1395,-0.1379,-0.1299,-0.1299,-0.1287,-0.1326,-0.1325,-0.1331,-0.1281,-0.134,-0.1399,-0.1574,-0.1748,-0.1849,-0.1993,-0.2161,-0.2208,-0.219,-0.2188,-0.2132,-0.1963,-0.1795,-0.1683,-0.1514,-0.1627,-0.157,-0.129,-0.0841,-0.0561,-0.0392,-0.0167,0.0,0.0,0.0,0.0,0.0,0.0,0.0,0.0,0.0,-0.0053,-0.0213,-0.064,-0.096,-0.1119,-0.1811,-0.229,-0.2611,-0.3092,-0.3469,-0.3632,-0.3443,-0.3382,-0.341,-0.3571,-0.3675,-0.3676,-0.3782,-0.4011,-0.4319,-0.4376,-0.4501,-0.4918,-0.498,-0.5089,-0.5204,-0.5292,-0.5318,-0.5318,-0.5242,-0.5098,-0.4875,-0.4372,-0.3982,-0.3813,-0.3656,-0.3493,-0.3466,-0.3458,-0.3433,-0.3382,-0.3371,-0.3345,-0.329,-0.3279,-0.3213,-0.3191,-0.3079,-0.2928,-0.2675,-0.2372,-0.2121,-0.1869,-0.1718,-0.1617,-0.1566,-0.1566,-0.1566,-0.1566,-0.1566,-0.1566,0.0,0.0,0.0,0.0,0.0,0.0,0.0,0.0,0.0,-0.0124,-0.0432,-0.0741,-0.0926,-0.0988,-0.0988,-0.0981,-0.0911,-0.091,-0.0904,-0.0894,-0.0953,-0.0893,-0.0953,-0.0953,-0.107,-0.1245,-0.1303,-0.141,-0.1564,-0.1619,-0.1606,-0.1582,-0.1579,-0.1576,-0.157,-0.1346,-0.1234,-0.1177,-0.1121,-0.1121,-0.1065,-0.0617,-0.0392,-0.028,-0.0112,0.0,0.0,-0.0055,-0.0055,-0.011,-0.0163,-0.0162,-0.0216,-0.0216,-0.027,-0.0486,-0.0809,-0.1133,-0.1401,-0.2156,-0.2642,-0.2642,-0.3128,-0.358,-0.3837,-0.3697,-0.356,-0.3666,-0.3886,-0.4043,-0.4046,-0.4208,-0.439,-0.4501,-0.4508,-0.4639,-0.4918,-0.4987,-0.51,-0.5326,-0.5382,-0.538,-0.5382,-0.5382,-0.527,-0.4931,-0.4484,-0.4206,-0.4036,-0.3813,-0.3677,-0.3534,-0.3516,-0.3493,-0.3443,-0.3431,-0.3406,-0.3352,-0.3342,-0.3264,-0.3277,-0.3203,-0.3088,-0.2832,-0.2573,-0.2271,-0.2021,-0.1768,-0.1617,-0.1566,-0.1566,-0.1566,-0.1566,-0.1566,-0.1566,0.0,0.0,0.0,0.0,0.0,0.0,0.0,0.0,0.0,0.0,0.0,-0.0371,-0.0741,-0.0988,-0.0988,-0.0925,-0.0985,-0.0986,-0.0984,-0.0983,-0.0984,-0.0984,-0.0921,-0.0983,-0.0977,-0.0965,-0.0963,-0.0955,-0.1,-0.0998,-0.0991,-0.0977,-0.0975,-0.1025,-0.1012,-0.0954,-0.0954,-0.0954,-0.0673,-0.0504,-0.0504,-0.0392,-0.028,-0.0056,0.0,0.0,0.0,-0.0224,-0.0391,-0.0392,-0.067,-0.0837,-0.0781,-0.0837,-0.0837,-0.0837,-0.1115,-0.1396,-0.173,-0.2345,-0.2677,-0.2737,-0.3232,-0.3678,-0.3968,-0.3964,-0.4072,-0.4287,-0.4399,-0.4448,-0.4458,-0.4509,-0.4618,-0.4849,-0.4856,-0.4979,-0.5266,-0.5382,-0.5382,-0.5382,-0.5382,-0.5382,-0.5382,-0.5382,-0.527,-0.4987,-0.4819,-0.4596,-0.4148,-0.398,-0.3867,-0.3689,-0.3578,-0.3552,-0.3504,-0.3489,-0.3465,-0.3417,-0.3405,-0.3376,-0.3334,-0.3259,-0.3197,-0.2965,-0.2586,-0.2335,-0.208,-0.1768,-0.1619,-0.1622,-0.1621,-0.1566,-0.1566,-0.1566,-0.1566,0.0,0.0,0.0,0.0,0.0,0.0,0.0,0.0,0.0,0.0,0.0,-0.0124,-0.0309,-0.0432,-0.0432,-0.0432,-0.0432,-0.0432,-0.0432,-0.0432,-0.0432,-0.0432,-0.0432,-0.0432,-0.0492,-0.0673,-0.0673,-0.0728,-0.0837,-0.0888,-0.088,-0.0876,-0.0875,-0.0872,-0.0866,-0.0693,-0.0635,-0.0577,-0.0286,-0.0171,-0.0171,-0.0169,-0.0112,0.0,0.0,-0.0056,-0.0224,-0.0336,-0.0504,-0.0673,-0.0841,-0.0897,-0.0897,-0.0897,-0.0953,-0.1121,-0.1402,-0.1683,-0.1795,-0.2188,-0.2468,-0.2693,-0.3083,-0.3475,-0.398,-0.4203,-0.4426,-0.465,-0.4761,-0.4761,-0.4761,-0.4931,-0.51,-0.5156,-0.5212,-0.527,-0.5382,-0.5382,-0.5382,-0.5382,-0.5382,-0.5382,-0.5382,-0.5382,-0.5326,-0.5212,-0.5044,-0.4817,-0.454,-0.4262,-0.3982,-0.3868,-0.3701,-0.3635,-0.3553,-0.355,-0.3523,-0.3481,-0.3462,-0.344,-0.3392,-0.3322,-0.3311,-0.318,-0.2757,-0.2496,-0.2403,-0.1963,-0.1695,-0.1641,-0.1624,-0.1566,-0.1566,-0.1566,-0.1566,0.0,0.0,0.0,0.0,0.0,0.0,0.0,0.0,0.0,0.0,0.0,0.0,0.0,0.0,0.0,0.0,0.0,0.0,0.0,0.0,0.0,0.0,0.0,0.0,-0.0124,-0.0309,-0.037,-0.043,-0.0668,-0.0661,-0.0655,-0.0653,-0.0652,-0.0651,-0.0648,-0.0412,-0.0294,-0.0294,0.0,0.0,0.0,0.0,0.0,0.0,-0.0056,-0.0224,-0.0392,-0.0561,-0.0785,-0.1009,-0.1121,-0.1121,-0.1121,-0.1177,-0.1234,-0.1402,-0.1683,-0.1795,-0.1795,-0.2075,-0.2356,-0.2693,-0.2971,-0.3362,-0.3924,-0.4314,-0.4594,-0.4875,-0.4987,-0.5044,-0.5044,-0.527,-0.5382,-0.5382,-0.5382,-0.5382,-0.5382,-0.5382,-0.5382,-0.5382,-0.5382,-0.5382,-0.5382,-0.5382,-0.5382,-0.5382,-0.5212,-0.4987,-0.4875,-0.454,-0.4204,-0.4038,-0.3813,-0.3699,-0.3643,-0.3583,-0.3563,-0.3544,-0.3522,-0.3501,-0.345,-0.3437,-0.3418,-0.323,-0.2875,-0.2608,-0.2487,-0.21,-0.172,-0.1712,-0.1645,-0.1627,-0.1618,-0.1618,-0.1465,0.0,0.0,0.0,0.0,0.0,0.0,0.0,0.0,0.0,0.0,0.0,0.0,0.0,0.0,0.0,0.0,0.0,0.0,0.0,0.0,0.0,0.0,0.0,0.0,0.0,0.0,0.0,0.0,0.0,0.0,-0.0061,0.0,0.0,0.0,0.0,0.0,0.0,0.0,0.0,0.0,0.0,0.0,0.0,0.0,-0.0224,-0.0393,-0.0448,-0.0953,-0.1234,-0.129,-0.157,-0.1739,-0.1739,-0.1739,-0.1739,-0.1739,-0.1795,-0.1795,-0.1853,-0.2024,-0.2305,-0.2639,-0.2921,-0.3363,-0.3868,-0.4258,-0.4536,-0.4875,-0.5156,-0.5326,-0.5326,-0.5382,-0.5382,-0.5382,-0.5382,-0.5382,-0.5382,-0.5382,-0.5382,-0.5382,-0.5382,-0.5382,-0.5382,-0.5382,-0.5382,-0.5382,-0.5382,-0.527,-0.4987,-0.4875,-0.4596,-0.4204,-0.3982,-0.3868,-0.3643,-0.3587,-0.3585,-0.3572,-0.3559,-0.356,-0.3523,-0.3488,-0.3461,-0.3333,-0.2904,-0.2631,-0.251,-0.223,-0.1847,-0.168,-0.1721,-0.1654,-0.1642,-0.1624,-0.147,0.0,0.0,0.0,0.0,0.0,0.0,0.0,0.0,0.0,0.0,0.0,0.0,0.0,0.0,0.0,0.0,0.0,0.0,0.0,0.0,0.0,0.0,0.0,0.0,0.0,0.0,0.0,0.0,0.0,0.0,0.0,0.0,0.0,0.0,0.0,0.0,0.0,0.0,0.0,0.0,0.0,0.0,-0.0117,-0.029,-0.0344,-0.051,-0.0729,-0.1065,-0.1402,-0.1627,-0.1739,-0.1795,-0.1795,-0.1795,-0.1795,-0.1797,-0.1813,-0.1824,-0.1827,-0.19,-0.2133,-0.2397,-0.2678,-0.3005,-0.3427,-0.3867,-0.4314,-0.4594,-0.4931,-0.5156,-0.5326,-0.5382,-0.5382,-0.5382,-0.5382,-0.5382,-0.5382,-0.5382,-0.5382,-0.5382,-0.5382,-0.5382,-0.5382,-0.5382,-0.5382,-0.5382,-0.5382,-0.5326,-0.5214,-0.5044,-0.4763,-0.4426,-0.4148,-0.3924,-0.3643,-0.3587,-0.3587,-0.3587,-0.3582,-0.3578,-0.3555,-0.3548,-0.3526,-0.3464,-0.3069,-0.2628,-0.2461,-0.2172,-0.1832,-0.1699,-0.169,-0.1738,-0.1675,-0.1553,-0.1339,0.0,0.0,0.0,0.0,0.0,0.0,0.0,0.0,0.0,0.0,0.0,0.0,0.0,0.0,0.0,0.0,0.0,0.0,0.0,0.0,0.0,0.0,0.0,0.0,0.0,0.0,0.0,0.0,0.0,0.0,0.0,0.0,0.0,0.0,0.0,0.0,0.0,0.0,0.0,0.0,-0.0121,-0.018,-0.0298,-0.0593,-0.0705,-0.0811,-0.1084,-0.1368,-0.1597,-0.1767,-0.1824,-0.1824,-0.1825,-0.1825,-0.1825,-0.1827,-0.1844,-0.1797,-0.1857,-0.1874,-0.1994,-0.2264,-0.2551,-0.2824,-0.3136,-0.3701,-0.4147,-0.4415,-0.4743,-0.5021,-0.5162,-0.5326,-0.5382,-0.5382,-0.5382,-0.5382,-0.5382,-0.5382,-0.5382,-0.5382,-0.5382,-0.5382,-0.5382,-0.5382,-0.5382,-0.5382,-0.5382,-0.5382,-0.5382,-0.5214,-0.4931,-0.465,-0.437,-0.4091,-0.3811,-0.3699,-0.3643,-0.3587,-0.3587,-0.3587,-0.3587,-0.3587,-0.3587,-0.3477,-0.3197,-0.2748,-0.2404,-0.2053,-0.1863,-0.1726,-0.1718,-0.1768,-0.1649,-0.1477,-0.126,0.0,0.0,0.0,0.0,0.0,0.0,0.0,0.0,0.0,0.0,0.0,0.0,0.0,0.0,0.0,0.0,0.0,0.0,0.0,0.0,0.0,0.0,0.0,0.0,0.0,0.0,0.0,0.0,0.0,0.0,0.0,0.0,0.0,0.0,0.0,0.0,0.0,0.0,0.0,-0.0185,-0.0494,-0.0492,-0.0672,-0.0967,-0.1205,-0.1376,-0.1415,-0.1706,-0.1878,-0.1879,-0.188,-0.1884,-0.1878,-0.1877,-0.1881,-0.1879,-0.1884,-0.1885,-0.1887,-0.189,-0.2014,-0.224,-0.2592,-0.288,-0.322,-0.3745,-0.4136,-0.4207,-0.4594,-0.4914,-0.4964,-0.5184,-0.54,-0.5382,-0.5382,-0.5382,-0.5382,-0.5382,-0.5382,-0.5382,-0.5382,-0.5382,-0.5382,-0.5382,-0.5382,-0.5382,-0.5382,-0.5382,-0.5382,-0.5326,-0.5214,-0.4931,-0.4594,-0.4257,-0.4035,-0.3813,-0.3699,-0.3587,-0.3587,-0.3587,-0.3587,-0.3587,-0.3531,-0.3419,-0.2973,-0.2524,-0.2132,-0.1895,-0.1833,-0.1757,-0.1806,-0.1743,-0.1679,-0.1506,-0.1176,0.0,0.0,0.0,0.0,0.0,0.0,0.0,0.0,0.0,0.0,0.0,0.0,0.0,0.0,0.0,0.0,0.0,0.0,0.0,0.0,0.0,0.0,0.0,0.0,0.0,0.0,0.0,0.0,0.0,0.0,0.0,0.0,0.0,0.0,0.0,-0.0247,-0.0371,-0.0371,-0.0556,-0.0741,-0.0865,-0.0865,-0.0985,-0.1289,-0.141,-0.159,-0.1826,-0.1849,-0.1887,-0.1887,-0.1885,-0.1885,-0.1886,-0.1885,-0.1885,-0.1888,-0.1907,-0.1917,-0.1919,-0.1935,-0.1997,-0.2102,-0.2334,-0.2617,-0.2948,-0.3358,-0.3762,-0.4091,-0.438,-0.454,-0.4758,-0.5045,-0.5283,-0.5396,-0.5382,-0.5386,-0.5382,-0.5382,-0.5382,-0.5382,-0.5382,-0.5382,-0.5382,-0.5382,-0.5382,-0.5382,-0.5382,-0.5382,-0.5382,-0.5382,-0.527,-0.4931,-0.465,-0.4424,-0.4147,-0.3868,-0.3643,-0.3587,-0.3587,-0.3587,-0.3587,-0.3531,-0.3419,-0.3139,-0.2692,-0.2356,-0.1963,-0.1792,-0.1785,-0.1785,-0.1777,-0.1771,-0.171,-0.148,-0.1143,0.0,0.0,0.0,0.0,0.0,0.0,0.0,0.0,0.0,0.0,0.0,0.0,0.0,0.0,0.0,0.0,0.0,0.0,0.0,0.0,0.0,0.0,0.0,0.0,0.0,0.0,0.0,0.0,0.0,-0.0124,0.0,0.0,-0.0309,0.0,-0.0371,-0.0556,-0.0679,-0.0741,-0.0865,-0.105,-0.1173,-0.1173,-0.1359,-0.1606,-0.1668,-0.1791,-0.1973,-0.1939,-0.1919,-0.1919,-0.1919,-0.192,-0.1919,-0.192,-0.1919,-0.1923,-0.1935,-0.1947,-0.195,-0.1964,-0.197,-0.2012,-0.225,-0.2483,-0.2761,-0.3056,-0.3589,-0.3803,-0.4093,-0.4321,-0.4534,-0.4824,-0.5009,-0.5155,-0.5338,-0.5416,-0.5394,-0.5382,-0.5382,-0.5382,-0.5382,-0.5382,-0.5382,-0.5382,-0.5382,-0.5382,-0.5382,-0.5382,-0.5382,-0.5382,-0.527,-0.5044,-0.4706,-0.4482,-0.426,-0.3924,-0.3643,-0.3587,-0.3587,-0.3587,-0.3587,-0.3418,-0.325,-0.2859,-0.2356,-0.2244,-0.1907,-0.1851,-0.1791,-0.1795,-0.1795,-0.1677,-0.1612,-0.1277,-0.0938,0.0,0.0,0.0,0.0,0.0,0.0,0.0,0.0,0.0,0.0,0.0,0.0,0.0,0.0,0.0,0.0,0.0,0.0,0.0,0.0,0.0,0.0,0.0,0.0,0.0,0.0,0.0,0.0,-0.0062,-0.0311,-0.0495,-0.0558,-0.0806,-0.0989,-0.0927,-0.0988,-0.0988,-0.105,-0.1112,-0.1235,-0.1544,-0.1544,-0.1668,-0.1977,-0.1977,-0.1977,-0.1975,-0.197,-0.2032,-0.1975,-0.1969,-0.2029,-0.2036,-0.2038,-0.197,-0.1969,-0.1975,-0.1974,-0.2037,-0.2036,-0.1975,-0.2034,-0.2216,-0.2466,-0.2579,-0.3002,-0.3359,-0.3445,-0.3861,-0.42,-0.4215,-0.4501,-0.4668,-0.4764,-0.5163,-0.5378,-0.5416,-0.541,-0.542,-0.5404,-0.5392,-0.5388,-0.5388,-0.5382,-0.5382,-0.5382,-0.5382,-0.5382,-0.5382,-0.5382,-0.5382,-0.5156,-0.4819,-0.4538,-0.4314,-0.3923,-0.3643,-0.3587,-0.3587,-0.3587,-0.3475,-0.3307,-0.297,-0.2523,-0.2188,-0.2019,-0.1907,-0.1851,-0.1795,-0.1795,-0.1739,-0.1627,-0.14,-0.1061,-0.0781,0.0,0.0,0.0,0.0,0.0,0.0,0.0,0.0,0.0,0.0,0.0,0.0,0.0,0.0,0.0,0.0,0.0,0.0,0.0,0.0,0.0,0.0,0.0,0.0,0.0,0.0,0.0,0.0,-0.0383,-0.0509,-0.0634,-0.0879,-0.1005,-0.1061,-0.1052,-0.1236,-0.1359,-0.142,-0.1606,-0.173,-0.1853,-0.1853,-0.1915,-0.1977,-0.2038,-0.2038,-0.2038,-0.2038,-0.2038,-0.2038,-0.2038,-0.2038,-0.2038,-0.2038,-0.2038,-0.2038,-0.2038,-0.2038,-0.2038,-0.2038,-0.2038,-0.2038,-0.2099,-0.2222,-0.2466,-0.2651,-0.2893,-0.3065,-0.3494,-0.3732,-0.3779,-0.4137,-0.4482,-0.479,-0.5022,-0.5313,-0.5458,-0.5516,-0.5551,-0.5492,-0.5475,-0.5449,-0.5414,-0.5398,-0.5398,-0.5398,-0.54,-0.5394,-0.5402,-0.5396,-0.5402,-0.5218,-0.4931,-0.465,-0.4313,-0.3923,-0.3643,-0.3587,-0.3587,-0.3531,-0.3363,-0.3141,-0.2748,-0.23,-0.2075,-0.1907,-0.1851,-0.1795,-0.1795,-0.1795,-0.157,-0.1402,-0.1234,-0.0952,-0.0616,0.0,0.0,0.0,0.0,0.0,0.0,0.0,0.0,0.0,0.0,0.0,0.0,0.0,0.0,0.0,0.0,0.0,0.0,0.0,0.0,0.0,0.0,0.0,0.0,0.0,0.0,-0.013,-0.0324,-0.0517,-0.0774,-0.1092,-0.1276,-0.1402,-0.1454,-0.1435,-0.1558,-0.1739,-0.1732,-0.1915,-0.2038,-0.2038,-0.2038,-0.2038,-0.2038,-0.2038,-0.2038,-0.2038,-0.2038,-0.2038,-0.2038,-0.2038,-0.2038,-0.2038,-0.2038,-0.2038,-0.2038,-0.2038,-0.2038,-0.2038,-0.2038,-0.2038,-0.2038,-0.2038,-0.2099,-0.2284,-0.2406,-0.259,-0.2773,-0.3085,-0.3269,-0.3331,-0.3701,-0.4115,-0.4384,-0.4707,-0.5013,-0.5365,-0.5405,-0.5445,-0.5524,-0.5561,-0.5549,-0.5494,-0.549,-0.5488,-0.5496,-0.5508,-0.5482,-0.5453,-0.5439,-0.5368,-0.5248,-0.4944,-0.4603,-0.4319,-0.3927,-0.3587,-0.3587,-0.3307,-0.3307,-0.3139,-0.2861,-0.2468,-0.2132,-0.1907,-0.1795,-0.1795,-0.1795,-0.1795,-0.1739,-0.1458,-0.1234,-0.1065,-0.0785,-0.0448,0.0,0.0,0.0,0.0,0.0,0.0,0.0,0.0,0.0,0.0,0.0,0.0,0.0,0.0,0.0,0.0,0.0,0.0,0.0,0.0,0.0,0.0,0.0,0.0,0.0,-0.0132,-0.0396,-0.0591,-0.0784,-0.13,-0.162,-0.1682,-0.1939,-0.2052,-0.1902,-0.196,-0.2007,-0.1988,-0.1986,-0.2044,-0.204,-0.2038,-0.2038,-0.2038,-0.2038,-0.2038,-0.2038,-0.2038,-0.2038,-0.2038,-0.2038,-0.2038,-0.2038,-0.2038,-0.2038,-0.2038,-0.2038,-0.2038,-0.2038,-0.2038,-0.2038,-0.2038,-0.2038,-0.2038,-0.21,-0.2284,-0.2406,-0.2468,-0.2775,-0.296,-0.3085,-0.3331,-0.3575,-0.3872,-0.4182,-0.4558,-0.4952,-0.5145,-0.5318,-0.5542,-0.5542,-0.5598,-0.5586,-0.5586,-0.5578,-0.5516,-0.5526,-0.5563,-0.5537,-0.5527,-0.5443,-0.5295,-0.4927,-0.4557,-0.4271,-0.3988,-0.3702,-0.3475,-0.3026,-0.2858,-0.2748,-0.2468,-0.2187,-0.1907,-0.1851,-0.1795,-0.1795,-0.1795,-0.1795,-0.157,-0.1346,-0.1121,-0.0897,-0.0561,-0.0224,0.0,0.0,0.0,0.0,0.0,0.0,0.0,0.0,0.0,0.0,0.0,0.0,0.0,0.0,0.0,0.0,0.0,0.0,0.0,0.0,0.0,0.0,0.0,0.0,0.0,-0.0335,-0.0469,-0.0803,-0.1267,-0.1528,-0.1724,-0.197,-0.2032,-0.2084,-0.2059,-0.2053,-0.2039,-0.2015,-0.201,-0.1998,-0.2043,-0.2041,-0.2041,-0.2038,-0.2038,-0.2038,-0.2038,-0.2038,-0.2038,-0.2038,-0.2038,-0.2038,-0.2038,-0.2038,-0.2038,-0.2038,-0.2038,-0.2038,-0.2038,-0.2038,-0.2038,-0.2038,-0.2038,-0.2038,-0.2038,-0.21,-0.2099,-0.2161,-0.2407,-0.2652,-0.29,-0.3023,-0.3269,-0.3454,-0.3638,-0.3937,-0.4523,-0.5,-0.5269,-0.5408,-0.5568,-0.5727,-0.5603,-0.5607,-0.5603,-0.559,-0.559,-0.558,-0.5568,-0.5558,-0.5406,-0.5196,-0.4822,-0.4396,-0.4216,-0.3859,-0.3434,-0.3199,-0.2802,-0.2522,-0.2355,-0.2244,-0.2019,-0.1907,-0.1795,-0.1795,-0.1795,-0.1739,-0.1683,-0.1458,-0.1177,-0.0897,-0.0617,-0.028,0.0,0.0,0.0,0.0,0.0,0.0,0.0,0.0,0.0,0.0,0.0,0.0,0.0,0.0,0.0,0.0,0.0,0.0,0.0,0.0,0.0,0.0,0.0,0.0,-0.0135,-0.0337,-0.0539,-0.0875,-0.1279,-0.1548,-0.1817,-0.201,-0.2132,-0.2129,-0.2114,-0.2089,-0.2085,-0.2069,-0.2046,-0.2039,-0.2026,-0.2001,-0.1996,-0.1987,-0.2041,-0.2038,-0.2038,-0.2038,-0.2038,-0.2038,-0.2038,-0.2039,-0.2039,-0.2038,-0.2038,-0.2038,-0.2038,-0.2038,-0.2038,-0.2038,-0.2038,-0.2038,-0.2038,-0.2038,-0.2038,-0.2038,-0.2038,-0.2038,-0.2038,-0.216,-0.2346,-0.2531,-0.2715,-0.29,-0.3022,-0.3146,-0.3455,-0.3947,-0.4562,-0.5104,-0.5244,-0.5475,-0.5641,-0.5668,-0.563,-0.5704,-0.5728,-0.5732,-0.5718,-0.5418,-0.5402,-0.5195,-0.4986,-0.4606,-0.4295,-0.411,-0.3733,-0.317,-0.2816,-0.2467,-0.2243,-0.2075,-0.2019,-0.1963,-0.1851,-0.1795,-0.1795,-0.1795,-0.1683,-0.157,-0.1346,-0.1065,-0.0729,-0.0448,-0.0224,0.0,0.0,0.0,0.0,0.0,0.0,0.0,0.0,0.0,0.0,0.0,0.0,0.0,0.0,0.0,0.0,0.0,0.0,0.0,0.0,0.0,0.0,0.0,-0.0135,-0.0404,-0.0673,-0.0741,-0.1212,-0.1548,-0.1751,-0.202,-0.2153,-0.222,-0.2221,-0.2138,-0.2121,-0.2115,-0.2101,-0.2075,-0.2071,-0.2056,-0.2031,-0.2025,-0.2013,-0.1992,-0.204,-0.2039,-0.2041,-0.2043,-0.1985,-0.1984,-0.1988,-0.2052,-0.205,-0.204,-0.2038,-0.2038,-0.2038,-0.2038,-0.2038,-0.2038,-0.2038,-0.2038,-0.2038,-0.2038,-0.2038,-0.2038,-0.2038,-0.2038,-0.2038,-0.2038,-0.2038,-0.2284,-0.2406,-0.2529,-0.2775,-0.3085,-0.3393,-0.3947,-0.4496,-0.5047,-0.5217,-0.5386,-0.5515,-0.5624,-0.5714,-0.5794,-0.5792,-0.5714,-0.5405,-0.5187,-0.4982,-0.4836,-0.4512,-0.4049,-0.3858,-0.3358,-0.2855,-0.2607,-0.2197,-0.202,-0.1852,-0.1851,-0.1851,-0.1851,-0.1795,-0.1795,-0.1739,-0.157,-0.1402,-0.1234,-0.0897,-0.0504,-0.028,-0.0168,0.0,0.0,0.0,0.0,0.0,0.0,0.0,0.0,0.0,0.0,0.0,0.0,0.0,0.0,0.0,0.0,0.0,0.0,0.0,0.0,0.0,0.0,0.0,-0.0404,-0.0741,-0.1077,-0.1346,-0.1616,-0.1751,-0.202,-0.2155,-0.2222,-0.2222,-0.2222,-0.2216,-0.2213,-0.2212,-0.2129,-0.2106,-0.2101,-0.2086,-0.2063,-0.2051,-0.204,-0.2013,-0.1996,-0.1986,-0.1987,-0.2001,-0.2011,-0.2014,-0.2035,-0.2045,-0.2036,-0.2003,-0.2048,-0.2046,-0.2048,-0.205,-0.2044,-0.2041,-0.2039,-0.2038,-0.2038,-0.2038,-0.2038,-0.2038,-0.2038,-0.2038,-0.2038,-0.2038,-0.2038,-0.2099,-0.2222,-0.2406,-0.2529,-0.2714,-0.3085,-0.3393,-0.3885,-0.4499,-0.4747,-0.5056,-0.5241,-0.5362,-0.5423,-0.5425,-0.5425,-0.53,-0.5026,-0.4892,-0.477,-0.4563,-0.4358,-0.3939,-0.3536,-0.2911,-0.2416,-0.2343,-0.21,-0.1969,-0.1798,-0.1795,-0.1795,-0.1795,-0.1795,-0.1795,-0.1683,-0.1458,-0.1234,-0.1065,-0.0729,-0.0336,0.0,0.0,0.0,0.0,0.0,0.0,0.0,0.0,0.0,0.0,0.0,0.0,0.0,0.0,0.0,0.0,0.0,0.0,0.0,0.0,0.0,0.0,0.0,0.0,-0.0202,-0.0539,-0.0943,-0.1279,-0.1548,-0.1818,-0.1953,-0.2155,-0.2222,-0.2222,-0.2222,-0.2222,-0.2222,-0.2222,-0.2221,-0.2213,-0.2133,-0.2131,-0.2118,-0.2088,-0.2075,-0.2054,-0.2043,-0.203,-0.2023,-0.2024,-0.2032,-0.2042,-0.2045,-0.2056,-0.2127,-0.2121,-0.2044,-0.2022,-0.2022,-0.2083,-0.2012,-0.2001,-0.1997,-0.1994,-0.2041,-0.204,-0.2038,-0.2038,-0.2038,-0.204,-0.2038,-0.2038,-0.2038,-0.2038,-0.2038,-0.2099,-0.216,-0.2283,-0.2406,-0.2653,-0.2899,-0.333,-0.3884,-0.4316,-0.4624,-0.4933,-0.5056,-0.5056,-0.5056,-0.5056,-0.4872,-0.4687,-0.4564,-0.4439,-0.418,-0.397,-0.3512,-0.3107,-0.2658,-0.2216,-0.2083,-0.2006,-0.1875,-0.1804,-0.1802,-0.1797,-0.1795,-0.1795,-0.1795,-0.1627,-0.1402,-0.1177,-0.0897,-0.0504,0.0,0.0,0.0,0.0,0.0,0.0,0.0,0.0,0.0,0.0,0.0,0.0,0.0,0.0,0.0,0.0,0.0,0.0,0.0,0.0,0.0,0.0,0.0,0.0,0.0,-0.0269,-0.0673,-0.101,-0.1414,-0.1818,-0.202,-0.2222,-0.2222,-0.2222,-0.2222,-0.2222,-0.2222,-0.2222,-0.2222,-0.2222,-0.2222,-0.2222,-0.2221,-0.214,-0.2117,-0.209,-0.2138,-0.2135,-0.2132,-0.2125,-0.2122,-0.2068,-0.2072,-0.2076,-0.2081,-0.215,-0.2083,-0.2082,-0.2082,-0.208,-0.2136,-0.205,-0.2036,-0.2028,-0.202,-0.2006,-0.1997,-0.1996,-0.2056,-0.1996,-0.1985,-0.2041,-0.2038,-0.2038,-0.2038,-0.2038,-0.2038,-0.2038,-0.2038,-0.2099,-0.2345,-0.259,-0.2837,-0.333,-0.3822,-0.4193,-0.4441,-0.4687,-0.4687,-0.4626,-0.4626,-0.4564,-0.4379,-0.4195,-0.401,-0.3764,-0.3444,-0.3061,-0.273,-0.2468,-0.214,-0.1941,-0.1921,-0.1844,-0.1825,-0.181,-0.1805,-0.1801,-0.1795,-0.1795,-0.157,-0.1346,-0.1065,-0.0729,-0.0336,0.0,0.0,0.0,0.0,0.0,0.0,0.0,0.0,0.0,0.0,0.0,0.0,0.0,0.0,0.0,0.0,0.0,0.0,0.0,0.0,0.0,0.0,0.0,0.0,-0.0269,-0.0606,-0.101,-0.1414,-0.1683,-0.202,-0.2155,-0.2222,-0.2222,-0.2222,-0.2222,-0.2222,-0.2222,-0.2222,-0.2222,-0.2222,-0.2222,-0.2222,-0.2222,-0.222,-0.2211,-0.2118,-0.2106,-0.2098,-0.2084,-0.2138,-0.2143,-0.2093,-0.2104,-0.2106,-0.2129,-0.2208,-0.2211,-0.2211,-0.2211,-0.2195,-0.2165,-0.2127,-0.206,-0.2059,-0.2054,-0.2108,-0.2109,-0.2052,-0.204,-0.2024,-0.2005,-0.204,-0.2042,-0.2043,-0.1984,-0.2041,-0.204,-0.2038,-0.2038,-0.2038,-0.2161,-0.2283,-0.253,-0.2714,-0.3268,-0.3577,-0.3887,-0.4133,-0.4379,-0.4256,-0.4196,-0.4134,-0.401,-0.3825,-0.3577,-0.3269,-0.3085,-0.2766,-0.2515,-0.2191,-0.2111,-0.191,-0.1892,-0.187,-0.1849,-0.1829,-0.1816,-0.181,-0.1803,-0.1795,-0.1683,-0.1402,-0.1065,-0.0673,-0.0336,0.0,0.0,0.0,0.0,0.0,0.0,0.0,0.0,0.0,0.0,0.0,0.0,0.0,0.0,0.0,0.0,0.0,0.0,0.0,0.0,0.0,0.0,0.0,-0.0269,-0.0471,-0.0808,-0.1279,-0.1548,-0.1818,-0.2087,-0.2222,-0.2222,-0.2222,-0.2222,-0.2222,-0.2222,-0.2222,-0.2222,-0.2222,-0.2222,-0.2222,-0.2222,-0.2222,-0.2222,-0.2218,-0.2209,-0.2201,-0.2201,-0.212,-0.2114,-0.2183,-0.2191,-0.2135,-0.2137,-0.2218,-0.2221,-0.2222,-0.2221,-0.2221,-0.2219,-0.2199,-0.211,-0.2093,-0.209,-0.2082,-0.2133,-0.2131,-0.2126,-0.2126,-0.2053,-0.2041,-0.2029,-0.209,-0.2081,-0.2004,-0.2001,-0.199,-0.1985,-0.2048,-0.2043,-0.2042,-0.21,-0.2284,-0.2468,-0.2652,-0.2961,-0.3271,-0.3454,-0.3639,-0.3701,-0.3577,-0.3516,-0.3454,-0.3331,-0.3083,-0.2775,-0.2652,-0.2466,-0.2279,-0.2087,-0.207,-0.1931,-0.1922,-0.1899,-0.1872,-0.1853,-0.1841,-0.1823,-0.1809,-0.1802,-0.1741,-0.1402,-0.1009,-0.0673,-0.0392,0.0,0.0,0.0,0.0,0.0,0.0,0.0,0.0,0.0,0.0,0.0,0.0,0.0,0.0,0.0,0.0,0.0,0.0,0.0,0.0,0.0,-0.0067,-0.0269,-0.0471,-0.0741,-0.1077,-0.1481,-0.1683,-0.1953,-0.2222,-0.2222,-0.2222,-0.2222,-0.2222,-0.2222,-0.2222,-0.2222,-0.2222,-0.2222,-0.2222,-0.2222,-0.2222,-0.2222,-0.2222,-0.2221,-0.2222,-0.2221,-0.2221,-0.2222,-0.2222,-0.2222,-0.2221,-0.2221,-0.2221,-0.2221,-0.2222,-0.2222,-0.2222,-0.2222,-0.2222,-0.2213,-0.214,-0.2126,-0.2119,-0.2108,-0.2161,-0.215,-0.2157,-0.2078,-0.2075,-0.2132,-0.2058,-0.2121,-0.2047,-0.2037,-0.203,-0.2023,-0.2076,-0.2069,-0.1996,-0.2051,-0.2052,-0.2107,-0.2222,-0.2345,-0.2406,-0.2654,-0.2715,-0.2838,-0.296,-0.296,-0.296,-0.2899,-0.29,-0.2715,-0.2468,-0.2345,-0.2284,-0.216,-0.2032,-0.1958,-0.1952,-0.1943,-0.1928,-0.1902,-0.1885,-0.1872,-0.1851,-0.1826,-0.1817,-0.176,-0.1354,-0.0953,-0.0729,-0.0504,-0.0224,0.0,0.0,0.0,0.0,0.0,0.0,0.0,0.0,0.0,0.0,0.0,0.0,0.0,0.0,0.0,0.0,0.0,0.0,0.0,-0.0067,-0.0337,-0.0539,-0.0808,-0.1144,-0.1481,-0.1751,-0.1953,-0.2155,-0.2155,-0.2222,-0.2222,-0.2222,-0.2222,-0.2222,-0.2222,-0.2222,-0.2222,-0.2222,-0.2222,-0.2222,-0.2222,-0.2222,-0.2222,-0.2222,-0.2222,-0.2222,-0.2222,-0.2222,-0.2222,-0.2222,-0.2222,-0.2222,-0.2222,-0.2222,-0.2087,-0.2087,-0.2087,-0.2087,-0.202,-0.202,-0.2016,-0.2011,-0.2144,-0.2216,-0.2214,-0.2141,-0.1994,-0.1911,-0.204,-0.2094,-0.2013,-0.1887,-0.1943,-0.1999,-0.2059,-0.1992,-0.198,-0.197,-0.2028,-0.2019,-0.2009,-0.2064,-0.2045,-0.2099,-0.2223,-0.2223,-0.2346,-0.2469,-0.2654,-0.2715,-0.2653,-0.2591,-0.253,-0.2346,-0.2223,-0.2099,-0.2038,-0.2038,-0.1971,-0.1967,-0.1966,-0.1962,-0.1949,-0.1932,-0.1917,-0.1898,-0.1882,-0.1859,-0.1847,-0.1776,-0.1478,-0.1242,-0.0899,-0.0617,-0.028,0.0,0.0,0.0,0.0,0.0,0.0,0.0,0.0,0.0,0.0,0.0,0.0,0.0,0.0,0.0,0.0,0.0,-0.0269,-0.0337,-0.0337,-0.0673,-0.0943,-0.1144,-0.1481,-0.1751,-0.1953,-0.2087,-0.2222,-0.2222,-0.2222,-0.2222,-0.2222,-0.2222,-0.2222,-0.2222,-0.2222,-0.2222,-0.2222,-0.2222,-0.2222,-0.2222,-0.2222,-0.2222,-0.2222,-0.2222,-0.2222,-0.2222,-0.2222,-0.2222,-0.2222,-0.2222,-0.2222,-0.2155,-0.2155,-0.202,-0.1885,-0.1818,-0.1751,-0.1616,-0.1616,-0.1616,-0.1683,-0.1885,-0.2087,-0.1818,-0.1682,-0.1544,-0.16,-0.1535,-0.1466,-0.1459,-0.152,-0.158,-0.1439,-0.1633,-0.1759,-0.1813,-0.187,-0.1996,-0.205,-0.1975,-0.2018,-0.2001,-0.2047,-0.2038,-0.2038,-0.2038,-0.2162,-0.2285,-0.2346,-0.2346,-0.2284,-0.2284,-0.2161,-0.2099,-0.2038,-0.2038,-0.2038,-0.2038,-0.2038,-0.2038,-0.2038,-0.1966,-0.1951,-0.1874,-0.1857,-0.1904,-0.1889,-0.187,-0.1794,-0.1719,-0.142,-0.1014,-0.0673,-0.0336,0.0,0.0,0.0,0.0,0.0,0.0,0.0,0.0,0.0,0.0,0.0,0.0,0.0,0.0,0.0,-0.0067,-0.0202,-0.0337,-0.0606,-0.0741,-0.1077,-0.1346,-0.1548,-0.1751,-0.1953,-0.2087,-0.2222,-0.2222,-0.2222,-0.2222,-0.2222,-0.2222,-0.2222,-0.2222,-0.2222,-0.2222,-0.2222,-0.2222,-0.2222,-0.2222,-0.2222,-0.2222,-0.2222,-0.2222,-0.2222,-0.2222,-0.2222,-0.2222,-0.2222,-0.2222,-0.2155,-0.2087,-0.202,-0.1953,-0.1818,-0.1616,-0.1414,-0.1346,-0.1212,-0.1077,-0.1077,-0.1212,-0.1481,-0.1751,-0.1481,-0.1346,-0.1212,-0.1077,-0.1077,-0.1208,-0.1142,-0.1142,-0.1072,-0.0994,-0.1326,-0.1457,-0.1449,-0.171,-0.1838,-0.1952,-0.1938,-0.1978,-0.2018,-0.2004,-0.199,-0.1977,-0.1977,-0.2038,-0.2162,-0.2161,-0.2161,-0.2161,-0.21,-0.21,-0.2038,-0.2038,-0.2038,-0.2038,-0.2038,-0.2038,-0.2038,-0.2038,-0.2038,-0.1964,-0.1949,-0.1943,-0.1939,-0.1922,-0.1894,-0.1819,-0.175,-0.1434,-0.1013,-0.0618,0.0,0.0,0.0,0.0,0.0,0.0,0.0,0.0,0.0,0.0,0.0,0.0,0.0,0.0,0.0,0.0,-0.0202,-0.0471,-0.0606,-0.0808,-0.1144,-0.1414,-0.1616,-0.1751,-0.1953,-0.2155,-0.2155,-0.2222,-0.2222,-0.2222,-0.2222,-0.2222,-0.2222,-0.2222,-0.2222,-0.2222,-0.2222,-0.2222,-0.2222,-0.2222,-0.2222,-0.2222,-0.2222,-0.2222,-0.2222,-0.2222,-0.2222,-0.2222,-0.2222,-0.2222,-0.2222,-0.2087,-0.1953,-0.1751,-0.1683,-0.1414,-0.1144,-0.1077,-0.1077,-0.101,-0.101,-0.101,-0.1077,-0.1077,-0.1077,-0.1077,-0.0943,-0.0943,-0.101,-0.101,-0.0943,-0.0808,-0.0942,-0.101,-0.1075,-0.1075,-0.1072,-0.1204,-0.1402,-0.1598,-0.1649,-0.17,-0.1679,-0.1664,-0.1838,-0.2009,-0.199,-0.1978,-0.1977,-0.2038,-0.2038,-0.2038,-0.2038,-0.2038,-0.2038,-0.2038,-0.2038,-0.2038,-0.2038,-0.2038,-0.2038,-0.2038,-0.2038,-0.2038,-0.2038,-0.1968,-0.1966,-0.1969,-0.1952,-0.1924,-0.1912,-0.1902,-0.1457,-0.0971,-0.0452,0.0,0.0,0.0,0.0,0.0,0.0,0.0,0.0,0.0,0.0,0.0,0.0,0.0,-0.0135,-0.0269,-0.0337,-0.0539,-0.0875,-0.1144,-0.1279,-0.1481,-0.1818,-0.202,-0.202,-0.2155,-0.2155,-0.2222,-0.2222,-0.2222,-0.2222,-0.2222,-0.2222,-0.2222,-0.2222,-0.2222,-0.2222,-0.2222,-0.2222,-0.2222,-0.2222,-0.2222,-0.2222,-0.2222,-0.2222,-0.2222,-0.2222,-0.2222,-0.2222,-0.2222,-0.2155,-0.2155,-0.1953,-0.1751,-0.1481,-0.1414,-0.1077,-0.0808,-0.0673,-0.0606,0.0,0.0,-0.0337,-0.0404,-0.0404,-0.0471,-0.0539,-0.0539,0.0,0.0,0.0,-0.0404,0.0,0.0,0.0,-0.0336,-0.0606,-0.0672,-0.0739,-0.1007,-0.1208,-0.1267,-0.1255,-0.1243,-0.1237,-0.1356,-0.1527,-0.1636,-0.1743,-0.1801,-0.1857,-0.1856,-0.1977,-0.1977,-0.2038,-0.2038,-0.2038,-0.2038,-0.2038,-0.2038,-0.2038,-0.2038,-0.2038,-0.2038,-0.2038,-0.2038,-0.2038,-0.2038,-0.1973,-0.1965,-0.1956,-0.1938,-0.1798,-0.1417,-0.093,-0.0576,0.0,0.0,0.0,0.0,0.0,0.0,0.0,0.0,0.0,0.0,0.0,0.0,-0.0134,-0.0268,-0.0471,-0.0606,-0.0875,-0.1279,-0.1481,-0.1751,-0.1818,-0.2087,-0.2222,-0.2222,-0.2222,-0.2222,-0.2222,-0.2222,-0.2222,-0.2222,-0.2222,-0.2222,-0.2222,-0.2222,-0.2222,-0.2222,-0.2222,-0.2222,-0.2222,-0.2222,-0.2222,-0.2222,-0.2222,-0.2222,-0.2222,-0.2222,-0.2222,-0.2222,-0.2155,-0.2155,-0.1953,-0.1751,-0.1481,-0.1279,-0.101,-0.0741,-0.0471,0.0,0.0,0.0,0.0,0.0,0.0,0.0,0.0,-0.0337,0.0,0.0,0.0,0.0,0.0,0.0,0.0,0.0,0.0,0.0,0.0,0.0,-0.0606,-0.0807,-0.094,-0.0931,-0.1058,-0.0987,-0.0981,-0.1161,-0.1274,-0.1385,-0.1499,-0.1556,-0.1612,-0.1796,-0.1917,-0.1977,-0.1977,-0.2038,-0.2038,-0.2038,-0.2038,-0.2038,-0.2038,-0.2038,-0.2038,-0.2038,-0.2038,-0.2038,-0.2038,-0.2038,-0.1971,-0.1963,-0.1891,-0.1751,-0.1437,-0.1129,-0.0826,0.0,0.0,0.0,0.0,0.0,0.0,0.0,0.0,0.0,0.0,0.0,-0.0066,-0.033,-0.0532,-0.0606,-0.101,-0.1279,-0.1548,-0.1616,-0.1818,-0.2087,-0.2155,-0.2222,-0.2222,-0.2222,-0.2222,-0.2222,-0.2222,-0.2222,-0.2222,-0.2222,-0.2222,-0.2222,-0.2222,-0.2222,-0.2222,-0.2222,-0.2222,-0.2222,-0.2222,-0.2222,-0.2222,-0.2222,-0.2222,-0.2222,-0.2222,-0.2222,-0.2155,-0.2155,-0.1953,-0.1751,-0.1481,-0.1144,-0.0808,-0.0539,-0.0269,0.0,0.0,0.0,0.0,0.0,0.0,0.0,0.0,0.0,0.0,0.0,0.0,0.0,0.0,0.0,0.0,0.0,0.0,0.0,0.0,0.0,0.0,0.0,-0.0471,-0.0538,-0.067,-0.08,-0.0862,-0.0857,-0.0979,-0.0969,-0.1086,-0.12,-0.1259,-0.1317,-0.1433,-0.1616,-0.1854,-0.1916,-0.2038,-0.2038,-0.2038,-0.2038,-0.2038,-0.2038,-0.2038,-0.2038,-0.2038,-0.2038,-0.1977,-0.2038,-0.2038,-0.2038,-0.1971,-0.1839,-0.1714,-0.1589,-0.1274,-0.0782,0.0,0.0,0.0,0.0,0.0,0.0,0.0,0.0,0.0,-0.025,-0.0317,-0.0389,-0.0459,-0.0731,-0.1279,-0.1414,-0.1683,-0.202,-0.202,-0.2087,-0.2155,-0.2222,-0.2222,-0.2222,-0.2222,-0.2222,-0.2222,-0.2222,-0.2222,-0.2222,-0.2222,-0.2222,-0.2222,-0.2222,-0.2222,-0.2222,-0.2222,-0.2222,-0.2222,-0.2222,-0.2222,-0.2222,-0.2222,-0.2222,-0.2222,-0.2222,-0.2222,-0.2155,-0.1953,-0.1751,-0.1548,-0.1077,-0.0741,-0.0539,-0.0269,0.0,0.0,0.0,0.0,0.0,0.0,0.0,0.0,0.0,0.0,0.0,0.0,0.0,0.0,0.0,0.0,0.0,0.0,0.0,0.0,0.0,0.0,0.0,0.0,0.0,0.0,0.0,0.0,-0.0534,-0.0531,-0.066,-0.0654,-0.0841,-0.0961,-0.0957,-0.1015,-0.1133,-0.131,-0.1489,-0.173,-0.1853,-0.1915,-0.1915,-0.1977,-0.2038,-0.2038,-0.2038,-0.1977,-0.1915,-0.1853,-0.1853,-0.1977,-0.1915,-0.1853,-0.173,-0.1666,-0.1541,-0.1415,-0.0985,-0.055,-0.0362,0.0,0.0,0.0,0.0,0.0,0.0,0.0,0.0,-0.0371,-0.0564,-0.0704,-0.0844,-0.1186,-0.1602,-0.1746,-0.1953,-0.2155,-0.2155,-0.2155,-0.2222,-0.2222,-0.2222,-0.2222,-0.2222,-0.2222,-0.2222,-0.2222,-0.2222,-0.2222,-0.2222,-0.2222,-0.2222,-0.2222,-0.2222,-0.2222,-0.2222,-0.2222,-0.2222,-0.2222,-0.2222,-0.2222,-0.2222,-0.2222,-0.2222,-0.2222,-0.2222,-0.2087,-0.1818,-0.1548,-0.1346,-0.0808,-0.0471,-0.0337,-0.0067,0.0,0.0,0.0,0.0,0.0,0.0,0.0,0.0,0.0,0.0,0.0,0.0,0.0,0.0,0.0,0.0,0.0,0.0,0.0,0.0,0.0,0.0,0.0,0.0,0.0,0.0,0.0,0.0,0.0,-0.0134,-0.0267,-0.0397,0.0,-0.0585,-0.0518,-0.0514,-0.0636,-0.088,-0.1119,-0.1424,-0.1668,-0.173,-0.1791,-0.1853,-0.1915,-0.1853,-0.1791,-0.173,-0.173,-0.173,-0.1606,-0.1544,-0.1544,-0.1544,-0.142,-0.1359,-0.1297,-0.1111,-0.0741,-0.0432,-0.0306,0.0,0.0,0.0,0.0,0.0,0.0,0.0,0.0,-0.0432,-0.0747,-0.1073,-0.1411,-0.1626,-0.1716,-0.2008,-0.2155,-0.2222,-0.2222,-0.2222,-0.2222,-0.2222,-0.2222,-0.2222,-0.2222,-0.2222,-0.2222,-0.2222,-0.2222,-0.2222,-0.2222,-0.2222,-0.2222,-0.2222,-0.2222,-0.2222,-0.2222,-0.2222,-0.2222,-0.2222,-0.2222,-0.2222,-0.2222,-0.2222,-0.2222,-0.2222,-0.2155,-0.2155,-0.1818,-0.1414,-0.1077,-0.0741,-0.0337,-0.0135,0.0,0.0,0.0,0.0,0.0,0.0,0.0,0.0,0.0,0.0,0.0,0.0,0.0,0.0,0.0,0.0,0.0,0.0,0.0,0.0,0.0,0.0,0.0,0.0,0.0,0.0,0.0,0.0,0.0,0.0,0.0,0.0,0.0,0.0,0.0,0.0,0.0,0.0,0.0,0.0,-0.1057,-0.1363,-0.1483,-0.1544,-0.1606,-0.1668,-0.1606,-0.1606,-0.1483,-0.142,-0.1359,-0.1173,-0.105,-0.1173,-0.1297,-0.1112,-0.0988,-0.0926,-0.0865,-0.0556,-0.0309,-0.0247,0.0,0.0,0.0,0.0,0.0,0.0,-0.0124,-0.0371,-0.0741,-0.1052,-0.1432,-0.1788,-0.195,-0.1979,-0.2138,-0.2222,-0.2222,-0.2222,-0.2222,-0.2222,-0.2222,-0.2222,-0.2222,-0.2222,-0.2222,-0.2222,-0.2222,-0.2222,-0.2222,-0.2222,-0.2222,-0.2222,-0.2222,-0.2222,-0.2222,-0.2222,-0.2222,-0.2222,-0.2222,-0.2222,-0.2222,-0.2222,-0.2222,-0.2222,-0.2222,-0.2155,-0.202,-0.1683,-0.1279,-0.0943,-0.0471,-0.0202,0.0,0.0,0.0,0.0,0.0,0.0,0.0,0.0,0.0,0.0,0.0,0.0,0.0,0.0,0.0,0.0,0.0,0.0,0.0,0.0,0.0,0.0,0.0,0.0,0.0,0.0,0.0,0.0,0.0,0.0,0.0,0.0,0.0,0.0,0.0,0.0,0.0,0.0,0.0,0.0,0.0,0.0,-0.0874,-0.1114,-0.1173,-0.1297,-0.1359,-0.1359,-0.1235,-0.1112,-0.105,-0.0988,-0.0865,-0.0803,-0.0926,-0.105,-0.0803,-0.0679,-0.0618,-0.0494,-0.0309,0.0,0.0,0.0,0.0,0.0,0.0,0.0,0.0,-0.0185,-0.0556,-0.0865,-0.1173,-0.1552,-0.1911,-0.2138,-0.2095,-0.2132,-0.2222,-0.2222,-0.2222,-0.2222,-0.2222,-0.2222,-0.2222,-0.2222,-0.2222,-0.2222,-0.2222,-0.2222,-0.2222,-0.2222,-0.2222,-0.2222,-0.2222,-0.2222,-0.2222,-0.2222,-0.2222,-0.2222,-0.2222,-0.2222,-0.2222,-0.2222,-0.2222,-0.2222,-0.2222,-0.2222,-0.2222,-0.1953,-0.1616,-0.1212,-0.0875,0.0,0.0,0.0,0.0,0.0,0.0,0.0,0.0,0.0,0.0,0.0,0.0,0.0,0.0,0.0,0.0,0.0,0.0,0.0,0.0,0.0,0.0,0.0,0.0,0.0,0.0,0.0,0.0,0.0,0.0,0.0,0.0,0.0,0.0,0.0,0.0,0.0,0.0,0.0,0.0,0.0,0.0,0.0,0.0,-0.0441,-0.0688,-0.0929,-0.1112,-0.1112,-0.0988,-0.0926,-0.0803,-0.0618,-0.0556,-0.0556,-0.0556,0.0,0.0,-0.0432,-0.0309,0.0,0.0,-0.0124,0.0,0.0,0.0,0.0,0.0,0.0,0.0,0.0,-0.0247,-0.0556,-0.0926,-0.1235,-0.1613,-0.197,-0.2056,-0.2067,-0.2121,-0.2213,-0.2222,-0.2222,-0.2222,-0.2222,-0.2222,-0.2222,-0.2222,-0.2222,-0.2222,-0.2222,-0.2222,-0.2222,-0.2222,-0.2222,-0.2222,-0.2222,-0.2222,-0.2222,-0.2222,-0.2222,-0.2222,-0.2222,-0.2222,-0.2222,-0.2222,-0.2222,-0.2222,-0.2222,-0.2222,-0.2222,-0.1953,-0.1548,-0.1144,-0.0875,0.0,0.0,0.0,0.0,0.0,0.0,0.0,0.0,0.0,0.0,0.0,0.0,0.0,0.0,0.0,0.0,0.0,0.0,0.0,0.0,0.0,0.0,0.0,0.0,0.0,0.0,0.0,0.0,0.0,0.0,0.0,0.0,0.0,0.0,0.0,0.0,0.0,0.0,0.0,0.0,0.0,0.0,0.0,0.0,0.0,-0.0318,-0.0566,0.0,0.0,0.0,-0.0556,-0.0432,-0.0247,0.0,0.0,0.0,0.0,0.0,0.0,0.0,0.0,0.0,0.0,0.0,0.0,0.0,0.0,0.0,0.0,0.0,-0.0309,-0.0618,-0.0926,-0.1235,-0.1606,-0.1858,-0.1949,-0.2027,-0.2044,-0.2089,-0.2129,-0.2221,-0.2222,-0.2222,-0.2222,-0.2222,-0.2222,-0.2222,-0.2222,-0.2222,-0.2222,-0.2222,-0.2222,-0.2222,-0.2222,-0.2222,-0.2222,-0.2222,-0.2222,-0.2222,-0.2222,-0.2222,-0.2222,-0.2222,-0.2222,-0.2222,-0.2222,-0.2222,-0.2222,-0.2222,-0.2222,-0.1885,-0.1481,-0.1212,-0.0875,-0.0404,0.0,0.0,0.0,0.0,0.0,0.0,0.0,0.0,0.0,0.0,0.0,0.0,0.0,0.0,0.0,0.0,0.0,0.0,0.0,0.0,0.0,0.0,0.0,0.0,0.0,0.0,0.0,0.0,0.0,0.0,0.0,0.0,0.0,0.0,0.0,0.0,0.0,0.0,0.0,0.0,0.0,0.0,0.0,0.0,0.0,0.0,0.0,0.0,0.0,0.0,0.0,0.0,0.0,0.0,0.0,0.0,0.0,0.0,0.0,0.0,0.0,0.0,0.0,0.0,0.0,0.0,0.0]}]]